Date StartTime U_cm/s V_cm/s W_cm/s Ustd_cm/s Vstd_cm/s Wstd_cm/s Uvar_(cm/s)^2 Vvar_(cm/s)^2 Wvar_(cm/s)^2 KE_(m/s)^2 TurbulentKE_(m/s)^2 HorizWindSpeed_cm/s FrictionSpeec_cm/s DragCoef SpeedOfSound_m/s SonicTemperature_C Pressure_mb 
10/31/2013  00:00:00      -60.902      -35.489       -9.424       34.902       25.559       17.228     1218.177      653.253      296.787        0.361        0.108       70.488       14.583        0.043      333.581        2.989      865.592
10/31/2013  00:01:00      -35.053      -26.202        0.403       30.274       22.073       19.832      916.534      487.234      393.316        0.186        0.090       43.764       14.378        0.108      333.624        3.060      865.577
10/31/2013  00:02:00      -14.662      -13.707       11.539       30.316       18.372       18.310      919.084      337.521      335.239        0.106        0.080       20.071       10.587        0.278      333.568        2.970      865.578
10/31/2013  00:03:00      -19.133      -14.275        6.744       24.978       14.968       11.682      623.882      224.030      136.481        0.080        0.049       23.872        4.038        0.029      333.573        2.977      865.592
10/31/2013  00:04:00      -33.811      -21.017        2.128       26.404       14.577       18.242      697.186      212.497      332.775        0.142        0.062       39.811       18.322        0.212      333.586        2.997      865.602
10/31/2013  00:05:00      -88.558       -7.700      -15.509       22.790       18.373       13.753      519.391      337.580      189.146        0.459        0.052       88.892        8.837        0.010      333.582        2.990      865.613
10/31/2013  00:06:00      -85.065      -13.421       -8.043       21.831       21.543       23.186      476.571      464.110      537.597        0.448        0.074       86.117       13.730        0.025      333.530        2.906      865.620
10/31/2013  00:07:00      -84.373      -29.603      -12.642       22.548       15.781       12.249      508.402      249.041      150.032        0.453        0.045       89.416       11.723        0.017      333.556        2.948      865.647
10/31/2013  00:08:00      -96.739      -11.263      -11.265       18.193       19.456       15.886      330.978      378.526      252.364        0.529        0.048       97.392        9.711        0.010      333.525        2.895      865.671
10/31/2013  00:09:00      -83.137       -8.807      -10.701       21.709       21.255       15.977      471.270      451.793      255.269        0.414        0.059       83.602       12.544        0.023      333.542        2.924      865.682
10/31/2013  00:10:00      -90.896      -10.253      -17.599       20.812       20.979       13.423      433.122      440.121      180.167        0.487        0.053       91.473        6.178        0.005      333.534        2.910      865.682
10/31/2013  00:11:00     -105.178      -14.881      -12.129       24.646       16.737       14.997      607.417      280.121      224.898        0.627        0.056      106.225       10.046        0.009      333.500        2.855      865.696
10/31/2013  00:12:00     -143.429        1.567      -17.930       20.102       16.040       13.406      404.098      257.266      179.730        1.087        0.042      143.438        8.347        0.003      333.481        2.822      865.707
10/31/2013  00:13:00     -108.798        8.365      -14.099       22.631       14.792       13.388      512.162      218.793      179.236        0.651        0.046      109.120       12.167        0.012      333.449        2.771      865.716
10/31/2013  00:14:00      -77.277      -13.099      -10.634       18.652       16.104       12.221      347.899      259.347      149.358        0.351        0.038       78.379        7.863        0.010      333.533        2.910      865.724
10/31/2013  00:15:00      -93.064      -16.874      -13.028       16.236       12.548        9.161      263.609      157.459       83.920        0.481        0.025       94.581        6.369        0.005      333.523        2.892      865.730
10/31/2013  00:16:00      -85.441      -23.824      -11.845       17.035       13.717       10.745      290.179      188.149      115.449        0.430        0.030       88.701        7.115        0.006      333.510        2.871      865.748
10/31/2013  00:17:00      -71.947      -20.973      -12.395       11.399       12.367       11.308      129.931      152.939      127.872        0.309        0.021       74.941        7.357        0.010      333.519        2.886      865.761
10/31/2013  00:18:00      -84.627      -26.319      -10.684       16.537       12.557       10.774      273.472      157.683      116.081        0.426        0.027       88.625        9.290        0.011      333.520        2.886      865.762
10/31/2013  00:19:00      -86.920      -22.431      -17.556       12.217       14.628       10.139      149.254      213.991      102.792        0.442        0.023       89.768        7.085        0.006      333.520        2.887      865.761
10/31/2013  00:20:00      -96.585      -27.035      -16.887       21.756       21.083       13.064      473.323      444.482      170.665        0.572        0.054      100.297        8.779        0.008      333.574        2.977      865.764
10/31/2013  00:21:00      -97.418      -17.573       -9.414       20.463       14.492       13.418      418.742      210.026      180.051        0.535        0.040       98.990        9.716        0.010      333.530        2.904      865.774
10/31/2013  00:22:00      -77.358      -23.046      -15.429       14.617       15.352       11.260      213.667      235.679      126.786        0.366        0.029       80.718        9.010        0.012      333.575        2.978      865.793
10/31/2013  00:23:00      -64.748      -25.093      -16.327       15.179       14.275       12.222      230.389      203.770      149.368        0.284        0.029       69.440        4.781        0.005      333.667        3.132      865.810
10/31/2013  00:24:00      -60.662      -15.428      -11.030       14.775       19.394       12.628      218.302      376.108      159.475        0.240        0.038       62.593        8.466        0.018      333.801        3.354      865.831
10/31/2013  00:25:00      -51.841      -20.983       -7.460       12.625       13.830        9.098      159.396      191.281       82.766        0.181        0.022       55.927        3.359        0.004      333.674        3.144      865.845
10/31/2013  00:26:00      -52.250      -21.062      -15.518       14.221       14.841       10.723      202.225      220.251      114.991        0.198        0.027       56.335        4.468        0.006      333.760        3.286      865.864
10/31/2013  00:27:00      -72.984      -19.636       -7.967        8.425       11.255        6.737       70.986      126.664       45.390        0.301        0.012       75.580        4.657        0.004      333.641        3.090      865.891
10/31/2013  00:28:00      -62.444      -22.021      -12.799        7.427       10.968        7.721       55.158      120.287       59.614        0.239        0.012       66.213        5.054        0.006      333.569        2.969      865.917
10/31/2013  00:29:00      -77.406      -41.644       -7.305       17.548       19.535       10.835      307.949      381.633      117.407        0.429        0.040       87.897        6.283        0.005      333.488        2.833      865.932
10/31/2013  00:30:00      -56.563      -29.021        1.339       23.229       15.791       13.520      539.603      249.351      182.789        0.251        0.049       63.574       13.883        0.048      333.490        2.836      865.944
10/31/2013  00:31:00      -78.619      -44.228       -1.979       28.074       21.230       12.568      788.164      450.720      157.943        0.477        0.070       90.205        7.993        0.008      333.535        2.912      865.954
10/31/2013  00:32:00      -57.573      -48.619        4.966       30.863       25.610       20.025      952.498      655.879      400.988        0.386        0.100       75.356       15.597        0.043      333.596        3.013      865.967
10/31/2013  00:33:00      -93.923      -37.097       -5.174       24.239       16.013       10.514      587.539      256.432      110.552        0.559        0.048      100.984        7.489        0.006      333.701        3.187      865.975
10/31/2013  00:34:00      -41.835      -51.100       -2.902       21.967       18.356       13.724      482.565      336.940      188.361        0.269        0.050       66.041        4.227        0.004      333.748        3.266      865.979
10/31/2013  00:35:00      -35.020      -50.135       -0.898       13.757       34.513       18.582      189.252     1191.178      345.293        0.273        0.086       61.155        6.693        0.012      333.758        3.281      865.981
10/31/2013  00:36:00      -29.326      -14.033        1.976       26.108       15.504       14.035      681.652      240.360      196.971        0.109        0.056       32.511       10.945        0.113      333.744        3.258      865.996
10/31/2013  00:37:00      -39.576      -16.764       -6.415       31.808       19.432       14.472     1011.754      377.589      209.445        0.174        0.080       42.980        8.698        0.041      333.705        3.194      866.019
10/31/2013  00:38:00      -32.095      -13.713       -6.368       15.797       12.489       10.822      249.534      155.969      117.125        0.089        0.026       34.902        9.823        0.079      333.622        3.057      866.039
10/31/2013  00:39:00      -36.279      -10.609       -0.081       25.610       18.582       16.418      655.866      345.306      269.554        0.135        0.064       37.799       12.047        0.102      333.597        3.017      866.048
10/31/2013  00:40:00      -77.488       -6.067        0.794       23.093       22.142       16.350      533.302      490.276      267.331        0.367        0.065       77.725       10.559        0.018      333.624        3.060      866.060
10/31/2013  00:41:00      -52.978      -12.981       -1.729       29.089       25.115       16.811      846.148      630.747      282.612        0.237        0.088       54.545       12.431        0.052      333.639        3.086      866.071
10/31/2013  00:42:00      -55.355      -23.363        9.264       42.206       24.718       22.918     1781.308      610.978      525.241        0.331        0.146       60.084       21.370        0.126      333.595        3.013      866.084
10/31/2013  00:43:00      -49.322      -39.153        3.359       34.930       24.194       24.445     1220.113      585.338      597.564        0.319        0.120       62.974       20.203        0.103      333.610        3.038      866.102
10/31/2013  00:44:00      -64.880      -56.912        5.731       45.202       30.283       25.050     2043.214      917.031      627.493        0.553        0.179       86.305       13.706        0.025      333.626        3.063      866.116
10/31/2013  00:45:00      -40.001      -40.841        7.580       42.757       28.885       23.968     1828.193      834.333      574.443        0.328        0.162       57.167       19.677        0.118      333.638        3.082      866.109
10/31/2013  00:46:00      -31.280      -26.458       10.440       36.304       24.316       20.456     1317.958      591.253      418.434        0.206        0.116       40.969       19.966        0.238      333.644        3.095      866.104
10/31/2013  00:47:00      -31.748      -57.849        7.947       41.352       29.680       26.388     1710.014      880.892      696.335        0.385        0.164       65.988       26.807        0.165      333.700        3.187      866.105
10/31/2013  00:48:00      -23.858      -30.317       11.484       29.475       28.947       19.651      868.797      837.919      386.155        0.186        0.105       38.578       18.893        0.240      333.688        3.167      866.103
10/31/2013  00:49:00      -40.173      -46.415        7.014       35.778       24.871       17.574     1280.046      618.586      308.838        0.301        0.110       61.386       11.304        0.034      333.722        3.223      866.110
10/31/2013  00:50:00      -45.491      -50.590        6.351       41.505       25.016       25.789     1722.677      625.825      665.058        0.384        0.151       68.036       24.006        0.124      333.715        3.211      866.120
10/31/2013  00:51:00      -48.143      -45.554        4.979       34.713       22.488       15.100     1205.019      505.726      228.019        0.318        0.097       66.279       15.179        0.052      333.709        3.200      866.130
10/31/2013  00:52:00      -59.373      -37.471       -0.039       22.914       19.761       16.181      525.068      390.494      261.815        0.305        0.059       70.208       15.371        0.048      333.654        3.109      866.148
10/31/2013  00:53:00      -54.768      -19.151        6.940       27.336       15.529       12.690      747.283      241.139      161.040        0.228        0.057       58.020       12.193        0.044      333.530        2.903      866.164
10/31/2013  00:54:00      -40.536      -21.729        2.881       29.269       16.993       14.371      856.660      288.777      206.516        0.174        0.068       45.993       17.917        0.152      333.455        2.781      866.177
10/31/2013  00:55:00      -59.476      -23.716       -3.211       14.584       12.791        7.477      212.700      163.616       55.900        0.227        0.022       64.030        5.647        0.008      333.517        2.884      866.178
10/31/2013  00:56:00      -65.464      -25.887       -0.997       22.241       14.230        9.988      494.681      202.481       99.768        0.288        0.040       70.397        9.435        0.018      333.497        2.850      866.174
10/31/2013  00:57:00      -74.900      -25.836        4.671       27.702       20.920       15.088      767.405      437.631      227.647        0.387        0.072       79.231       16.628        0.044      333.454        2.777      866.183
10/31/2013  00:58:00      -86.681      -30.407        2.695       25.462       25.149       17.077      648.302      632.464      291.625        0.501        0.079       91.859        9.666        0.011      333.483        2.825      866.196
10/31/2013  00:59:00      -81.463      -41.480        0.356       41.156       26.723       16.974     1693.814      714.119      288.132        0.553        0.135       91.415        8.439        0.009      333.443        2.762      866.201
10/31/2013  01:00:00     -101.717      -12.681       -2.300       32.847       21.467       14.196     1078.921      460.812      201.521        0.613        0.087      102.505       15.286        0.022      333.340        2.591      866.202
10/31/2013  01:01:00      -54.212      -16.697        2.619       37.686       29.640       17.119     1420.268      878.506      293.058        0.291        0.130       56.725       20.918        0.136      333.293        2.513      866.206
10/31/2013  01:02:00      -64.564      -31.128        2.768       28.917       23.516       14.812      836.175      552.996      219.387        0.338        0.080       71.676       11.989        0.028      333.292        2.511      866.211
10/31/2013  01:03:00      -63.830      -16.912        5.850       19.561       19.514       14.879      382.637      380.804      221.388        0.269        0.049       66.032       11.739        0.032      333.310        2.542      866.226
10/31/2013  01:04:00      -97.735      -29.968        2.803       33.039       22.430       17.162     1091.592      503.098      294.523        0.617        0.094      102.226       19.638        0.037      333.291        2.510      866.235
10/31/2013  01:05:00     -121.563      -43.822        0.727       31.117       21.952       15.992      968.294      481.887      255.731        0.920        0.085      129.220       14.684        0.013      333.294        2.514      866.242
10/31/2013  01:06:00     -145.228      -51.298        1.505       33.514       24.275       19.341     1123.183      589.270      374.072        1.291        0.104      154.022       19.013        0.015      333.325        2.566      866.240
10/31/2013  01:07:00     -153.533      -47.361       -4.386       28.859       20.187       14.852      832.857      407.496      220.570        1.365        0.073      160.672       13.549        0.007      333.320        2.558      866.230
10/31/2013  01:08:00     -142.455      -61.176        3.600       26.293       20.097       15.663      691.325      403.897      245.322        1.269        0.067      155.036       13.349        0.007      333.284        2.498      866.231
10/31/2013  01:09:00     -140.572      -55.031       -1.499       24.198       24.652       14.221      585.542      607.715      202.244        1.209        0.070      150.960       14.456        0.009      333.292        2.511      866.226
10/31/2013  01:10:00     -133.739      -46.988        3.900       25.861       31.156       21.018      668.779      970.682      441.746        1.109        0.104      141.753       14.577        0.011      333.265        2.466      866.222
10/31/2013  01:11:00     -144.624      -50.425       -2.648       31.456       24.865       15.575      989.464      618.283      242.572        1.266        0.093      153.162       15.399        0.010      333.242        2.428      866.216
10/31/2013  01:12:00     -175.582      -62.083       -6.798       16.414       19.248       12.197      269.409      370.479      148.777        1.776        0.039      186.234        7.231        0.002      333.279        2.489      866.209
10/31/2013  01:13:00     -146.460      -64.726       -8.332       16.791       16.651       14.706      281.954      277.266      216.279        1.324        0.039      160.124        5.539        0.001      333.243        2.429      866.205
10/31/2013  01:14:00     -126.172      -45.887      -10.285       21.005       27.292       14.388      441.206      744.841      207.028        0.976        0.070      134.257        9.217        0.005      333.169        2.309      866.197
10/31/2013  01:15:00     -117.200      -35.781      -12.163       16.214       19.168       15.701      262.886      367.393      246.526        0.802        0.044      122.540        6.566        0.003      333.183        2.330      866.189
10/31/2013  01:16:00      -98.232      -23.110       -4.710       44.018       20.538       14.141     1937.566      421.793      199.963        0.638        0.128      100.914       18.395        0.033      333.121        2.227      866.185
10/31/2013  01:17:00     -101.302      -43.473       -6.882       22.229       27.893       14.305      494.145      778.019      204.645        0.684        0.074      110.236       13.624        0.015      333.197        2.354      866.181
10/31/2013  01:18:00     -114.837      -29.382       -5.725       36.545       29.252       20.082     1335.508      855.686      403.267        0.834        0.130      118.537       19.770        0.028      333.076        2.155      866.171
10/31/2013  01:19:00     -117.438      -12.515      -12.761       29.488       38.791       25.210      869.544     1504.777      635.526        0.856        0.150      118.103       16.386        0.019      333.104        2.201      866.172
10/31/2013  01:20:00     -140.761      -11.809       -9.805       41.428       35.180       21.994     1716.238     1237.621      483.732        1.174        0.172      141.255       16.173        0.013      333.049        2.109      866.169
10/31/2013  01:21:00     -141.886       -0.366       -7.386       42.625       34.384       27.901     1816.914     1182.287      778.469        1.198        0.189      141.887       22.948        0.026      333.005        2.036      866.164
10/31/2013  01:22:00     -101.682      -30.266       -9.038       39.972       34.620       22.029     1597.797     1198.538      485.295        0.731        0.164      106.090       10.563        0.010      333.042        2.098      866.164
10/31/2013  01:23:00     -115.364      -27.748       -9.304       53.458       35.697       23.092     2857.709     1274.263      533.240        0.941        0.233      118.654       22.629        0.036      333.013        2.049      866.159
10/31/2013  01:24:00     -115.185       -2.506       -7.724       64.711       31.875       26.367     4187.469     1016.017      695.223        0.962        0.295      115.212       32.173        0.078      332.975        1.986      866.151
10/31/2013  01:25:00     -135.101       -3.521      -13.615       51.514       40.895       25.333     2653.661     1672.440      641.782        1.171        0.248      135.146       24.158        0.032      332.987        2.005      866.138
10/31/2013  01:26:00     -127.809      -23.335       -3.069       53.255       34.649       24.288     2836.138     1200.526      589.927        1.076        0.231      129.922       27.715        0.046      332.973        1.982      866.122
10/31/2013  01:27:00     -131.230      -13.705       -6.784       41.364       36.311       25.855     1711.000     1318.519      668.460        1.058        0.185      131.944       20.426        0.024      333.058        2.125      866.120
10/31/2013  01:28:00      -77.847      -29.240        0.889       61.229       33.552       20.362     3748.963     1125.704      414.619        0.610        0.264       83.157       15.712        0.036      333.043        2.100      866.116
10/31/2013  01:29:00     -103.302      -18.067       -0.462       40.074       34.867       21.009     1605.946     1215.721      441.370        0.713        0.163      104.870       21.201        0.041      333.034        2.086      866.117
10/31/2013  01:30:00      -94.402      -20.758       -6.937       36.463       31.939       15.357     1329.586     1020.115      235.826        0.599        0.129       96.658       13.861        0.021      333.042        2.099      866.121
10/31/2013  01:31:00      -86.586      -55.043        0.408       44.777       30.931       25.907     2004.968      956.753      671.170        0.708        0.182      102.600       27.204        0.070      333.027        2.073      866.130
10/31/2013  01:32:00      -50.911      -38.179        1.139       42.688       27.045       19.535     1822.288      731.432      381.626        0.349        0.147       63.636       20.236        0.101      333.041        2.097      866.140
10/31/2013  01:33:00     -112.484      -47.261        0.483       48.474       48.540       24.559     2349.776     2356.102      603.159        1.010        0.265      122.009       22.568        0.034      332.991        2.015      866.137
10/31/2013  01:34:00     -107.013      -12.589       -0.668       49.226       35.323       28.790     2423.171     1247.686      828.837        0.805        0.225      107.751       28.010        0.068      332.973        1.984      866.132
10/31/2013  01:35:00      -63.478      -21.017        1.577       39.291       34.667       16.487     1543.778     1201.770      271.809        0.375        0.151       66.867       10.189        0.023      333.051        2.112      866.149
10/31/2013  01:36:00      -65.543      -24.635        4.524       49.914       39.100       25.478     2491.416     1528.829      649.140        0.480        0.233       70.020       28.952        0.171      333.044        2.101      866.159
10/31/2013  01:37:00      -75.347      -12.881      -11.530       55.648       26.242       13.242     3096.652      688.640      175.356        0.497        0.198       76.440        9.351        0.015      333.101        2.195      866.153
10/31/2013  01:38:00      -14.703      -18.438       13.990       34.063       15.874       15.233     1160.291      251.989      232.051        0.120        0.082       23.583       16.043        0.463      333.148        2.272      866.143
10/31/2013  01:39:00      -30.912      -15.560        9.919       35.535       21.953       19.174     1262.731      481.937      367.641        0.170        0.106       34.607       16.532        0.228      333.179        2.323      866.138
10/31/2013  01:40:00      -26.034      -26.972        4.417       33.894       24.772       17.290     1148.800      613.650      298.927        0.174        0.103       37.486       14.641        0.153      333.246        2.434      866.131
10/31/2013  01:41:00      -54.787      -46.963        2.994       43.777       28.245       17.904     1916.395      797.757      320.537        0.412        0.152       72.160       18.509        0.066      333.239        2.424      866.128
10/31/2013  01:42:00      -93.610      -53.576       -8.841       30.884       18.664       13.284      953.795      348.327      176.472        0.659        0.074      107.857       12.145        0.013      333.229        2.406      866.116
10/31/2013  01:43:00      -54.732      -39.200        2.350       30.070       19.229       18.246      904.181      369.749      332.921        0.307        0.080       67.322       17.706        0.069      333.261        2.459      866.113
10/31/2013  01:44:00      -59.788      -44.218        6.689       31.703       19.791       17.851     1005.088      391.680      318.659        0.364        0.086       74.363       16.076        0.047      333.208        2.371      866.103
10/31/2013  01:45:00      -72.367      -49.276       -6.214       36.524       24.854       15.207     1334.029      617.700      231.246        0.494        0.109       87.551       17.230        0.039      333.207        2.370      866.100
10/31/2013  01:46:00      -73.148      -25.184        1.735       40.399       24.612       19.184     1632.066      605.756      368.023        0.430        0.130       77.362       20.277        0.069      333.190        2.341      866.105
10/31/2013  01:47:00      -22.365      -36.852        8.493       40.499       35.077       21.641     1640.179     1230.426      468.354        0.263        0.167       43.108       10.531        0.060      333.233        2.413      866.141
10/31/2013  01:48:00      -50.149      -38.143        0.908       57.618       22.851       14.789     3319.857      522.151      218.706        0.401        0.203       63.006       12.708        0.041      333.242        2.428      866.161
10/31/2013  01:49:00      -23.974      -26.828        9.305       31.072       30.618       17.920      965.471      937.468      321.130        0.180        0.111       35.979       18.947        0.277      333.208        2.373      866.175
10/31/2013  01:50:00      -74.217      -57.066       -1.322       21.548       22.258       16.590      464.322      495.428      275.221        0.500        0.062       93.620       11.487        0.015      333.112        2.214      866.186
10/31/2013  01:51:00      -87.520      -42.435       -6.221       20.602       18.287       13.097      424.424      334.421      171.519        0.521        0.047       97.265        8.961        0.008      333.107        2.205      866.209
10/31/2013  01:52:00     -113.698      -47.774       -4.703       19.768       18.544       14.992      390.782      343.876      224.774        0.810        0.048      123.327        8.589        0.005      333.059        2.127      866.228
10/31/2013  01:53:00     -113.652      -48.932        2.846       31.037       30.655       24.777      963.326      939.732      613.876        0.892        0.126      123.738       20.429        0.027      333.030        2.077      866.241
10/31/2013  01:54:00     -102.108      -58.658       -1.295       40.198       24.240       20.384     1615.901      587.563      415.495        0.824        0.131      117.757       22.876        0.038      333.011        2.047      866.262
10/31/2013  01:55:00     -110.096      -53.944       -0.267       34.629       21.714       19.481     1199.191      471.513      379.495        0.854        0.103      122.601       14.425        0.014      333.006        2.038      866.278
10/31/2013  01:56:00      -94.573      -44.051       -2.656       43.582       29.325       20.101     1899.417      859.940      404.047        0.703        0.158      104.329       24.212        0.054      332.993        2.016      866.303
10/31/2013  01:57:00     -108.738      -44.042       -6.653       37.569       16.207       15.913     1411.453      262.683      253.216        0.787        0.096      117.319       16.138        0.019      332.977        1.989      866.329
10/31/2013  01:58:00      -81.108      -54.343       -0.052       24.642       19.034       16.284      607.218      362.295      265.157        0.538        0.062       97.631       13.807        0.020      332.998        2.025      866.365
10/31/2013  01:59:00      -44.613      -34.741        2.272       34.668       14.953       19.003     1201.842      223.601      361.112        0.249        0.089       56.544       17.204        0.093      333.032        2.082      866.391
10/31/2013  02:00:00      -79.305      -22.801      -11.997       32.979       30.277       13.413     1087.605      916.696      179.917        0.457        0.109       82.517        5.492        0.004      332.952        1.948      866.414
10/31/2013  02:01:00      -30.252      -19.241        2.561       31.897       23.423       16.561     1017.434      548.624      274.267        0.157        0.092       35.853       18.962        0.280      332.960        1.963      866.425
10/31/2013  02:02:00      -59.019      -22.045       -3.595       37.775       16.529       16.244     1426.951      273.212      263.875        0.297        0.098       63.002       19.765        0.098      332.964        1.969      866.446
10/31/2013  02:03:00      -72.668      -41.767      -10.115       13.020       17.704        9.475      169.527      313.441       89.768        0.385        0.029       83.816        5.810        0.005      332.929        1.911      866.464
10/31/2013  02:04:00      -77.126      -42.035      -10.740       17.914       18.763        7.757      320.902      352.066       60.173        0.428        0.037       87.837        5.256        0.004      332.913        1.884      866.479
10/31/2013  02:05:00      -84.447       -8.049      -12.951        7.573        8.786        6.468       57.348       77.198       41.836        0.377        0.009       84.830        4.486        0.003      332.939        1.928      866.481
10/31/2013  02:06:00      -61.473       -6.712      -14.700       18.272       11.225        7.454      333.873      126.000       55.557        0.228        0.026       61.839        6.461        0.011      332.961        1.965      866.481
10/31/2013  02:07:00      -16.098       -9.140       -6.797       13.602       15.041       13.409      185.016      226.244      179.801        0.049        0.030       18.511       10.461        0.319      333.038        2.092      866.501
10/31/2013  02:08:00      -18.721      -13.814       -6.952       13.059        9.770        7.305      170.537       95.458       53.370        0.045        0.016       23.266        4.598        0.039      333.089        2.176      866.510
10/31/2013  02:09:00      -13.155      -12.408       -2.472       10.523       15.667        7.238      110.734      245.459       52.391        0.037        0.020       18.084        3.667        0.041      333.136        2.252      866.517
10/31/2013  02:10:00      -19.079       -2.816        0.373       10.952        6.769        5.676      119.956       45.815       32.213        0.029        0.010       19.286        5.182        0.072      333.113        2.215      866.508
10/31/2013  02:11:00      -42.159       -2.822       -4.873       13.502       11.296       10.435      182.302      127.589      108.897        0.111        0.021       42.254        4.681        0.012      333.101        2.195      866.497
10/31/2013  02:12:00      -68.611      -17.810      -13.083        8.707       12.097        8.735       75.820      146.340       76.309        0.275        0.015       70.884        3.761        0.003      333.020        2.060      866.492
10/31/2013  02:13:00      -80.842      -19.913       -9.586        8.621       10.596        7.198       74.321      112.285       51.809        0.363        0.012       83.258        4.253        0.003      333.009        2.044      866.494
10/31/2013  02:14:00      -69.186      -25.777       -7.443       10.244       10.671        9.797      104.936      113.867       95.984        0.291        0.016       73.832        5.751        0.006      333.025        2.071      866.502
10/31/2013  02:15:00      -37.537      -21.350        7.495       31.683       17.027       16.565     1003.835      289.906      274.396        0.174        0.078       43.184       17.394        0.162      333.052        2.116      866.489
10/31/2013  02:16:00      -30.067      -21.934        2.956       30.368       15.432       16.923      922.237      238.143      286.375        0.142        0.072       37.217       16.875        0.206      332.983        1.999      866.481
10/31/2013  02:17:00      -21.384      -20.001        7.487       35.861       15.469       14.602     1286.027      239.291      213.223        0.133        0.087       29.280       18.032        0.379      333.031        2.079      866.476
10/31/2013  02:18:00      -51.223       -8.445       -4.201       20.204       15.343       11.790      408.210      235.406      138.999        0.175        0.039       51.915        5.291        0.010      333.078        2.157      866.465
10/31/2013  02:19:00      -34.043      -15.083        1.419       19.696       20.502       11.267      387.946      420.328      126.936        0.116        0.047       37.234        6.555        0.031      333.111        2.213      866.462
10/31/2013  02:20:00      -42.231       -8.499       -2.520       23.934       17.300       11.445      572.839      299.289      130.993        0.143        0.050       43.078       10.328        0.057      333.041        2.097      866.470
10/31/2013  02:21:00      -56.675      -29.528        2.034       36.195       33.426       15.884     1310.094     1117.279      252.303        0.338        0.134       63.906       17.280        0.073      333.003        2.035      866.480
10/31/2013  02:22:00      -51.844      -32.456        4.146       31.356       25.655       14.857      983.189      658.200      220.717        0.281        0.093       61.165       13.049        0.046      332.950        1.946      866.490
10/31/2013  02:23:00      -67.861      -18.111        0.446       30.502       21.729       13.231      930.396      472.139      175.069        0.326        0.079       70.236       11.686        0.028      332.979        1.995      866.519
10/31/2013  02:24:00      -94.457      -28.442       -8.088       14.255       12.734       11.104      203.198      162.165      123.302        0.514        0.024       98.646        5.691        0.003      332.916        1.891      866.536
10/31/2013  02:25:00      -81.209      -10.670       -1.198       23.326       19.957       14.305      544.101      398.285      204.628        0.393        0.057       81.907        9.627        0.014      332.922        1.900      866.552
10/31/2013  02:26:00      -50.990      -20.478        7.091       27.210       18.823       15.610      740.385      354.301      243.677        0.220        0.067       54.948       13.900        0.064      332.909        1.879      866.572
10/31/2013  02:27:00      -59.657      -32.343        3.689       42.001       16.134       13.664     1764.100      260.294      186.711        0.341        0.111       67.860       19.969        0.087      332.930        1.912      866.583
10/31/2013  02:28:00      -70.366      -39.513        4.306       30.122       17.360       14.245      907.358      301.354      202.914        0.397        0.071       80.701       15.577        0.037      332.904        1.871      866.584
10/31/2013  02:29:00      -56.764      -43.748        8.796       39.365       24.857       18.692     1549.593      617.866      349.407        0.386        0.126       71.666       18.896        0.070      332.933        1.918      866.574
10/31/2013  02:30:00     -105.176      -42.826       -7.751       21.253       23.931       17.366      451.693      572.708      301.562        0.714        0.066      113.561       10.145        0.008      332.927        1.909      866.558
10/31/2013  02:31:00      -89.043      -23.321       -3.486       26.109       14.722       13.267      681.696      216.729      176.018        0.478        0.054       92.046       11.847        0.017      332.860        1.800      866.554
10/31/2013  02:32:00      -84.011      -22.685       -2.383       28.944       19.434       17.297      837.773      377.689      299.195        0.455        0.076       87.020       16.334        0.035      332.834        1.754      866.558
10/31/2013  02:33:00      -77.617      -32.823        3.167       27.250       19.559       14.868      742.582      382.562      221.071        0.423        0.067       84.272       14.982        0.032      332.853        1.786      866.556
10/31/2013  02:34:00      -46.254      -31.556        5.506       44.471       21.261       16.939     1977.707      452.029      286.920        0.294        0.136       55.993       20.362        0.132      332.920        1.896      866.542
10/31/2013  02:35:00      -86.633      -31.680        0.554       21.841       28.281       15.061      477.008      799.835      226.846        0.501        0.075       92.244        9.475        0.011      332.887        1.843      866.525
10/31/2013  02:36:00      -64.205      -28.666        6.540       22.466       31.636       15.202      504.709     1000.864      231.105        0.336        0.087       70.313       13.389        0.036      332.827        1.745      866.507
10/31/2013  02:37:00      -74.126      -19.795        1.089       38.686       19.079       13.406     1496.640      363.997      179.731        0.396        0.102       76.723       16.723        0.048      332.787        1.677      866.496
10/31/2013  02:38:00      -96.546      -37.725        0.110       25.864       16.902       13.457      668.945      285.663      181.078        0.594        0.057      103.654       11.334        0.012      332.803        1.704      866.479
10/31/2013  02:39:00     -105.952      -31.924       -6.804       21.041       24.048       17.781      442.704      578.308      316.149        0.681        0.067      110.657       13.355        0.015      332.742        1.603      866.472
10/31/2013  02:40:00      -95.643      -24.521       -1.870       41.560       26.879       15.384     1727.220      722.459      236.681        0.622        0.134       98.736       18.993        0.037      332.755        1.626      866.464
10/31/2013  02:41:00      -93.462      -22.487        2.320       35.320       24.698       18.690     1247.482      610.014      349.299        0.573        0.110       96.129       18.508        0.037      332.730        1.582      866.464
10/31/2013  02:42:00     -118.550      -22.707       -8.058       33.215       19.838       19.274     1103.210      393.547      371.497        0.825        0.093      120.705       20.394        0.029      332.744        1.606      866.458
10/31/2013  02:43:00     -109.200      -29.843       -8.720       19.908       22.443       13.573      396.326      503.705      184.235        0.699        0.054      113.204        6.415        0.003      332.744        1.606      866.462
10/31/2013  02:44:00     -102.887      -20.668       -8.780       25.153       20.687       12.707      632.672      427.944      161.459        0.616        0.061      104.942       12.525        0.014      332.734        1.590      866.466
10/31/2013  02:45:00      -75.421      -36.570       -3.995       33.448       21.328       15.758     1118.782      454.892      248.304        0.443        0.091       83.819       17.960        0.046      332.718        1.564      866.462
10/31/2013  02:46:00      -60.179      -35.946       -2.247       28.462       21.348       16.327      810.072      455.731      266.562        0.323        0.077       70.097       13.803        0.039      332.779        1.666      866.460
10/31/2013  02:47:00      -90.119      -44.186       -6.973       13.844       24.044       10.003      191.660      578.118      100.056        0.550        0.043      100.368        9.380        0.009      332.721        1.567      866.454
10/31/2013  02:48:00      -61.467      -52.388       -3.224       23.112       21.962       12.980      534.181      482.312      168.489        0.386        0.059       80.763       11.100        0.019      332.749        1.614      866.444
10/31/2013  02:49:00      -34.733      -43.601        9.324       35.050       25.052       22.308     1228.504      627.580      497.653        0.277        0.118       55.745       22.097        0.157      332.784        1.672      866.426
10/31/2013  02:50:00      -60.566      -42.547        8.395       33.871       32.528       20.490     1147.218     1058.074      419.839        0.409        0.131       74.017       21.898        0.088      332.730        1.583      866.412
10/31/2013  02:51:00      -90.758      -32.229      -11.947       32.147       17.768       12.809     1033.446      315.691      164.062        0.547        0.076       96.310       10.806        0.013      332.745        1.608      866.404
10/31/2013  02:52:00      -69.624      -48.681       -0.896       23.873       14.759       15.130      569.942      217.818      228.912        0.412        0.051       84.954        9.598        0.013      332.703        1.538      866.409
10/31/2013  02:53:00      -66.761      -34.610       -8.110       23.477       13.338       15.603      551.156      177.893      243.445        0.335        0.049       75.199        7.980        0.011      332.702        1.536      866.425
10/31/2013  02:54:00      -59.854      -16.322       -5.305       34.971       25.315       14.862     1222.999      640.865      220.878        0.298        0.104       62.040       14.759        0.057      332.660        1.467      866.428
10/31/2013  02:55:00      -36.308      -30.922       -6.962       35.937       16.715       12.477     1291.465      279.389      155.676        0.202        0.086       47.691        6.958        0.021      332.719        1.565      866.421
10/31/2013  02:56:00      -35.890      -43.005       -3.845       44.093       20.968       17.971     1944.210      439.658      322.941        0.293        0.135       56.014       22.263        0.158      332.747        1.612      866.410
10/31/2013  02:57:00      -58.776      -37.354        0.923       46.892       20.652       16.315     2198.899      426.511      266.181        0.387        0.145       69.641       21.775        0.098      332.709        1.548      866.415
10/31/2013  02:58:00      -87.273      -29.701       -9.383       30.578       22.728       12.243      934.985      516.550      149.902        0.509        0.080       92.189       10.877        0.014      332.754        1.625      866.420
10/31/2013  02:59:00      -71.660      -40.807       -5.054       28.598       19.859       18.586      817.856      394.383      345.456        0.419        0.078       82.465       13.802        0.028      332.734        1.590      866.430
10/31/2013  03:00:00      -93.855      -32.664       -9.196       23.205       22.319       17.621      538.483      498.158      310.502        0.565        0.067       99.376       11.171        0.013      332.727        1.578      866.445
10/31/2013  03:01:00      -85.655      -23.207       -8.721       26.278       26.627       17.129      690.534      708.983      293.416        0.482        0.085       88.743       12.121        0.019      332.686        1.509      866.455
10/31/2013  03:02:00      -66.450      -14.358       -3.194       41.389       18.863       11.382     1713.009      355.819      129.560        0.341        0.110       67.983       16.639        0.060      332.690        1.516      866.462
10/31/2013  03:03:00      -56.936      -38.280       -4.820       40.366       18.561       15.494     1629.378      344.498      240.059        0.347        0.111       68.609       11.195        0.027      332.827        1.743      866.465
10/31/2013  03:04:00      -43.781      -35.607       -2.200       39.527       27.176       21.091     1562.354      738.549      444.833        0.297        0.137       56.432       21.442        0.144      332.767        1.645      866.444
10/31/2013  03:05:00      -34.766      -25.712        1.748       37.787       19.164       21.841     1427.830      367.255      477.028        0.207        0.114       43.241       21.543        0.248      332.742        1.603      866.423
10/31/2013  03:06:00      -97.916      -25.479       -3.258       32.690       26.848       18.272     1068.639      720.810      333.882        0.618        0.106      101.177       16.151        0.025      332.716        1.561      866.407
10/31/2013  03:07:00     -105.882      -19.326      -12.976       12.176       15.199       11.886      148.247      231.007      141.274        0.614        0.026      107.631        5.271        0.002      332.642        1.437      866.395
10/31/2013  03:08:00      -91.576      -23.783      -10.055       14.416       18.608       12.433      207.827      346.270      154.584        0.488        0.035       94.614        9.222        0.010      332.682        1.504      866.391
10/31/2013  03:09:00      -98.802      -31.345       -9.214       15.690       19.324       14.497      246.191      373.427      210.151        0.583        0.041      103.655        9.732        0.009      332.645        1.443      866.410
10/31/2013  03:10:00     -105.019      -32.030      -11.782       14.176       20.278       12.121      200.949      411.192      146.922        0.648        0.038      109.795        7.471        0.005      332.630        1.418      866.412
10/31/2013  03:11:00      -96.626      -31.062       -2.681       24.093       19.877       15.062      580.475      395.079      226.854        0.576        0.060      101.496        9.163        0.008      332.651        1.451      866.400
10/31/2013  03:12:00     -118.834      -24.321      -12.355       27.920       22.404       11.282      779.528      501.938      127.290        0.814        0.070      121.297        9.769        0.006      332.662        1.471      866.395
10/31/2013  03:13:00      -83.859      -16.018       -4.424       25.385       27.486       14.586      644.374      755.471      212.765        0.446        0.081       85.375       10.527        0.015      332.677        1.494      866.396
10/31/2013  03:14:00      -89.410      -15.897       -6.273       30.464       22.364       15.713      928.025      500.153      246.908        0.498        0.084       90.812       16.926        0.035      332.707        1.546      866.409
10/31/2013  03:15:00      -58.329      -29.004        0.421       21.919       25.569       13.955      480.435      653.790      194.740        0.279        0.066       65.142       12.220        0.035      332.692        1.519      866.439
10/31/2013  03:16:00      -39.780      -42.452        8.741       44.296       17.193       18.820     1962.148      295.601      354.196        0.304        0.131       58.177       17.459        0.090      332.779        1.665      866.477
10/31/2013  03:17:00      -63.586      -66.955        2.003       38.907       33.167       24.861     1513.762     1100.054      618.086        0.588        0.162       92.337       18.606        0.041      332.777        1.661      866.492
10/31/2013  03:18:00      -66.292      -51.712        0.375       54.813       33.423       24.687     3004.513     1117.090      609.447        0.590        0.237       84.076       20.085        0.057      332.770        1.649      866.494
10/31/2013  03:19:00      -82.673      -79.854       -9.282       49.466       35.852       28.582     2446.919     1285.384      816.927        0.892        0.227      114.941       11.775        0.010      332.672        1.486      866.489
10/31/2013  03:20:00     -128.143     -102.023       -7.259       39.474       51.023       29.740     1558.205     2603.363      884.446        1.596        0.252      163.797       22.460        0.019      332.666        1.476      866.496
10/31/2013  03:21:00     -109.547      -82.106       -3.663       48.464       52.292       24.432     2348.741     2734.415      596.911        1.222        0.284      136.901       28.543        0.043      332.693        1.520      866.519
10/31/2013  03:22:00     -117.940      -75.775       -5.478       25.042       27.857       19.655      627.123      776.010      386.305        1.074        0.089      140.185       12.838        0.008      332.663        1.472      866.535
10/31/2013  03:23:00      -87.847      -64.066       -4.128       51.033       36.640       17.462     2604.323     1342.519      304.909        0.804        0.213      108.727       16.653        0.023      332.691        1.518      866.551
10/31/2013  03:24:00     -106.885     -105.267      -10.975       31.821       26.546       20.098     1012.548      704.678      403.933        1.237        0.106      150.018       15.803        0.011      332.711        1.551      866.553
10/31/2013  03:25:00      -87.344      -86.461        1.774       43.781       35.846       21.140     1916.809     1284.966      446.892        0.938        0.182      122.900       23.284        0.036      332.720        1.567      866.540
10/31/2013  03:26:00      -93.366      -88.367        3.019       38.265       38.494       29.080     1464.238     1481.822      845.633        1.016        0.190      128.553       27.234        0.045      332.755        1.625      866.533
10/31/2013  03:27:00     -105.034     -103.163       -7.030       24.368       33.938       17.859      593.802     1151.788      318.954        1.189        0.103      147.224       13.321        0.008      332.797        1.694      866.534
10/31/2013  03:28:00      -88.817      -94.880       -3.584       34.884       24.523       21.358     1216.863      601.372      456.144        0.959        0.114      129.964       14.380        0.012      332.794        1.690      866.528
10/31/2013  03:29:00      -77.858      -67.918        2.247       40.613       40.253       21.885     1649.421     1620.293      478.936        0.721        0.187      103.318       20.851        0.041      332.786        1.676      866.524
10/31/2013  03:30:00      -65.960      -61.458        0.402       40.914       28.393       20.709     1673.995      806.181      428.861        0.552        0.145       90.154       20.624        0.052      332.807        1.711      866.523
10/31/2013  03:31:00      -32.006      -50.435       -2.935       25.674       33.139       17.550      659.144     1098.218      308.015        0.282        0.103       59.733       15.159        0.064      332.805        1.707      866.526
10/31/2013  03:32:00      -14.874      -28.892       16.565       27.841       15.874       17.553      775.129      251.968      308.096        0.133        0.067       32.496       15.766        0.235      332.789        1.680      866.508
10/31/2013  03:33:00      -31.406      -30.138       10.621       29.473       26.324       19.522      868.635      692.950      381.119        0.197        0.097       43.527       19.309        0.197      332.665        1.476      866.492
10/31/2013  03:34:00      -27.469      -33.225        6.923       39.144       24.190       17.308     1532.264      585.177      299.564        0.216        0.121       43.110       16.255        0.142      332.667        1.478      866.483
10/31/2013  03:35:00      -47.903      -33.403        8.193       29.830       22.066       17.871      889.806      486.905      319.369        0.259        0.085       58.399       16.812        0.083      332.664        1.474      866.484
10/31/2013  03:36:00      -33.452      -26.612        5.563       32.549       16.068       14.502     1059.422      258.181      210.312        0.169        0.076       42.746       10.570        0.061      332.660        1.466      866.489
10/31/2013  03:37:00      -47.656      -16.462       -3.724       36.535       14.189       10.086     1334.814      201.333      101.726        0.210        0.082       50.419       11.153        0.049      332.637        1.430      866.489
10/31/2013  03:38:00      -86.381      -23.119       -6.070       15.970       13.564       10.956      255.035      183.970      120.043        0.430        0.028       89.422        7.659        0.007      332.563        1.305      866.483
10/31/2013  03:39:00      -90.553      -21.643       -2.318       19.451       20.634       11.975      378.337      425.754      143.391        0.481        0.047       93.103        6.554        0.005      332.568        1.314      866.468
10/31/2013  03:40:00      -79.570      -21.608       -6.339       18.910       17.350       10.611      357.599      301.031      112.599        0.380        0.039       82.452        4.211        0.003      332.514        1.225      866.464
10/31/2013  03:41:00      -79.115      -26.565       -3.905       12.734       13.839        9.566      162.165      191.523       91.505        0.371        0.022       83.456        3.264        0.002      332.476        1.163      866.453
10/31/2013  03:42:00      -62.580      -28.019        1.540       15.477       17.010        9.842      239.543      289.352       96.863        0.266        0.031       68.566        7.074        0.011      332.530        1.253      866.440
10/31/2013  03:43:00      -40.954      -26.616        3.585       28.137       20.126       13.057      791.687      405.067      170.478        0.188        0.068       48.843       13.633        0.078      332.591        1.355      866.427
10/31/2013  03:44:00      -80.118      -31.485       -0.531       27.201       17.277       12.875      739.890      298.491      165.762        0.431        0.060       86.083       15.169        0.031      332.527        1.247      866.428
10/31/2013  03:45:00      -96.810      -27.717       -2.612       17.513       16.263       11.053      306.711      264.501      122.173        0.542        0.035      100.699        9.191        0.008      332.525        1.242      866.441
10/31/2013  03:46:00      -89.402      -10.742       -1.285       30.736       19.620       15.590      944.721      384.935      243.063        0.484        0.079       90.045       15.663        0.030      332.435        1.095      866.456
10/31/2013  03:47:00      -87.530        0.643       -3.737       37.243       22.007       23.423     1387.074      484.297      548.625        0.505        0.121       87.533       24.605        0.079      332.343        0.944      866.470
10/31/2013  03:48:00     -100.444       -2.761       -9.347       28.559       28.274       22.020      815.601      799.406      484.897        0.614        0.105      100.482       14.557        0.021      332.340        0.938      866.481
10/31/2013  03:49:00     -129.193        4.210      -15.248       35.086       25.157       22.155     1231.047      632.885      490.841        0.965        0.118      129.261       21.611        0.028      332.372        0.991      866.492
10/31/2013  03:50:00      -84.670      -30.358       -6.418       28.884       24.498       17.863      834.258      600.136      319.087        0.494        0.088       89.948       13.204        0.022      332.342        0.941      866.497
10/31/2013  03:51:00      -43.510      -16.321        2.293       24.714       24.633       17.460      610.778      606.802      304.866        0.184        0.076       46.470       13.182        0.080      332.266        0.816      866.505
10/31/2013  03:52:00      -34.530      -12.317        4.192       22.175       29.562       16.749      491.715      873.932      280.515        0.150        0.082       36.661       13.806        0.142      332.374        0.995      866.510
10/31/2013  03:53:00       -2.886       -7.802        2.288       12.793       13.543        8.444      163.664      183.414       71.308        0.025        0.021        8.319        4.024        0.234      332.431        1.088      866.513
10/31/2013  03:54:00       -9.814       -6.888       -9.989       10.971       10.099        8.687      120.370      102.000       75.471        0.027        0.015       11.990        6.756        0.318      332.459        1.133      866.528
10/31/2013  03:55:00      -26.989       -6.614      -10.902       14.587       11.292       15.145      212.766      127.510      229.358        0.073        0.028       27.788       13.432        0.234      332.463        1.142      866.537
10/31/2013  03:56:00      -22.198      -11.308        1.438       15.014       14.796       11.754      225.427      218.935      138.168        0.060        0.029       24.912       10.358        0.173      332.468        1.150      866.544
10/31/2013  03:57:00      -55.710       -6.560       -6.743       16.626       13.782        9.964      276.427      189.952       99.278        0.188        0.028       56.095        6.576        0.014      332.471        1.155      866.543
10/31/2013  03:58:00      -34.836       -8.193        0.191       15.797       17.408        9.351      249.531      303.047       87.443        0.096        0.032       35.786        5.541        0.024      332.426        1.082      866.553
10/31/2013  03:59:00      -59.379      -23.266       -8.240       10.109       10.291        7.250      102.191      105.899       52.557        0.220        0.013       63.775        4.066        0.004      332.393        1.027      866.567
10/31/2013  04:00:00      -78.573      -25.722      -11.284       10.440        9.283        9.463      108.984       86.174       89.551        0.362        0.014       82.676        5.587        0.005      332.331        0.923      866.575
10/31/2013  04:01:00      -66.173      -18.111      -13.801       11.861       10.694        8.955      140.683      114.369       80.189        0.262        0.017       68.607        5.340        0.006      332.381        1.007      866.594
10/31/2013  04:02:00      -90.835       -7.918      -11.187       17.696       14.297       10.404      313.146      204.412      108.249        0.453        0.031       91.179        6.732        0.005      332.377        1.000      866.605
10/31/2013  04:03:00      -92.353       -9.540      -10.887       14.973       13.819       11.520      224.187      190.961      132.711        0.464        0.027       92.845        6.853        0.005      332.372        0.992      866.611
10/31/2013  04:04:00      -80.464      -15.083       -9.008       10.804       11.608        8.809      116.724      134.750       77.596        0.356        0.016       81.865        3.275        0.002      332.361        0.971      866.613
10/31/2013  04:05:00      -67.473       -9.788      -11.884       18.668       14.047       10.034      348.502      197.312      100.672        0.272        0.032       68.179        8.396        0.015      332.366        0.981      866.625
10/31/2013  04:06:00      -71.149      -25.453       -7.010       15.017       12.366        9.921      225.510      152.917       98.424        0.312        0.024       75.565        7.817        0.011      332.279        0.839      866.643
10/31/2013  04:07:00      -89.745      -32.335      -13.294       16.067        9.636        7.453      258.142       92.859       55.540        0.484        0.020       95.392        3.781        0.002      332.335        0.930      866.652
10/31/2013  04:08:00      -80.783      -39.231      -10.452       13.373        9.489        9.816      178.850       90.043       96.353        0.427        0.018       89.805        5.899        0.004      332.352        0.958      866.645
10/31/2013  04:09:00      -94.211      -57.502       -4.468       17.480       14.472       13.883      305.560      209.432      192.749        0.645        0.035      110.373        6.473        0.003      332.355        0.963      866.637
10/31/2013  04:10:00      -91.885      -36.622      -12.745       12.426       10.303        8.819      154.402      106.158       77.775        0.514        0.017       98.914        5.241        0.003      332.381        1.006      866.628
10/31/2013  04:11:00      -83.947      -23.112      -13.755        8.045       10.387        8.058       64.717      107.894       64.931        0.400        0.012       87.070        4.117        0.002      332.441        1.104      866.621
10/31/2013  04:12:00      -63.175      -28.912       -6.604       12.667       11.811        8.725      160.452      139.504       76.133        0.262        0.019       69.476        7.142        0.011      332.487        1.181      866.606
10/31/2013  04:13:00      -70.833      -17.946       -6.064       10.996       13.946        8.241      120.915      194.495       67.914        0.288        0.019       73.071        6.339        0.008      332.532        1.256      866.599
10/31/2013  04:14:00      -52.423      -14.969       -7.191        9.455       11.796        7.370       89.404      139.157       54.313        0.165        0.014       54.518        3.875        0.005      332.582        1.338      866.583
10/31/2013  04:15:00      -54.724      -11.409        0.866       16.061       10.775        8.400      257.964      116.106       70.568        0.179        0.022       55.901        7.239        0.017      332.561        1.304      866.572
10/31/2013  04:16:00      -64.377      -12.769       -3.865       18.224       14.036       11.539      332.106      197.015      133.148        0.249        0.033       65.631        8.805        0.018      332.543        1.273      866.565
10/31/2013  04:17:00      -81.091      -19.642       -0.028       15.050       12.446        8.906      226.505      154.905       79.320        0.371        0.023       83.436        6.121        0.005      332.497        1.198      866.563
10/31/2013  04:18:00      -97.665      -32.008       -8.519       10.569       13.049       10.952      111.714      170.281      119.939        0.552        0.020      102.776        4.055        0.002      332.447        1.115      866.562
10/31/2013  04:19:00      -84.053      -43.170       -0.913       27.331       19.320       14.688      746.981      373.249      215.749        0.513        0.067       94.490       15.861        0.028      332.405        1.046      866.556
10/31/2013  04:20:00      -98.927      -49.631       -1.121       15.819       18.775       12.325      250.249      352.483      151.912        0.650        0.038      110.678        6.873        0.004      332.392        1.025      866.556
10/31/2013  04:21:00     -109.731      -17.844       -6.970       25.773       23.045       13.858      664.266      531.078      192.051        0.690        0.069      111.172       11.920        0.011      332.319        0.904      866.555
10/31/2013  04:22:00     -108.883      -40.138       -2.035       33.226       32.354       17.283     1103.970     1046.761      298.718        0.796        0.122      116.046       16.692        0.021      332.249        0.790      866.553
10/31/2013  04:23:00     -112.839      -38.718        2.550       42.777       26.345       19.831     1829.845      694.059      393.264        0.858        0.146      119.297       18.858        0.025      332.290        0.857      866.563
10/31/2013  04:24:00     -102.315      -61.000        6.114       34.557       25.677       22.220     1194.181      659.310      493.723        0.829        0.117      119.119       17.419        0.021      332.339        0.937      866.573
10/31/2013  04:25:00      -92.857      -33.776       -2.633       19.477       20.285       15.313      379.340      411.484      234.477        0.540        0.051       98.809        9.962        0.010      332.339        0.936      866.579
10/31/2013  04:26:00      -80.334      -41.656       -1.799       23.387       15.618       11.276      546.929      243.932      127.141        0.455        0.046       90.492        2.754        0.001      332.378        1.000      866.595
10/31/2013  04:27:00      -71.577      -24.673        2.582       29.425       19.733       17.541      865.838      389.387      307.688        0.365        0.078       75.710       15.587        0.042      332.351        0.955      866.599
10/31/2013  04:28:00      -35.704      -18.863        5.916       31.827       20.785       16.043     1012.977      432.005      257.367        0.168        0.085       40.380       18.532        0.211      332.359        0.971      866.603
10/31/2013  04:29:00      -84.073      -37.154        1.669       45.421       20.089       17.519     2063.092      403.548      306.905        0.561        0.139       91.917       22.112        0.058      332.332        0.926      866.599
10/31/2013  04:30:00      -74.470      -30.754        6.977       31.005       20.773       18.098      961.323      431.510      327.525        0.413        0.086       80.571       18.828        0.055      332.351        0.957      866.596
10/31/2013  04:31:00      -59.786      -21.340        1.072       35.646       23.067       14.551     1270.654      532.093      211.727        0.302        0.101       63.481       17.337        0.075      332.346        0.949      866.589
10/31/2013  04:32:00      -87.730      -18.107       -2.721       31.414       22.933       12.031      986.837      525.939      144.739        0.484        0.083       89.579       11.457        0.016      332.388        1.019      866.586
10/31/2013  04:33:00      -95.410      -15.772       -7.096       28.048       19.845       15.431      786.687      393.829      238.126        0.541        0.071       96.705       13.957        0.021      332.385        1.013      866.580
10/31/2013  04:34:00      -94.377      -34.814       -2.707       28.782       23.711       15.648      828.375      562.223      244.862        0.588        0.082      100.594       14.747        0.021      332.378        1.002      866.582
10/31/2013  04:35:00      -99.561      -33.428       -8.018       23.884       17.139       15.055      570.440      293.751      226.656        0.609        0.055      105.023       12.559        0.014      332.388        1.018      866.577
10/31/2013  04:36:00     -100.386      -34.699      -10.085       17.782       18.655       11.676      316.202      348.027      136.329        0.609        0.040      106.214        7.963        0.006      332.360        0.972      866.571
10/31/2013  04:37:00     -100.633      -35.299       -8.212       19.759       22.240       14.102      390.429      494.609      198.879        0.626        0.054      106.644        7.641        0.005      332.381        1.005      866.577
10/31/2013  04:38:00      -81.144      -42.855       -3.701       38.629       19.597       14.174     1492.209      384.056      200.892        0.526        0.104       91.766       12.152        0.018      332.362        0.974      866.577
10/31/2013  04:39:00      -72.231      -43.326       -8.868       20.435       18.818       12.649      417.608      354.111      159.997        0.405        0.047       84.228       10.491        0.016      332.361        0.971      866.581
10/31/2013  04:40:00      -91.652      -45.324        4.596       29.883       23.129       15.565      892.995      534.967      242.276        0.607        0.084      102.247       15.859        0.024      332.389        1.020      866.574
10/31/2013  04:41:00      -80.409      -31.790        2.465       23.638       17.253       12.123      558.746      297.662      146.970        0.424        0.050       86.465       11.224        0.017      332.441        1.105      866.565
10/31/2013  04:42:00      -84.335      -40.297       -3.428       39.896       19.506       16.879     1591.714      380.499      284.914        0.550        0.113       93.468       18.708        0.040      332.471        1.155      866.567
10/31/2013  04:43:00      -70.191      -37.061        7.587       37.569       23.584       19.415     1411.440      556.217      376.937        0.435        0.117       79.375       12.754        0.026      332.394        1.028      866.569
10/31/2013  04:44:00      -75.143      -38.692        4.913       40.039       22.298       19.140     1603.142      497.198      366.324        0.482        0.123       84.520       19.841        0.055      332.442        1.106      866.574
10/31/2013  04:45:00      -66.040      -36.953       -3.987       23.695       21.627       13.611      561.440      467.707      185.247        0.348        0.061       75.676       10.001        0.017      332.447        1.115      866.582
10/31/2013  04:46:00      -75.173      -29.077        2.490       31.392       25.115       14.341      985.459      630.779      205.677        0.416        0.091       80.601       16.018        0.039      332.437        1.098      866.585
10/31/2013  04:47:00      -85.370      -35.015        2.441       42.092       21.299       18.389     1771.770      453.647      338.164        0.554        0.128       92.272       19.429        0.044      332.425        1.079      866.585
10/31/2013  04:48:00      -98.608      -36.831       -0.577       26.872       27.102       17.862      722.122      734.521      319.050        0.643        0.089      105.262       11.226        0.011      332.395        1.030      866.579
10/31/2013  04:49:00     -113.066      -36.169       -5.499       22.978       20.684       12.073      527.968      427.823      145.763        0.761        0.055      118.711        9.900        0.007      332.369        0.985      866.577
10/31/2013  04:50:00     -121.969      -39.787       -1.970       31.546       22.880       16.780      995.148      523.488      281.574        0.913        0.090      128.294       16.925        0.017      332.331        0.924      866.573
10/31/2013  04:51:00     -107.117      -45.539        3.096       35.808       34.629       22.194     1282.211     1199.200      492.577        0.827        0.149      116.395       18.496        0.025      332.250        0.791      866.570
10/31/2013  04:52:00     -107.282      -19.290      -10.855       23.173       27.321       12.574      537.010      746.433      158.106        0.672        0.072      109.003        6.676        0.004      332.218        0.737      866.568
10/31/2013  04:53:00      -90.949      -43.915      -10.855       13.838       19.872        9.546      191.493      394.901       91.118        0.550        0.034      100.996        2.428        0.001      332.213        0.729      866.581
10/31/2013  04:54:00      -75.471      -43.226       -4.329       17.233       17.062       10.762      296.983      291.097      115.819        0.414        0.035       86.973        7.907        0.008      332.233        0.763      866.586
10/31/2013  04:55:00      -94.219      -28.222       -8.736       16.756       15.845       10.002      280.765      251.050      100.048        0.519        0.032       98.355        7.078        0.005      332.229        0.757      866.592
10/31/2013  04:56:00     -100.160      -24.401       -9.735       27.426       24.560       15.191      752.176      603.170      230.770        0.615        0.079      103.090       15.271        0.022      332.214        0.734      866.608
10/31/2013  04:57:00      -88.437      -26.848       -7.027       16.404       18.371       12.845      269.096      337.499      164.984        0.468        0.039       92.423        5.592        0.004      332.296        0.867      866.626
10/31/2013  04:58:00      -68.711      -33.549       -3.573       37.216       26.214       22.660     1384.997      687.194      513.472        0.422        0.129       76.464       23.561        0.095      332.250        0.790      866.635
10/31/2013  04:59:00     -103.251      -32.808       -5.701       14.376       19.220       13.620      206.664      369.399      185.503        0.627        0.038      108.338        8.605        0.006      332.239        0.773      866.632
10/31/2013  05:00:00     -106.842       -9.730       -4.043       31.755       24.882       22.518     1008.351      619.090      507.054        0.683        0.107      107.284       22.196        0.043      332.208        0.722      866.640
10/31/2013  05:01:00      -60.483      -26.494        2.147       27.926       28.122       15.992      779.841      790.858      255.746        0.310        0.091       66.031       11.880        0.032      332.261        0.809      866.641
10/31/2013  05:02:00      -55.226      -16.228        1.101       22.337       29.945       20.475      498.940      896.684      419.225        0.256        0.091       57.561       14.419        0.063      332.281        0.841      866.653
10/31/2013  05:03:00      -34.860      -19.425       -3.271       27.973       19.775       15.533      782.486      391.045      241.259        0.151        0.071       39.907        9.668        0.059      332.338        0.933      866.670
10/31/2013  05:04:00      -68.788      -11.595        0.389       43.011       24.867       20.977     1849.915      618.345      440.031        0.389        0.145       69.758       21.320        0.093      332.359        0.970      866.680
10/31/2013  05:05:00      -24.078      -21.079        6.045       41.135       33.186       15.361     1692.062     1101.312      235.947        0.204        0.151       32.001       19.391        0.367      332.411        1.055      866.678
10/31/2013  05:06:00      -29.972      -19.798        6.693       32.325       22.073       16.177     1044.894      487.219      261.697        0.156        0.090       35.920       18.466        0.264      332.363        0.975      866.682
10/31/2013  05:07:00      -43.889      -24.299        2.427       18.074       20.055       12.574      326.674      402.200      158.094        0.170        0.044       50.167       10.927        0.047      332.339        0.938      866.689
10/31/2013  05:08:00      -45.098      -12.738       -2.093       27.056       12.990       11.417      732.014      168.741      130.344        0.162        0.052       46.863       12.988        0.077      332.378        1.002      866.694
10/31/2013  05:09:00      -33.796      -14.997       -1.773       11.674       10.999       10.075      136.271      120.969      101.506        0.086        0.018       36.975        8.772        0.056      332.384        1.012      866.711
10/31/2013  05:10:00      -31.247      -24.228       -4.191       11.352        7.516        6.926      128.866       56.488       47.965        0.091        0.012       39.539        3.020        0.006      332.420        1.070      866.726
10/31/2013  05:11:00      -54.366      -16.050       -5.067        9.559        8.931        8.570       91.371       79.761       73.453        0.174        0.012       56.686        4.725        0.007      332.415        1.063      866.727
10/31/2013  05:12:00      -40.791      -14.616      -10.596       11.021       10.792        7.218      121.463      116.470       52.095        0.114        0.015       43.331        2.205        0.003      332.491        1.187      866.736
10/31/2013  05:13:00      -29.997      -10.572      -10.553       13.351        9.640        8.315      178.245       92.925       69.143        0.073        0.017       31.805        4.880        0.024      332.447        1.115      866.750
10/31/2013  05:14:00      -20.221      -17.164      -10.722       20.547        9.839        8.340      422.164       96.802       69.554        0.070        0.029       26.523        4.258        0.026      332.449        1.119      866.764
10/31/2013  05:15:00      -18.287       -7.370       -2.482       12.827        8.066        6.316      164.520       65.065       39.889        0.033        0.013       19.716        6.592        0.112      332.381        1.004      866.783
10/31/2013  05:16:00      -48.691      -10.835       -7.723        6.755        8.818        5.865       45.636       77.759       34.396        0.135        0.008       49.882        2.464        0.002      332.353        0.959      866.806
10/31/2013  05:17:00      -57.962       -8.642      -11.642        9.482        8.244        7.154       89.902       67.959       51.184        0.189        0.010       58.603        4.771        0.007      332.401        1.038      866.834
10/31/2013  05:18:00      -65.808      -25.607      -10.173       12.537       12.663        6.206      157.184      160.353       38.510        0.272        0.018       70.615        3.056        0.002      332.376        0.996      866.858
10/31/2013  05:19:00       -4.126      -16.965       -0.731       21.940       16.578       10.028      481.357      274.820      100.563        0.058        0.043       17.460        5.619        0.104      332.383        1.008      866.876
10/31/2013  05:20:00      -28.785      -17.943       -0.845       32.024       12.667        9.633     1025.527      160.453       92.788        0.121        0.064       33.919       14.665        0.187      332.332        0.925      866.886
10/31/2013  05:21:00      -75.140      -41.512       -4.994       23.841       20.584       11.196      568.400      423.690      125.347        0.426        0.056       85.845       10.681        0.015      332.327        0.916      866.878
10/31/2013  05:22:00      -69.366      -48.543        5.639       37.915       31.136       19.638     1437.581      969.425      385.631        0.500        0.140       84.664       18.271        0.047      332.323        0.911      866.880
10/31/2013  05:23:00     -116.696      -73.550        0.350       35.797       28.569       18.851     1281.436      816.202      355.345        1.074        0.123      137.940       15.520        0.013      332.478        1.164      866.887
10/31/2013  05:24:00     -107.608      -58.469        1.835       33.767       31.575       26.870     1140.200      997.011      722.020        0.893        0.143      122.467       21.803        0.032      332.390        1.022      866.913
10/31/2013  05:25:00      -90.505      -39.514       -1.720       25.163       24.711       15.442      633.169      610.641      238.443        0.562        0.074       98.755       10.352        0.011      332.353        0.961      866.943
10/31/2013  05:26:00      -98.463       -3.314        1.562       32.016       24.273       17.594     1025.007      589.165      309.543        0.582        0.096       98.518       18.616        0.036      332.274        0.829      866.968
10/31/2013  05:27:00      -82.817      -16.168       -2.945       29.640       16.716       14.306      878.523      279.436      204.659        0.425        0.068       84.380       14.490        0.029      332.184        0.681      866.977
10/31/2013  05:28:00      -82.512       -9.594       -4.799       26.748       20.254       12.669      715.462      410.233      160.501        0.410        0.064       83.067       10.623        0.016      332.179        0.674      866.985
10/31/2013  05:29:00      -76.666       -5.188        3.938       29.926       16.852       18.371      895.584      283.977      337.488        0.372        0.076       76.842       16.091        0.044      332.126        0.586      866.990
10/31/2013  05:30:00      -55.785       -6.754        1.003       27.795       25.213       16.429      772.589      635.711      269.912        0.242        0.084       56.192       16.284        0.084      332.115        0.567      866.990
10/31/2013  05:31:00      -65.067      -17.075        2.499       28.872       20.365       13.930      833.580      414.749      194.038        0.299        0.072       67.270       14.339        0.045      332.174        0.665      866.986
10/31/2013  05:32:00      -73.748      -13.333        2.547       27.333       22.351       14.225      747.070      499.551      202.363        0.354        0.072       74.944       13.499        0.032      332.135        0.601      866.993
10/31/2013  05:33:00      -99.905      -11.074       -4.159       23.878       15.602       13.453      570.156      243.421      180.972        0.556        0.050      100.517       13.304        0.018      332.140        0.610      867.003
10/31/2013  05:34:00      -65.645      -12.578        3.200       30.557       17.517       15.878      933.704      306.832      252.113        0.298        0.075       66.840       16.690        0.062      332.106        0.554      867.012
10/31/2013  05:35:00      -84.652      -12.520       -2.018       25.509       24.061       12.946      650.730      578.913      167.590        0.436        0.070       85.573       14.268        0.028      332.142        0.612      867.022
10/31/2013  05:36:00     -109.067      -19.333      -11.739       19.048       18.373       13.832      362.839      337.581      191.338        0.665        0.045      110.767       10.300        0.009      332.133        0.597      867.012
10/31/2013  05:37:00     -104.849      -28.782      -10.317       24.404       27.228       17.463      595.569      741.341      304.941        0.678        0.082      108.728       14.012        0.017      332.129        0.591      867.008
10/31/2013  05:38:00     -108.713      -33.387       -3.294       24.523       24.495       15.853      601.385      599.988      251.326        0.720        0.073      113.724       14.761        0.017      332.160        0.641      867.012
10/31/2013  05:39:00      -95.455      -33.015       -3.518       23.307       23.600       11.242      543.194      556.957      126.381        0.572        0.061      101.003        9.586        0.009      332.137        0.604      867.024
10/31/2013  05:40:00      -82.954      -24.703       -3.876       18.657       22.552       11.348      348.098      508.571      128.766        0.425        0.049       86.554        8.060        0.009      332.119        0.575      867.033
10/31/2013  05:41:00      -59.499      -14.953        0.031       25.145       17.582       15.387      632.276      309.143      236.761        0.247        0.059       61.349       15.158        0.061      332.094        0.534      867.048
10/31/2013  05:42:00      -45.159       -7.420        4.264       26.948       14.890       11.591      726.196      221.710      134.347        0.160        0.054       45.764       12.951        0.080      332.121        0.578      867.065
10/31/2013  05:43:00      -56.246      -23.087       -3.779       12.293       16.825       11.025      151.123      283.082      121.550        0.213        0.028       60.799        6.939        0.013      332.170        0.658      867.080
10/31/2013  05:44:00      -44.269      -25.613       -1.746       16.438       16.526       10.824      270.210      273.093      117.159        0.164        0.033       51.145        7.151        0.020      332.228        0.753      867.084
10/31/2013  05:45:00      -52.193      -18.609       -5.388       15.938       12.517        6.219      254.035      156.670       38.671        0.177        0.022       55.411        4.813        0.008      332.227        0.754      867.091
10/31/2013  05:46:00      -60.951      -32.001       -9.251       14.413        8.132        8.327      207.732       66.131       69.331        0.258        0.017       68.840        3.568        0.003      332.209        0.725      867.093
10/31/2013  05:47:00      -30.728      -25.508        3.767       25.828       17.041       16.925      667.109      290.402      286.467        0.143        0.062       39.936       15.920        0.159      332.245        0.782      867.096
10/31/2013  05:48:00      -42.346      -24.829        3.507       23.528       12.624       13.947      553.576      159.369      194.519        0.166        0.045       49.088       12.473        0.065      332.166        0.653      867.090
10/31/2013  05:49:00       -4.459      -17.683        7.146       26.478       11.454       13.841      701.103      131.197      191.586        0.070        0.051       18.237       15.502        0.723      332.226        0.751      867.080
10/31/2013  05:50:00      -24.992      -23.263        3.911       17.194       14.800       11.228      295.644      219.033      126.077        0.091        0.032       34.144        8.126        0.057      332.203        0.714      867.089
10/31/2013  05:51:00      -17.076      -14.802        5.434       21.886        9.788       10.505      478.992       95.810      110.358        0.061        0.034       22.598       10.915        0.233      332.240        0.775      867.092
10/31/2013  05:52:00      -40.080      -21.811        0.679       26.375       10.924        7.794      695.617      119.333       60.754        0.148        0.044       45.630        2.796        0.004      332.215        0.734      867.089
10/31/2013  05:53:00      -70.002      -36.075       -6.463       15.528       13.863       10.610      241.111      192.196      112.563        0.339        0.027       78.751        6.411        0.007      332.228        0.757      867.094
10/31/2013  05:54:00      -44.589      -23.792       -0.691       27.264       15.447       13.080      743.320      238.596      171.079        0.185        0.058       50.539        6.364        0.016      332.168        0.656      867.091
10/31/2013  05:55:00      -75.400      -39.211        0.123       30.786       22.525       14.292      947.799      507.358      204.269        0.444        0.083       84.986       12.003        0.020      332.190        0.692      867.088
10/31/2013  05:56:00      -49.799      -34.717        2.759       34.899       22.900       18.500     1217.913      524.421      342.268        0.289        0.104       60.706       13.642        0.051      332.193        0.698      867.073
10/31/2013  05:57:00      -62.287      -23.420        9.677       34.457       19.979       18.072     1187.286      399.154      326.601        0.322        0.096       66.544       17.663        0.070      332.106        0.554      867.065
10/31/2013  05:58:00      -61.198      -28.485        3.411       35.806       24.185       18.676     1282.100      584.908      348.801        0.339        0.111       67.503       20.274        0.090      332.143        0.614      867.050
10/31/2013  05:59:00      -71.595      -34.347        2.532       23.997       20.192       13.284      575.867      407.702      176.457        0.374        0.058       79.407        8.975        0.013      332.115        0.568      867.047
10/31/2013  06:00:00      -54.329      -12.061        3.541       26.351       23.554       13.313      694.363      554.781      177.230        0.227        0.071       55.652       10.876        0.038      332.081        0.512      867.049
10/31/2013  06:01:00      -62.614      -22.593       -0.707       20.995       19.010       12.563      440.801      361.393      157.838        0.270        0.048       66.565       11.254        0.029      332.040        0.445      867.046
10/31/2013  06:02:00      -49.145       -2.923        4.551       36.820       20.380       17.033     1355.727      415.336      290.121        0.225        0.103       49.232       16.553        0.113      331.941        0.280      867.036
10/31/2013  06:03:00      -73.078      -10.554        1.403       26.800       18.170       16.091      718.225      330.157      258.924        0.338        0.065       73.836       13.882        0.035      331.855        0.138      867.032
10/31/2013  06:04:00      -93.027       -4.067       -0.879       32.718       21.074       19.526     1070.465      444.128      381.274        0.528        0.095       93.116       20.113        0.047      331.853        0.136      867.032
10/31/2013  06:05:00     -104.277       -5.979       -3.576       35.513       20.181       18.588     1261.190      407.274      345.508        0.647        0.101      104.448       19.105        0.033      331.917        0.242      867.039
10/31/2013  06:06:00      -95.787       -8.852       -8.621       31.962       19.696       18.954     1021.542      387.914      359.257        0.555        0.088       96.195       17.578        0.033      331.897        0.210      867.054
10/31/2013  06:07:00      -78.412       -4.194       -0.619       40.592       28.779       21.005     1647.718      828.232      441.190        0.454        0.146       78.524       19.714        0.063      331.790        0.032      867.060
10/31/2013  06:08:00      -97.442       -1.296       -5.760       29.528       22.474       17.109      871.927      505.076      292.717        0.560        0.083       97.450       14.511        0.022      331.811        0.067      867.063
10/31/2013  06:09:00      -89.785      -21.961       -7.556       27.074       24.601       15.469      733.015      605.219      239.303        0.509        0.079       92.432       14.067        0.023      331.885        0.188      867.060
10/31/2013  06:10:00      -79.499      -30.805       -0.132       29.282       23.840       15.127      857.464      568.355      228.841        0.446        0.083       85.259       16.502        0.037      331.913        0.235      867.062
10/31/2013  06:11:00      -81.495      -26.775       -6.762       28.593       20.453       13.241      817.582      418.310      175.325        0.441        0.071       85.780       10.503        0.015      331.906        0.224      867.065
10/31/2013  06:12:00      -81.479      -18.527       -0.507       33.697       31.368       17.199     1135.496      983.954      295.817        0.470        0.121       83.559       12.703        0.023      331.793        0.037      867.065
10/31/2013  06:13:00      -79.239      -10.621       -3.231       56.862       35.368       21.278     3233.338     1250.885      452.742        0.567        0.247       79.948       25.219        0.100      331.826        0.091      867.068
10/31/2013  06:14:00     -113.982        4.183       -8.242       38.203       30.123       17.281     1459.491      907.371      298.645        0.787        0.133      114.059       13.365        0.014      331.897        0.208      867.077
10/31/2013  06:15:00     -117.918        6.851       -9.052       33.616       34.125       20.702     1130.024     1164.494      428.556        0.838        0.136      118.116       16.685        0.020      331.919        0.244      867.082
10/31/2013  06:16:00      -81.669       -9.952       -6.709       22.631       33.247       22.887      512.174     1105.377      523.811        0.448        0.107       82.273        7.414        0.008      331.957        0.307      867.095
10/31/2013  06:17:00      -84.210      -22.413      -10.775       23.190       22.308       13.858      537.778      497.651      192.038        0.447        0.061       87.142        9.392        0.012      332.024        0.419      867.086
10/31/2013  06:18:00      -78.221      -34.778       -7.581       24.253       19.668       13.799      588.194      386.820      190.416        0.428        0.058       85.604        9.949        0.014      332.000        0.377      867.076
10/31/2013  06:19:00      -58.931      -36.001       -7.772       16.372       15.407       11.030      268.056      237.378      121.657        0.273        0.031       69.058        5.441        0.006      332.022        0.417      867.069
10/31/2013  06:20:00      -15.147      -22.510       -4.015       20.215       12.670       17.187      408.653      160.534      295.384        0.081        0.043       27.132       15.558        0.329      332.029        0.427      867.069
10/31/2013  06:21:00      -19.962      -21.126      -10.778       10.086        8.552        7.691      101.728       73.138       59.152        0.060        0.012       29.065        3.673        0.016      332.091        0.529      867.074
10/31/2013  06:22:00       -4.760       -5.815        0.879       13.735       12.144        8.318      188.639      147.488       69.189        0.023        0.020        7.515        8.378        1.243      332.219        0.741      867.077
10/31/2013  06:23:00       10.902       11.221        0.466        6.814        7.419        6.955       46.429       55.039       48.372        0.020        0.007       15.645        4.743        0.092      332.364        0.978      867.069
10/31/2013  06:24:00       -3.099       -6.424       12.964       12.867       10.018        8.157      165.569      100.354       66.533        0.028        0.017        7.132        4.923        0.477      332.219        0.738      867.071
10/31/2013  06:25:00      -17.578      -16.384       -0.704       19.641       17.821        9.281      385.772      317.589       86.139        0.068        0.039       24.029        9.410        0.153      332.137        0.604      867.085
10/31/2013  06:26:00      -16.242      -34.638       -0.911       16.448       14.279       12.990      270.536      203.894      168.748        0.105        0.032       38.257        4.976        0.017      332.195        0.701      867.096
10/31/2013  06:27:00      -21.953      -19.689       -2.955       22.503       14.349        9.825      506.379      205.894       96.527        0.084        0.040       29.489        7.773        0.069      332.062        0.481      867.113
10/31/2013  06:28:00      -56.115      -26.598       -0.554       15.661       11.390        8.194      245.275      129.742       67.135        0.215        0.022       62.100        5.626        0.008      332.062        0.481      867.119
10/31/2013  06:29:00      -39.211      -21.711       -2.104       12.136        7.556        7.505      147.294       57.100       56.331        0.114        0.013       44.820        6.918        0.024      332.147        0.620      867.108
10/31/2013  06:30:00      -16.785      -16.181        0.260       14.394        8.013        7.687      207.176       64.205       59.092        0.044        0.017       23.314        3.740        0.026      332.211        0.727      867.099
10/31/2013  06:31:00      -21.415      -18.409       -1.611       24.689        8.528        8.377      609.526       72.730       70.166        0.078        0.038       28.240        8.943        0.100      332.159        0.641      867.092
10/31/2013  06:32:00      -45.767      -37.015       -2.583       20.939       15.091       11.314      438.458      227.738      128.009        0.213        0.040       58.862       12.136        0.043      332.213        0.731      867.090
10/31/2013  06:33:00      -34.755      -17.553       -3.708       21.870       17.492       12.298      478.316      305.981      151.249        0.123        0.047       38.936        8.141        0.044      332.153        0.630      867.099
10/31/2013  06:34:00      -52.851      -15.835        6.787       23.156       19.690       14.226      536.196      387.695      202.368        0.211        0.056       55.172       10.167        0.034      332.173        0.664      867.107
10/31/2013  06:35:00      -45.258      -27.709       -5.907       26.048       15.684       12.275      678.519      245.974      150.680        0.196        0.054       53.067        7.156        0.018      332.246        0.783      867.124
10/31/2013  06:36:00      -48.531      -20.483        4.509       19.881       16.358       13.533      395.259      267.595      183.140        0.182        0.042       52.676       10.515        0.040      332.201        0.710      867.144
10/31/2013  06:37:00      -37.762      -25.788        5.727       30.112       21.744       12.957      906.748      472.798      167.875        0.184        0.077       45.727       11.748        0.066      332.213        0.731      867.155
10/31/2013  06:38:00      -50.766      -27.049        0.034       24.299       15.988       11.762      590.429      255.613      138.347        0.215        0.049       57.522        7.517        0.017      332.227        0.754      867.157
10/31/2013  06:39:00      -45.905      -24.226        5.430       26.236       17.109       14.510      688.323      292.707      210.546        0.196        0.060       51.906       13.049        0.063      332.193        0.696      867.166
10/31/2013  06:40:00      -67.874      -32.951        1.789       27.169       17.527       17.275      738.156      307.180      298.436        0.352        0.067       75.450       17.672        0.055      332.175        0.667      867.171
10/31/2013  06:41:00      -53.403      -33.981        2.920       36.790       24.609       22.401     1353.522      605.612      501.824        0.324        0.123       63.297       18.144        0.082      332.140        0.609      867.174
10/31/2013  06:42:00      -47.399      -35.630        2.418       41.278       24.963       16.240     1703.862      623.134      263.752        0.306        0.130       59.297       18.154        0.094      332.095        0.535      867.175
10/31/2013  06:43:00      -95.563      -73.313       -1.373       58.617       34.723       26.080     3435.969     1205.655      680.189        0.991        0.266      120.445       31.296        0.068      332.102        0.546      867.180
10/31/2013  06:44:00      -40.000      -52.107       18.086       47.204       34.411       22.540     2228.258     1184.136      508.029        0.428        0.196       65.690       24.802        0.143      332.138        0.605      867.187
10/31/2013  06:45:00      -89.664      -46.368        1.743       25.544       18.809       15.930      652.521      353.789      253.777        0.573        0.063      100.944       13.208        0.017      332.101        0.544      867.196
10/31/2013  06:46:00      -87.307      -80.806       -5.986       22.428       26.811       13.779      502.999      718.804      189.872        0.780        0.071      118.963        9.021        0.006      332.123        0.581      867.196
10/31/2013  06:47:00      -80.262      -39.350       -4.408       41.766       19.808       17.235     1744.376      392.348      297.051        0.522        0.122       89.389       21.573        0.058      332.103        0.548      867.195
10/31/2013  06:48:00      -53.654      -11.054        3.698       32.214       22.647       16.887     1037.773      512.896      285.180        0.242        0.092       54.781       17.220        0.099      331.930        0.262      867.193
10/31/2013  06:49:00      -34.513      -20.424        9.126       25.838       20.169       14.242      667.590      406.796      202.832        0.148        0.064       40.103       13.628        0.115      331.994        0.369      867.196
10/31/2013  06:50:00      -45.894      -12.342        0.163       27.660       19.241       17.344      765.048      370.206      300.802        0.185        0.072       47.524       16.026        0.114      331.975        0.337      867.192
10/31/2013  06:51:00      -59.919      -15.238       -1.116       23.700       19.776       12.943      561.674      391.078      167.520        0.247        0.056       61.826       11.973        0.038      332.042        0.450      867.190
10/31/2013  06:52:00      -67.997      -37.020        1.488       25.629       25.127       14.434      656.821      631.343      208.353        0.375        0.075       77.421       12.643        0.027      332.036        0.438      867.196
10/31/2013  06:53:00      -72.541      -33.679        1.186       24.467       23.303       11.128      598.625      543.039      123.833        0.383        0.063       79.978       11.160        0.019      331.982        0.349      867.202
10/31/2013  06:54:00      -71.355      -40.324       -2.209       24.771       23.833       15.609      613.599      568.012      243.652        0.407        0.071       81.961       13.831        0.028      332.004        0.384      867.212
10/31/2013  06:55:00      -64.152      -16.051        5.846       28.789       26.234       18.234      828.819      688.237      332.464        0.313        0.092       66.129       17.880        0.073      331.904        0.220      867.206
10/31/2013  06:56:00      -56.404      -16.662        2.274       32.226       25.281       19.294     1038.547      639.149      372.255        0.276        0.102       58.813       15.430        0.069      331.909        0.228      867.201
10/31/2013  06:57:00      -33.024      -20.327        8.449       21.487       21.827       15.766      461.709      476.435      248.581        0.138        0.059       38.779       13.254        0.117      331.938        0.276      867.197
10/31/2013  06:58:00      -42.097      -27.259       -0.607       25.191       20.676       14.572      634.596      427.505      212.354        0.189        0.064       50.151       11.134        0.049      331.975        0.337      867.200
10/31/2013  06:59:00      -31.420      -19.372        3.262       26.381       17.811       11.828      695.949      317.233      139.891        0.126        0.058       36.912       13.860        0.141      332.017        0.408      867.201
10/31/2013  07:00:00      -36.449       -3.722       -3.068       22.837       17.326        8.985      521.523      300.173       80.727        0.113        0.045       36.638        9.254        0.064      331.959        0.311      867.203
10/31/2013  07:01:00      -39.476      -19.674       -1.045       28.186       13.217        9.469      794.452      174.686       89.662        0.150        0.053       44.107        9.613        0.047      332.004        0.385      867.206
10/31/2013  07:02:00      -65.667       -0.755       -1.395       20.505       11.364       13.103      420.446      129.144      171.676        0.252        0.036       65.672       11.466        0.030      331.952        0.299      867.225
10/31/2013  07:03:00      -73.778       -2.123       -6.876       25.295       19.565       12.857      639.828      382.803      165.300        0.334        0.059       73.809       13.047        0.031      331.907        0.224      867.239
10/31/2013  07:04:00      -84.605       21.243      -12.641       36.154       23.528       14.370     1307.112      553.575      206.498        0.492        0.103       87.231       13.806        0.025      331.838        0.112      867.249
10/31/2013  07:05:00     -122.398        7.910      -14.795       16.415       23.530       10.027      269.448      553.684      100.540        0.809        0.046      122.653        7.639        0.004      331.826        0.093      867.255
10/31/2013  07:06:00      -63.498      -22.125       -1.700       22.415       21.784       10.504      502.426      474.552      110.334        0.281        0.054       67.242        3.984        0.004      331.760       -0.015      867.244
10/31/2013  07:07:00      -86.002      -22.182       -9.307       31.345       18.118       19.463      982.524      328.245      378.828        0.483        0.084       88.817       17.422        0.038      331.815        0.074      867.238
10/31/2013  07:08:00     -102.979      -27.761      -12.136       20.266       15.354       11.273      410.714      235.744      127.092        0.615        0.039      106.655        8.013        0.006      331.768       -0.003      867.234
10/31/2013  07:09:00      -89.029      -25.089       -5.859       21.468       21.688       13.990      460.884      470.379      195.728        0.486        0.056       92.496        7.717        0.007      331.861        0.148      867.238
10/31/2013  07:10:00      -83.069      -19.302       -8.842       26.943       19.982       18.199      725.932      399.297      331.216        0.440        0.073       85.282       17.240        0.041      331.750       -0.033      867.259
10/31/2013  07:11:00      -50.025      -12.145       -5.714       28.926       24.272       19.897      836.726      589.122      395.903        0.225        0.091       51.479       17.829        0.120      331.674       -0.157      867.276
10/31/2013  07:12:00      -44.008      -10.864       -4.865       31.605       23.230       15.009      998.853      539.621      225.257        0.192        0.088       45.329       11.101        0.060      331.647       -0.203      867.282
10/31/2013  07:13:00      -33.058       -9.819       -3.280       23.970       20.318       14.976      574.545      412.839      224.287        0.121        0.061       34.485       11.038        0.102      331.663       -0.177      867.291
10/31/2013  07:14:00      -58.059       -0.975        2.072       47.186       22.160       20.567     2226.561      491.067      422.986        0.326        0.157       58.067       23.873        0.169      331.595       -0.289      867.295
10/31/2013  07:15:00      -50.853        0.759       -8.828       30.299       13.515       11.353      918.037      182.650      128.894        0.195        0.061       50.859        7.588        0.022      331.717       -0.087      867.302
10/31/2013  07:16:00      -75.616        2.544       -7.577       26.630       15.739       13.175      709.170      247.702      173.577        0.346        0.057       75.659       11.707        0.024      331.656       -0.188      867.314
10/31/2013  07:17:00      -73.951        4.791       -9.242       21.484       12.398        9.914      461.579      153.708       98.280        0.315        0.036       74.106        6.253        0.007      331.678       -0.150      867.317
10/31/2013  07:18:00      -74.004      -22.997      -11.010       15.647       14.001       13.130      244.817      196.037      172.404        0.337        0.031       77.495        3.643        0.002      331.674       -0.158      867.328
10/31/2013  07:19:00      -74.355      -14.118       -9.015       17.236       11.490       13.602      297.063      132.028      185.002        0.321        0.031       75.684        6.078        0.006      331.638       -0.218      867.332
10/31/2013  07:20:00      -40.963      -19.024      -12.101       17.820        9.447        8.037      317.569       89.250       64.595        0.133        0.024       45.165        4.241        0.009      331.698       -0.117      867.340
10/31/2013  07:21:00      -14.714      -17.703       -0.842        8.082       11.960        7.808       65.313      143.030       60.957        0.040        0.013       23.019        6.477        0.079      331.807        0.060      867.347
10/31/2013  07:22:00      -32.794       -7.691       -9.046        9.784        8.283        6.429       95.723       68.607       41.330        0.071        0.010       33.684        3.662        0.012      331.815        0.073      867.346
10/31/2013  07:23:00      -47.603       -2.419       -7.853       13.977        7.401        8.122      195.362       54.776       65.972        0.132        0.016       47.665        4.011        0.007      331.772        0.002      867.344
10/31/2013  07:24:00      -72.890       -0.727      -15.888       11.392        6.858        8.852      129.778       47.033       78.351        0.291        0.013       72.893        4.457        0.004      331.653       -0.192      867.336
10/31/2013  07:25:00      -70.423      -11.402      -14.948       13.749       14.719        9.624      189.038      216.639       92.619        0.291        0.025       71.340        8.566        0.014      331.658       -0.184      867.330
10/31/2013  07:26:00      -90.705      -16.400      -13.654       24.143       13.604       11.611      582.863      185.070      134.811        0.479        0.045       92.176        7.746        0.007      331.569       -0.332      867.329
10/31/2013  07:27:00      -82.462       -9.934      -12.113       25.046       20.659       16.024      627.297      426.812      256.761        0.418        0.066       83.058       13.355        0.026      331.609       -0.266      867.341
10/31/2013  07:28:00      -68.733      -19.256      -14.533       16.013       20.777        9.861      256.403      431.684       97.237        0.305        0.039       71.380        6.752        0.009      331.662       -0.178      867.357
10/31/2013  07:29:00      -58.331      -27.141       -7.910       14.688       14.991        9.053      215.735      224.739       81.954        0.236        0.026       64.336        7.103        0.012      331.759       -0.018      867.368
10/31/2013  07:30:00      -66.833      -14.658       -9.974       18.780       17.072       11.013      352.698      291.453      121.294        0.277        0.038       68.422        7.881        0.013      331.720       -0.081      867.376
10/31/2013  07:31:00      -76.869      -24.306      -10.934       16.546       14.682       11.056      273.778      215.552      122.231        0.362        0.031       80.620        9.400        0.014      331.712       -0.095      867.379
10/31/2013  07:32:00      -63.194      -16.088      -11.758       19.061       16.835       11.333      363.323      283.429      128.440        0.258        0.039       65.210        9.419        0.021      331.682       -0.145      867.379
10/31/2013  07:33:00      -64.337      -26.376      -10.264       16.095       16.623       10.420      259.060      276.339      108.580        0.279        0.032       69.534        8.481        0.015      331.687       -0.135      867.382
10/31/2013  07:34:00      -51.468      -19.347      -11.033       19.340       14.545       11.423      374.028      211.554      130.496        0.193        0.036       54.984        9.973        0.033      331.748       -0.037      867.396
10/31/2013  07:35:00      -15.938      -31.744       -7.448       10.153       13.295        9.127      103.076      176.766       83.305        0.084        0.018       35.520        7.501        0.045      331.817        0.076      867.412
10/31/2013  07:36:00      -31.807      -17.699       -9.466       15.807       11.258        8.152      249.849      126.748       66.447        0.093        0.022       36.399        6.280        0.030      331.861        0.148      867.426
10/31/2013  07:37:00      -68.978        0.361       -8.617       11.570       10.373       10.991      133.876      107.595      120.811        0.260        0.018       68.979        6.092        0.008      331.932        0.266      867.440
10/31/2013  07:38:00      -62.475       -3.915       -3.342       17.202       13.530       10.279      295.904      183.073      105.658        0.226        0.029       62.598        9.762        0.024      331.887        0.193      867.442
10/31/2013  07:39:00      -64.492       -5.115       -5.954       17.224       11.879       12.614      296.660      141.103      159.104        0.241        0.030       64.695       11.592        0.032      331.923        0.250      867.445
10/31/2013  07:40:00      -59.387       -3.407      -14.827       10.879       10.766        6.574      118.352      115.917       43.218        0.202        0.014       59.484        6.118        0.011      331.989        0.361      867.446
10/31/2013  07:41:00      -61.535      -13.734       -8.046       10.788        9.651        8.130      116.384       93.137       66.098        0.216        0.014       63.049        6.302        0.010      331.945        0.289      867.450
10/31/2013  07:42:00      -33.712      -14.760       -2.578       14.228       13.274       13.468      202.449      176.196      181.389        0.096        0.028       36.802        7.953        0.047      331.979        0.344      867.460
10/31/2013  07:43:00      -43.531       -9.225       -8.170        9.073       10.309        7.682       82.313      106.275       59.020        0.115        0.012       44.498        5.694        0.016      332.012        0.399      867.467
10/31/2013  07:44:00      -69.102      -10.069       -7.505       16.042       15.281       11.408      257.358      233.513      130.137        0.278        0.031       69.832        9.248        0.018      332.045        0.452      867.481
10/31/2013  07:45:00     -100.460       -5.458      -11.094       15.286       13.387       10.202      233.656      179.212      104.090        0.538        0.026      100.608        6.843        0.005      332.026        0.419      867.498
10/31/2013  07:46:00     -109.772      -12.196      -12.713       14.430       12.567        9.246      208.212      157.939       85.494        0.641        0.023      110.448        4.046        0.001      331.890        0.197      867.518
10/31/2013  07:47:00      -95.463      -10.864       -9.890       18.063       12.244       13.526      326.259      149.910      182.946        0.499        0.033       96.079       10.394        0.012      331.888        0.194      867.532
10/31/2013  07:48:00      -67.701       -4.289      -10.338        7.619       11.025       10.009       58.047      121.561      100.170        0.249        0.014       67.837        6.775        0.010      331.919        0.246      867.556
10/31/2013  07:49:00      -62.105      -15.255       -6.824       12.096       14.879        8.879      146.313      221.381       78.837        0.229        0.022       63.951        5.195        0.007      331.954        0.303      867.584
10/31/2013  07:50:00      -73.225      -17.710      -11.759       15.324       18.458       10.057      234.830      340.695      101.147        0.325        0.034       75.336        7.468        0.010      331.981        0.346      867.603
10/31/2013  07:51:00      -61.669      -34.674       -4.853       20.797       13.244       11.309      432.529      175.416      127.885        0.288        0.037       70.749        7.063        0.010      332.055        0.469      867.609
10/31/2013  07:52:00      -39.049      -30.700        2.668       31.215       14.915       14.656      974.375      222.462      214.790        0.194        0.071       49.672       16.323        0.108      332.077        0.506      867.618
10/31/2013  07:53:00      -78.559      -48.462       -8.396       15.072       13.437       12.482      227.160      180.554      155.793        0.458        0.028       92.304        8.274        0.008      332.048        0.456      867.621
10/31/2013  07:54:00      -77.084      -38.854      -10.120       21.764       12.994       15.604      473.682      168.842      243.484        0.422        0.044       86.323       14.994        0.030      331.988        0.357      867.616
10/31/2013  07:55:00      -86.682      -38.377      -10.923        9.504       14.324        9.255       90.327      205.178       85.650        0.474        0.019       94.797        3.220        0.001      332.018        0.409      867.618
10/31/2013  07:56:00      -53.168      -27.589       -2.276       36.924       18.416       12.557     1363.358      339.155      157.679        0.273        0.093       59.899       18.265        0.093      332.063        0.482      867.613
10/31/2013  07:57:00      -19.708      -18.255        3.512       30.374       16.256       12.172      922.600      264.266      148.164        0.103        0.067       26.864       16.495        0.377      332.170        0.658      867.618
10/31/2013  07:58:00       -7.965      -24.548        4.941       17.801       20.034       13.138      316.884      401.351      172.609        0.079        0.045       25.808        5.703        0.049      332.242        0.780      867.635
10/31/2013  07:59:00      -16.733      -24.175        6.666       21.613       15.980       12.433      467.111      255.348      154.584        0.089        0.044       29.401        9.160        0.097      332.236        0.768      867.647
10/31/2013  08:00:00      -63.270      -23.325        3.217       33.356       22.240       12.309     1112.636      494.629      151.501        0.316        0.088       67.433       11.876        0.031      332.272        0.828      867.666
10/31/2013  08:01:00      -87.762      -33.911       -2.710       25.650       24.781       13.652      657.922      614.109      186.375        0.516        0.073       94.086       12.986        0.019      332.207        0.719      867.675
10/31/2013  08:02:00      -89.506      -32.388      -10.843       12.440       15.919       12.938      154.748      253.401      167.396        0.488        0.029       95.186        6.093        0.004      332.185        0.685      867.683
10/31/2013  08:03:00      -68.318      -45.433       -8.601       18.071       16.968       10.879      326.551      287.928      118.342        0.377        0.037       82.046        5.819        0.005      332.234        0.765      867.688
10/31/2013  08:04:00      -70.569      -32.704       -6.542       28.213       10.809       12.885      795.949      116.829      166.019        0.359        0.054       77.778       16.157        0.043      332.214        0.733      867.698
10/31/2013  08:05:00      -61.780      -29.720        1.806       26.632       22.130       18.180      709.278      489.735      330.495        0.312        0.076       68.557       18.386        0.072      332.214        0.733      867.710
10/31/2013  08:06:00      -41.257      -33.160        6.785       29.695       25.224       19.209      881.804      636.231      368.968        0.237        0.094       52.931       19.794        0.140      332.342        0.943      867.708
10/31/2013  08:07:00      -59.725      -40.005        3.006       33.050       19.301       18.416     1092.287      372.510      339.158        0.349        0.090       71.885       17.148        0.057      332.343        0.945      867.718
10/31/2013  08:08:00      -75.109      -38.730       -0.069       37.579       22.486       18.630     1412.214      505.641      347.066        0.470        0.113       84.507       19.879        0.055      332.367        0.983      867.715
10/31/2013  08:09:00      -83.062      -44.775        0.075       34.352       29.928       13.237     1180.038      895.712      175.207        0.558        0.113       94.362       13.130        0.019      332.344        0.946      867.710
10/31/2013  08:10:00     -129.086      -45.243       -3.706       22.741       15.378       12.138      517.141      236.478      147.332        0.981        0.045      136.785       11.509        0.007      332.302        0.878      867.707
10/31/2013  08:11:00     -115.906      -42.446        1.498       40.102       26.090       22.518     1608.133      680.705      507.081        0.902        0.140      123.434       22.114        0.032      332.322        0.910      867.704
10/31/2013  08:12:00     -125.794      -43.109       -3.282       30.620       21.112       18.340      937.562      445.701      336.346        0.971        0.086      132.976       19.054        0.021      332.338        0.934      867.700
10/31/2013  08:13:00     -108.080      -45.662       -0.509       22.498       21.649       17.806      506.148      468.672      317.047        0.753        0.065      117.330       14.021        0.014      332.391        1.022      867.710
10/31/2013  08:14:00      -93.947      -22.681       -2.595       29.645       19.830       18.992      878.840      393.242      360.708        0.549        0.082       96.646       16.425        0.029      332.472        1.157      867.713
10/31/2013  08:15:00      -79.697      -22.576       -3.051       26.111       35.467       15.379      681.767     1257.937      236.507        0.452        0.109       82.833        8.039        0.009      332.463        1.143      867.704
10/31/2013  08:16:00      -59.782      -18.434       -3.542       29.249       27.114       19.027      855.525      735.185      362.043        0.294        0.098       62.560       17.365        0.077      332.576        1.328      867.698
10/31/2013  08:17:00      -70.154      -24.751       -1.369       20.534       26.019       16.840      421.630      676.972      283.601        0.346        0.069       74.392       13.956        0.035      332.576        1.328      867.697
10/31/2013  08:18:00      -97.407       -1.835       -9.620       23.964       15.335       11.833      574.291      235.150      140.010        0.527        0.047       97.424       11.174        0.013      332.556        1.294      867.702
10/31/2013  08:19:00      -51.856      -12.870       -4.122       22.482       20.259       13.266      505.455      410.420      175.989        0.198        0.055       53.429       10.017        0.035      332.668        1.479      867.719
10/31/2013  08:20:00      -23.337      -31.400        7.222       21.761       18.071       14.566      473.556      326.549      212.176        0.130        0.051       39.123       12.679        0.105      332.840        1.765      867.737
10/31/2013  08:21:00      -16.009      -20.537        3.317       18.465       17.769       13.106      340.950      315.728      171.765        0.076        0.041       26.040       10.417        0.160      332.858        1.795      867.749
10/31/2013  08:22:00      -15.747      -33.138        3.385       17.817       22.018       12.547      317.439      484.777      157.417        0.116        0.048       36.689       10.236        0.078      332.856        1.793      867.753
10/31/2013  08:23:00      -13.622      -46.780       -2.253       15.507       13.132        8.937      240.482      172.443       79.869        0.144        0.025       48.723        7.920        0.026      332.798        1.697      867.755
10/31/2013  08:24:00      -18.289      -26.077       -3.097       10.795       21.393        9.152      116.540      457.661       83.767        0.084        0.033       31.851       10.472        0.108      332.963        1.970      867.765
10/31/2013  08:25:00      -17.691      -20.935       -6.018       14.553       18.883       10.981      211.799      356.571      120.593        0.074        0.034       27.409        8.145        0.088      333.005        2.037      867.778
10/31/2013  08:26:00       -3.558       14.017       34.088       14.787       30.103       15.623      218.668      906.206      244.073        0.137        0.068       14.462       16.840        1.356      333.346        2.601      867.789
10/31/2013  08:27:00       -6.275        4.623       37.435       10.970       20.218       11.817      120.332      408.784      139.641        0.107        0.033        7.794       10.837        1.933      333.396        2.682      867.806
10/31/2013  08:28:00      -22.784       10.381       19.918       13.980       19.121       15.663      195.432      365.627      245.324        0.091        0.040       25.038       12.681        0.257      333.217        2.387      867.810
10/31/2013  08:29:00      -38.843      -16.343        8.595       18.001       10.349       13.743      324.026      107.100      188.872        0.123        0.031       42.141        9.604        0.052      333.008        2.042      867.817
10/31/2013  08:30:00      -22.854       -1.646       11.174       11.433       14.954        9.798      130.708      223.617       96.008        0.055        0.023       22.913        7.404        0.104      333.158        2.290      867.835
10/31/2013  08:31:00      -16.794       13.019       18.677       12.391       14.332       12.465      153.528      205.398      155.375        0.066        0.026       21.249        8.784        0.171      333.311        2.543      867.852
10/31/2013  08:32:00       -5.439       20.344       29.697        8.934       13.490       14.839       79.809      181.981      220.200        0.090        0.024       21.059        8.493        0.163      333.473        2.810      867.884
10/31/2013  08:33:00      -41.439       17.606      -11.623       15.125       10.943       12.298      228.751      119.750      151.246        0.133        0.025       45.024        9.018        0.040      333.136        2.253      867.915
10/31/2013  08:34:00      -19.221        4.842       13.422       11.296       19.237       16.956      127.601      370.046      287.507        0.068        0.039       19.821       10.123        0.261      333.398        2.687      867.944
10/31/2013  08:35:00      -14.185        7.351       26.174       11.604       15.435       17.257      134.658      238.245      297.810        0.081        0.034       15.976       12.884        0.650      333.547        2.933      867.961
10/31/2013  08:36:00       13.874       39.123       53.718       18.730       18.478        7.460      350.825      341.437       55.650        0.268        0.037       41.510        8.616        0.043      333.388        2.671      867.968
10/31/2013  08:37:00       24.784       27.666       34.490       27.402       16.915       11.889      750.872      286.118      141.346        0.187        0.059       37.143        9.933        0.072      333.383        2.660      867.974
10/31/2013  08:38:00       44.127       28.588       42.621       30.101       19.063       18.210      906.065      363.385      331.609        0.309        0.080       52.578        9.311        0.031      333.399        2.688      867.971
10/31/2013  08:39:00       36.709       41.710       30.733       28.395       23.437       21.433      806.272      549.270      459.359        0.292        0.091       55.563       15.028        0.073      333.400        2.691      867.981
10/31/2013  08:40:00       33.008       28.887       41.657       38.947       31.517       25.923     1516.890      993.293      671.976        0.342        0.159       43.863       25.209        0.330      333.566        2.965      867.996
10/31/2013  08:41:00       75.297       64.042       10.027       34.814       33.090       26.788     1211.994     1094.958      717.613        0.645        0.151       98.848       20.460        0.043      333.367        2.635      868.015
10/31/2013  08:42:00       83.039       49.340        8.424       31.893       30.945       29.009     1017.186      957.608      841.513        0.611        0.141       96.592       20.354        0.044      333.390        2.673      868.017
10/31/2013  08:43:00       86.209       32.023       34.047       45.135       38.579       36.883     2037.200     1488.369     1360.351        0.725        0.244       91.964       28.334        0.095      333.444        2.762      868.016
10/31/2013  08:44:00      117.009       86.662        7.114       51.823       36.521       33.670     2685.608     1333.790     1133.668        1.320        0.258      145.607       18.679        0.016      333.208        2.372      868.020
10/31/2013  08:45:00      117.888       72.804       12.523       36.216       34.277       28.041     1311.615     1174.934      786.310        1.131        0.164      138.557       17.860        0.017      333.206        2.368      868.023
10/31/2013  08:46:00      102.066       69.526       25.590       39.736       34.715       30.764     1578.975     1205.110      946.430        0.982        0.187      123.496       16.489        0.018      333.307        2.536      868.034
10/31/2013  08:47:00      119.579       81.698       29.742       45.966       34.348       36.068     2112.915     1179.792     1300.880        1.323        0.230      144.823       15.619        0.012      333.249        2.439      868.043
10/31/2013  08:48:00       25.353       40.656       29.524       43.750       24.913       30.504     1914.039      620.674      930.495        0.332        0.173       47.913       26.867        0.314      333.453        2.776      868.050
10/31/2013  08:49:00        1.625       34.922       55.598       22.095       41.672       29.614      488.188     1736.531      876.996        0.371        0.155       34.960       28.222        0.652      333.676        3.147      868.047
10/31/2013  08:50:00      102.686       73.588       27.047       48.094       26.617       45.114     2313.066      708.474     2035.255        1.087        0.253      126.332       26.522        0.044      333.234        2.416      868.048
10/31/2013  08:51:00       30.436       55.618       50.445       41.428       38.521       31.137     1716.293     1483.853      969.503        0.537        0.208       63.401       26.071        0.169      333.664        3.127      868.052
10/31/2013  08:52:00       -7.655       56.134       84.002       28.234       43.791       32.934      797.143     1917.667     1084.642        0.703        0.190       56.654       24.506        0.187      333.638        3.082      868.056
10/31/2013  08:53:00       83.593       72.599       20.357       61.586       35.002       46.026     3792.863     1225.117     2118.398        0.990        0.357      110.718       38.218        0.119      333.379        2.655      868.072
10/31/2013  08:54:00      117.636       66.883       16.543       51.461       39.153       33.921     2648.191     1532.940     1150.622        1.196        0.267      135.320       28.208        0.043      333.336        2.584      868.094
10/31/2013  08:55:00      100.069       58.808        6.808       37.623       42.141       31.791     1415.489     1775.887     1010.677        0.886        0.210      116.070       12.617        0.012      333.349        2.606      868.099
10/31/2013  08:56:00      113.187       53.601       -0.139       45.439       27.774       26.568     2064.736      771.375      705.870        0.961        0.177      125.237       17.312        0.019      333.324        2.565      868.110
10/31/2013  08:57:00       99.322       52.760       12.928       47.188       34.702       27.250     2226.674     1204.234      742.547        0.849        0.209      112.465       18.964        0.028      333.506        2.867      868.112
10/31/2013  08:58:00       94.466       66.857        9.590       35.243       30.693       27.936     1242.098      942.069      780.408        0.822        0.148      115.731       13.413        0.013      333.425        2.731      868.122
10/31/2013  08:59:00       43.814       61.444       49.710       40.974       31.691       28.376     1678.875     1004.288      805.184        0.583        0.174       75.466       12.429        0.027      333.850        3.436      868.122
10/31/2013  09:00:00       41.684       47.416       14.608       30.182       29.143       29.288      910.954      849.341      857.772        0.341        0.131       63.133       19.646        0.097      333.892        3.505      868.138
10/31/2013  09:01:00       48.616       39.838       49.766       36.715       29.554       26.639     1348.019      873.444      709.659        0.468        0.147       62.853       22.703        0.130      333.655        3.113      868.145
10/31/2013  09:02:00      119.129       72.531       16.529       32.869       28.644       31.700     1080.364      820.452     1004.921        1.132        0.145      139.472       22.231        0.025      333.366        2.632      868.144
10/31/2013  09:03:00      104.050       63.467       36.861       41.572       36.502       42.821     1728.257     1332.426     1833.636        1.055        0.245      121.879       24.132        0.039      333.522        2.890      868.147
10/31/2013  09:04:00       73.220       41.598       35.106       24.738       27.130       31.085      611.952      736.013      966.280        0.532        0.116       84.211       17.362        0.043      333.448        2.768      868.148
10/31/2013  09:05:00       40.733       32.801       -2.975       34.312       28.783       20.270     1177.330      828.481      410.872        0.258        0.121       52.299        5.580        0.011      333.452        2.776      868.149
10/31/2013  09:06:00       16.255       60.488       75.753       34.200       37.647       19.761     1169.621     1417.280      390.491        0.632        0.149       62.634       21.379        0.117      333.730        3.236      868.144
10/31/2013  09:07:00       40.475      -20.083       33.029       40.203       58.863       38.707     1616.259     3464.832     1498.209        0.485        0.329       45.184       45.677        1.022      333.856        3.445      868.149
10/31/2013  09:08:00       52.271       -4.531       27.117       37.292       39.723       33.107     1390.699     1577.928     1096.102        0.378        0.203       52.467       29.198        0.310      333.684        3.160      868.143
10/31/2013  09:09:00       68.167       44.108       21.864       42.724       36.960       37.799     1825.361     1366.042     1428.761        0.584        0.231       81.193       26.827        0.109      333.774        3.310      868.128
10/31/2013  09:10:00       96.199       64.996       11.866       43.861       33.167       28.885     1923.773     1100.046      834.367        0.874        0.193      116.098       15.060        0.017      333.647        3.098      868.129
10/31/2013  09:11:00      113.353       66.667        2.050       26.613       27.022       24.135      708.225      730.186      582.520        0.966        0.101      131.504       14.964        0.013      333.471        2.806      868.135
10/31/2013  09:12:00       70.926       48.492       -0.979       34.040       31.456       24.693     1158.741      989.477      609.720        0.507        0.138       85.918       17.614        0.042      333.629        3.070      868.146
10/31/2013  09:13:00       95.396       62.796        9.122       17.797       23.672       24.400      316.739      560.384      595.359        0.730        0.074      114.209       11.094        0.009      333.593        3.008      868.152
10/31/2013  09:14:00       65.165       35.824       -7.609       28.841       27.719       23.260      831.822      768.325      541.013        0.386        0.107       74.364       16.078        0.047      333.738        3.250      868.156
10/31/2013  09:15:00       21.133       52.882       18.635       37.004       40.796       28.060     1369.269     1664.308      787.349        0.370        0.191       56.948       23.247        0.167      334.004        3.692      868.152
10/31/2013  09:16:00       31.688       32.252       17.793       23.951       33.558       30.072      573.671     1126.119      904.301        0.248        0.130       45.214       26.456        0.342      334.248        4.095      868.147
10/31/2013  09:17:00       56.493       41.443        5.726       31.063       25.500       28.918      964.930      650.235      836.233        0.370        0.123       70.065       13.365        0.036      334.048        3.764      868.148
10/31/2013  09:18:00       45.681       82.604       39.393       33.825       34.632       55.070     1144.131     1199.386     3032.659        0.792        0.269       94.394       37.430        0.157      333.871        3.469      868.154
10/31/2013  09:19:00       93.074       81.948       45.728       29.630       33.086       46.223      877.953     1094.659     2136.529        1.079        0.205      124.009       34.230        0.076      333.689        3.168      868.154
10/31/2013  09:20:00       81.662       59.435       15.467       18.001       20.988       29.392      324.029      440.504      863.883        0.603        0.081      101.001        5.869        0.003      333.608        3.034      868.148
10/31/2013  09:21:00       95.286       63.159        3.788       28.919       21.253       24.050      836.307      451.673      578.383        0.747        0.093      114.318       14.421        0.016      333.717        3.214      868.147
10/31/2013  09:22:00       27.590       47.618       37.109       36.387       28.337       32.976     1323.979      803.005     1087.431        0.381        0.161       55.034       27.704        0.253      334.217        4.044      868.146
10/31/2013  09:23:00       50.929       58.988        6.426       38.691       23.500       33.763     1497.017      552.250     1139.925        0.465        0.159       77.931       22.199        0.081      334.042        3.754      868.157
10/31/2013  09:24:00       69.654       70.047        4.993       33.385       36.841       30.326     1114.527     1357.289      919.646        0.659        0.170       98.783       13.885        0.020      333.961        3.619      868.166
10/31/2013  09:25:00       52.676       55.437       27.627       33.870       20.281       27.137     1147.144      411.326      736.429        0.445        0.115       76.472       16.496        0.047      333.881        3.486      868.166
10/31/2013  09:26:00       23.170       27.647       22.558       38.584       42.286       37.030     1488.704     1788.139     1371.241        0.323        0.232       36.072       28.967        0.645      334.205        4.024      868.153
10/31/2013  09:27:00       60.163       43.650       25.424       47.339       33.198       31.973     2240.954     1102.118     1022.272        0.527        0.218       74.330       29.007        0.152      334.170        3.967      868.157
10/31/2013  09:28:00       67.307       45.611        8.210       37.971       22.697       25.736     1441.790      515.150      662.343        0.465        0.131       81.305       14.692        0.033      334.052        3.770      868.162
10/31/2013  09:29:00      112.076       78.260       14.939       54.417       50.762       30.796     2961.223     2576.825      948.424        1.270        0.324      136.695       22.833        0.028      334.062        3.786      868.164
10/31/2013  09:30:00       60.532       69.095        0.883       40.045       40.376       35.721     1603.629     1630.222     1275.977        0.647        0.225       91.860       20.962        0.052      334.205        4.024      868.160
10/31/2013  09:31:00       12.744       32.723       53.015       26.113       50.598       39.549      681.903     2560.183     1564.084        0.442        0.240       35.117       39.606        1.272      334.447        4.426      868.167
10/31/2013  09:32:00       75.274        1.663        5.682       41.884       54.048       26.988     1754.307     2921.181      728.354        0.555        0.270       75.293       23.644        0.099      333.877        3.479      868.174
10/31/2013  09:33:00       47.772       44.127        8.283       26.423       32.324       31.842      698.194     1044.823     1013.937        0.353        0.138       65.033       15.209        0.055      334.206        4.027      868.172
10/31/2013  09:34:00       65.899       49.743        7.686       39.373       26.968       29.720     1550.269      727.298      883.251        0.502        0.158       82.565       19.686        0.057      334.222        4.052      868.167
10/31/2013  09:35:00       74.021       37.871        9.102       33.769       30.512       28.442     1140.343      930.980      808.964        0.494        0.144       83.146       10.965        0.017      334.094        3.840      868.164
10/31/2013  09:36:00       81.468       37.468        1.214       37.134       28.777       30.347     1378.945      828.097      920.966        0.558        0.156       89.671       20.748        0.054      334.143        3.920      868.171
10/31/2013  09:37:00        8.987       37.395       48.311       26.228       32.913       23.614      687.915     1083.279      557.629        0.307        0.116       38.459       13.231        0.118      334.737        4.908      868.176
10/31/2013  09:38:00       73.114       90.357       42.193       70.715       33.864       32.291     5000.555     1146.752     1042.689        1.124        0.359      116.233       30.836        0.070      334.358        4.278      868.182
10/31/2013  09:39:00       66.809       67.518       31.911       49.033       33.404       39.912     2404.202     1115.839     1592.954        0.758        0.256       94.985       35.313        0.138      334.457        4.443      868.189
10/31/2013  09:40:00       36.724      107.484      100.139       46.158       37.197       26.021     2130.515     1383.580      677.103        1.356        0.210      113.585       20.805        0.034      334.487        4.491      868.188
10/31/2013  09:41:00       85.295       67.917       31.909       37.630       30.418       27.563     1415.980      925.252      759.701        0.800        0.155      109.032       19.988        0.034      334.185        3.993      868.189
10/31/2013  09:42:00       39.088       42.559       51.535       42.398       38.132       32.531     1797.552     1454.017     1058.256        0.515        0.215       57.785       17.098        0.088      334.474        4.470      868.183
10/31/2013  09:43:00       13.669        8.799       31.674       15.538       24.362       19.756      241.428      593.484      390.304        0.125        0.061       16.256       18.428        1.285      334.584        4.654      868.194
10/31/2013  09:44:00       17.656       65.415       72.338       31.178       41.384       23.891      972.071     1712.619      570.780        0.654        0.163       67.756       17.443        0.066      334.652        4.766      868.211
10/31/2013  09:45:00       68.300       80.000       70.568       48.732       33.947       31.289     2374.819     1152.389      979.017        1.027        0.225      105.190       31.517        0.090      334.352        4.267      868.216
10/31/2013  09:46:00       13.677       72.165       81.218       46.480       51.279       27.472     2160.406     2629.563      754.737        0.877        0.277       73.450       24.193        0.108      334.572        4.634      868.225
10/31/2013  09:47:00       59.320       65.429       46.321       59.902       34.781       43.671     3588.306     1209.699     1907.184        0.832        0.335       88.317       35.368        0.160      334.720        4.879      868.236
10/31/2013  09:48:00       89.880       69.334       46.880       53.150       35.189       48.346     2824.948     1238.276     2337.300        1.074        0.320      113.515       41.427        0.133      334.398        4.345      868.245
10/31/2013  09:49:00       91.754       65.997        4.830       33.857       27.303       24.035     1146.326      745.429      577.704        0.763        0.123      113.024       18.015        0.025      334.154        3.940      868.256
10/31/2013  09:50:00       16.622       12.729       41.604       34.774       68.654       41.242     1209.246     4713.313     1700.892        0.490        0.381       20.936       38.832        3.440      334.746        4.921      868.260
10/31/2013  09:51:00       66.842       71.221       38.637       51.323       25.505       38.749     2634.039      650.487     1501.483        0.791        0.239       97.674       23.368        0.057      334.831        5.063      868.256
10/31/2013  09:52:00       71.418       72.375       51.278       58.765       49.172       41.888     3453.380     2417.901     1754.594        1.030        0.381      101.679       33.357        0.108      334.965        5.286      868.264
10/31/2013  09:53:00       72.060       74.613       52.323       47.782       41.786       44.836     2283.085     1746.087     2010.289        0.977        0.302      103.729       28.052        0.073      334.644        4.753      868.276
10/31/2013  09:54:00       32.505       68.127       42.288       40.122       35.423       55.179     1609.793     1254.789     3044.727        0.670        0.295       75.484       42.792        0.321      334.614        4.703      868.287
10/31/2013  09:55:00       29.448        5.050       15.446       18.891       26.403       27.292      356.880      697.137      744.858        0.146        0.090       29.878       16.158        0.292      334.873        5.133      868.279
10/31/2013  09:56:00       68.285       66.967       11.737       54.045       31.905       37.173     2920.867     1017.959     1381.845        0.730        0.266       95.643       33.980        0.126      334.811        5.029      868.286
10/31/2013  09:57:00      118.068       71.283        7.689       46.178       34.600       34.745     2132.391     1197.166     1207.238        1.181        0.227      137.918       19.484        0.020      334.650        4.762      868.286
10/31/2013  09:58:00       74.917       85.581      -11.077       37.418       31.034       27.294     1400.134      963.101      744.965        0.808        0.155      113.739       21.688        0.036      334.585        4.655      868.290
10/31/2013  09:59:00       52.049       41.441        5.615       38.037       26.642       25.930     1446.840      709.802      672.378        0.364        0.141       66.532        9.761        0.022      334.592        4.668      868.282
10/31/2013  10:00:00       55.912       48.925      -13.375       32.379       30.615       19.651     1048.416      937.261      386.158        0.403        0.119       74.296       14.239        0.037      334.723        4.884      868.293
10/31/2013  10:01:00       -0.907       17.935        2.461       20.623       18.156       20.175      425.289      329.658      407.039        0.075        0.058       17.958       14.043        0.612      334.955        5.271      868.294
10/31/2013  10:02:00       12.579       11.884       28.328       32.492       33.814       24.305     1055.718     1143.365      590.749        0.195        0.139       17.305       12.407        0.514      335.451        6.094      868.297
10/31/2013  10:03:00       92.314       67.191       14.088       26.695       27.146       29.484      712.640      736.904      869.295        0.778        0.116      114.177       20.427        0.032      334.815        5.036      868.311
10/31/2013  10:04:00       17.408       48.448       49.062       42.885       35.226       46.125     1839.083     1240.879     2127.546        0.513        0.260       51.481       33.877        0.433      335.472        6.129      868.317
10/31/2013  10:05:00       46.458       39.733       30.749       45.792       47.279       35.522     2096.951     2235.333     1261.840        0.514        0.280       61.131       14.237        0.054      335.374        5.965      868.312
10/31/2013  10:06:00       14.924       78.821        0.588       25.412       52.155       32.458      645.757     2720.184     1053.530        0.543        0.221       80.222       34.049        0.180      335.062        5.447      868.327
10/31/2013  10:07:00       54.907       37.806       19.314       38.590       26.222       34.787     1489.202      687.594     1210.139        0.410        0.169       66.664       24.444        0.134      335.061        5.446      868.337
10/31/2013  10:08:00       51.862       39.778       10.839       30.253       32.263       26.558      915.251     1040.888      705.338        0.352        0.133       65.360       15.576        0.057      335.366        5.952      868.347
10/31/2013  10:09:00       74.779       62.407       25.794       37.707       53.987       45.334     1421.792     2914.594     2055.159        0.827        0.320       97.398       37.360        0.147      334.912        5.199      868.356
10/31/2013  10:10:00       23.542       10.825       -4.286       48.419       30.394       24.067     2344.367      923.813      579.232        0.227        0.192       25.912       13.952        0.290      335.306        5.852      868.366
10/31/2013  10:11:00      101.066       74.559       32.466       27.575       19.406       30.818      760.377      376.591      949.721        0.946        0.104      125.592       15.527        0.015      334.963        5.282      868.377
10/31/2013  10:12:00       28.808       38.829       26.246       36.136       40.527       49.672     1305.834     1642.411     2467.340        0.422        0.271       48.349       32.516        0.452      335.428        6.055      868.384
10/31/2013  10:13:00       93.919       94.913       26.916       46.063       30.018       35.467     2121.838      901.074     1257.914        1.142        0.214      133.526       11.190        0.007      335.046        5.421      868.401
10/31/2013  10:14:00       66.409       59.312       -6.909       48.395       31.916       25.674     2342.101     1018.626      659.145        0.600        0.201       89.040       19.058        0.046      335.029        5.391      868.422
10/31/2013  10:15:00       36.893       54.261       38.027       52.105       50.420       39.136     2714.935     2542.145     1531.589        0.627        0.339       65.616       26.601        0.164      335.352        5.930      868.429
10/31/2013  10:16:00       79.477       97.272       68.884       77.867       49.813       60.586     6063.294     2481.381     3670.708        1.637        0.611      125.612       60.530        0.232      335.229        5.723      868.423
10/31/2013  10:17:00       96.975       79.747        7.774       61.685       49.832       33.168     3805.052     2483.181     1100.116        1.161        0.369      125.554       34.558        0.076      335.131        5.560      868.430
10/31/2013  10:18:00       23.285       67.874       74.436       37.839       34.103       25.280     1431.755     1162.997      639.085        0.696        0.162       71.757       12.052        0.028      335.787        6.654      868.447
10/31/2013  10:19:00       86.230       70.053       45.465       47.813       30.641       45.542     2286.052      938.875     2074.077        0.985        0.265      111.099       31.420        0.080      335.236        5.737      868.450
10/31/2013  10:20:00       59.036       29.965       -2.948       46.590       28.021       23.856     2170.672      785.181      569.087        0.396        0.176       66.205       20.873        0.099      335.336        5.901      868.459
10/31/2013  10:21:00       44.834       39.452        5.713       42.538       39.374       37.720     1809.466     1550.284     1422.810        0.419        0.239       59.720       24.948        0.175      335.607        6.354      868.460
10/31/2013  10:22:00       -0.092       35.689       -3.831       32.118       38.006       28.290     1031.571     1444.490      800.347        0.228        0.164       35.689       25.259        0.501      335.384        5.983      868.478
10/31/2013  10:23:00       22.773       51.900       75.756       34.415       47.647       25.129     1184.376     2270.273      631.490        0.652        0.204       56.676       27.486        0.235      335.775        6.634      868.493
10/31/2013  10:24:00       94.790       86.184       56.121       37.025       31.705       35.061     1370.864     1005.183     1229.302        1.158        0.180      128.113       24.647        0.037      335.308        5.855      868.518
10/31/2013  10:25:00       49.861       68.849       63.057       48.504       39.491       30.046     2352.637     1559.534      902.742        0.801        0.241       85.008       22.892        0.073      335.471        6.129      868.546
10/31/2013  10:26:00       37.689      -77.252       13.977       39.445       87.278       34.301     1555.945     7617.485     1176.592        0.897        0.518       85.955       33.953        0.156      335.689        6.491      868.545
10/31/2013  10:27:00        1.577       43.563       54.217       28.588       50.510       48.887      817.279     2551.308     2389.950        0.530        0.288       43.592       34.275        0.618      336.054        7.099      868.542
10/31/2013  10:28:00        8.553       72.545       97.503       36.053       50.519       28.488     1299.837     2552.188      811.585        0.975        0.233       73.048       28.377        0.151      336.112        7.194      868.540
10/31/2013  10:29:00        5.420       52.219       84.209       43.657       56.840       40.380     1905.933     3230.835     1630.576        0.831        0.338       52.499       37.292        0.505      335.864        6.783      868.532
10/31/2013  10:30:00       16.877       45.182       44.451       39.184       57.493       44.083     1535.367     3305.408     1943.346        0.554        0.339       48.231       28.390        0.346      336.023        7.047      868.530
10/31/2013  10:31:00       91.009       65.600       12.151       45.639       48.598       31.602     2082.910     2361.751      998.663        0.909        0.272      112.187       14.900        0.018      335.872        6.794      868.528
10/31/2013  10:32:00       51.925       70.300       -2.463       51.409       37.801       35.199     2642.936     1428.946     1238.994        0.648        0.266       87.397       24.791        0.080      335.784        6.649      868.524
10/31/2013  10:33:00       52.477       97.931        2.772       51.340       49.939       41.119     2635.826     2493.857     1690.799        0.959        0.341      111.105       34.696        0.098      335.794        6.664      868.520
10/31/2013  10:34:00       68.217       52.863        3.308       37.348       30.153       35.315     1394.844      909.223     1247.133        0.550        0.178       86.302       18.788        0.047      335.881        6.810      868.515
10/31/2013  10:35:00      117.675       55.017       26.572       71.670       47.707       44.973     5136.556     2275.937     2022.615        1.351        0.472      129.901       26.389        0.041      335.774        6.631      868.523
10/31/2013  10:36:00      141.741       54.180       19.926       65.194       49.220       46.759     4250.207     2422.628     2186.387        1.614        0.443      151.743       32.891        0.047      335.797        6.668      868.524
10/31/2013  10:37:00       66.651       57.199       23.248       53.486       41.644       44.400     2860.763     1734.233     1971.385        0.741        0.328       87.829       38.662        0.194      336.056        7.101      868.529
10/31/2013  10:38:00      115.128      100.610       70.125       69.857       52.078       58.787     4879.998     2712.074     3455.968        1.967        0.552      152.895       45.920        0.090      335.774        6.630      868.524
10/31/2013  10:39:00       47.638       31.335       51.020       64.750       70.991       27.444     4192.574     5039.786      753.195        0.792        0.499       57.019       13.729        0.058      335.854        6.765      868.523
10/31/2013  10:40:00       43.337       42.362       68.075       41.952       49.475       38.855     1759.962     2447.817     1509.699        0.701        0.286       60.602       29.048        0.230      336.268        7.456      868.533
10/31/2013  10:41:00      122.379       77.469       34.969       41.708       38.299       48.074     1739.560     1466.802     2311.131        1.386        0.276      144.838       20.657        0.020      335.730        6.558      868.537
10/31/2013  10:42:00       57.385       60.959       25.708       61.265       48.097       43.649     3753.434     2313.309     1905.248        0.782        0.399       83.720       38.343        0.210      336.074        7.133      868.535
10/31/2013  10:43:00       42.310       59.428       39.057       49.135       45.335       38.336     2414.249     2055.301     1469.642        0.639        0.297       72.950       30.020        0.169      336.322        7.546      868.531
10/31/2013  10:44:00       -0.016       70.146      101.524       41.024       49.534       27.680     1682.942     2453.568      766.183        1.006        0.245       70.146       29.866        0.181      336.318        7.538      868.522
10/31/2013  10:45:00       32.360       76.124       79.388       27.972       34.541       22.834      782.425     1193.070      521.378        0.782        0.125       82.716       17.953        0.047      336.064        7.116      868.524
10/31/2013  10:46:00       61.288       54.151       26.700       24.817       20.679       24.381      615.905      427.615      594.447        0.452        0.082       81.784       14.520        0.032      335.718        6.539      868.522
10/31/2013  10:47:00       42.583       37.461       14.506       32.525       34.321       19.712     1057.873     1177.906      388.578        0.303        0.131       56.715       14.638        0.067      336.037        7.070      868.510
10/31/2013  10:48:00       15.650       42.647       65.415       41.548       37.619       40.060     1726.239     1415.219     1604.777        0.554        0.237       45.428       30.043        0.437      336.385        7.651      868.498
10/31/2013  10:49:00       83.064       51.263       80.198       29.882       46.808       22.291      892.918     2190.979      496.897        0.977        0.179       97.609       19.797        0.041      336.039        7.073      868.505
10/31/2013  10:50:00       -1.886       29.828       -5.147       38.812       28.577       23.928     1506.362      816.655      572.537        0.191        0.145       29.887       14.471        0.234      335.878        6.806      868.499
10/31/2013  10:51:00       56.680       -4.768       42.135       46.027       82.367       46.909     2118.447     6784.393     2200.494        0.806        0.555       56.880       43.415        0.583      336.379        7.641      868.480
10/31/2013  10:52:00       21.504       42.927       92.439       40.175      113.860       48.071     1614.064    12964.118     2310.861        1.387        0.844       48.012       67.740        1.991      336.436        7.736      868.473
10/31/2013  10:53:00       76.478       32.207       53.136       39.828       34.509       39.647     1586.266     1190.864     1571.881        0.703        0.217       82.983       30.602        0.136      336.173        7.296      868.486
10/31/2013  10:54:00       14.915        2.775        4.233       31.034       28.282       22.844      963.108      799.886      521.842        0.127        0.114       15.171       13.425        0.783      336.222        7.379      868.479
10/31/2013  10:55:00       31.007       12.367       22.908       37.683       55.389       35.144     1420.027     3067.946     1235.084        0.368        0.286       33.383       34.048        1.040      336.399        7.674      868.462
10/31/2013  10:56:00       13.352       35.536       41.085       31.809       44.235       31.636     1011.833     1956.711     1000.829        0.355        0.198       37.962       17.879        0.222      336.669        8.129      868.461
10/31/2013  10:57:00        6.312      -26.441        3.370       34.046       58.219       37.222     1159.161     3389.436     1385.506        0.334        0.297       27.184       35.922        1.746      336.586        7.987      868.453
10/31/2013  10:58:00       75.945       73.518       57.998       51.338       31.241       28.267     2635.547      975.986      799.039        0.947        0.221      105.700       25.308        0.057      336.404        7.683      868.457
10/31/2013  10:59:00       69.600       32.753       21.362       44.956       27.572       31.089     2021.042      760.231      966.497        0.506        0.187       76.922       19.202        0.062      336.383        7.648      868.453
10/31/2013  11:00:00       59.577       47.414        9.770       29.722       31.999       28.393      883.396     1023.929      806.138        0.430        0.136       76.141       18.441        0.059      336.640        8.077      868.460
10/31/2013  11:01:00       30.210       50.017       10.692       36.505       32.211       25.906     1332.609     1037.541      671.135        0.328        0.152       58.432       24.256        0.172      336.583        7.982      868.463
10/31/2013  11:02:00       47.196        5.569       -5.523       32.458       48.296       35.034     1053.495     2332.526     1227.383        0.345        0.231       47.524       29.890        0.396      336.553        7.932      868.474
10/31/2013  11:03:00        1.948        9.199       36.090       30.171       60.660       35.547      910.279     3679.628     1263.561        0.362        0.293        9.403       36.532       15.095      336.812        8.366      868.464
10/31/2013  11:04:00       13.517        6.467       49.968       31.543       65.852       33.353      994.937     4336.538     1112.396        0.458        0.322       14.985       39.532        6.960      337.096        8.842      868.458
10/31/2013  11:05:00       18.077       25.533       34.201       41.156       37.817       27.752     1693.800     1430.105      770.198        0.302        0.195       31.285       17.216        0.303      337.027        8.725      868.466
10/31/2013  11:06:00       20.453        2.187       51.681       28.979       43.165       20.588      839.803     1863.213      423.846        0.311        0.156       20.570       15.371        0.558      337.130        8.897      868.447
10/31/2013  11:07:00       23.854      -14.755       29.157       31.001       31.622       26.233      961.059      999.947      688.159        0.214        0.132       28.048       10.647        0.144      337.189        8.997      868.451
10/31/2013  11:08:00       16.575       -7.261       37.162       35.640       55.213       25.518     1270.229     3048.497      651.177        0.334        0.248       18.096       28.624        2.502      337.142        8.916      868.444
10/31/2013  11:09:00       10.113      -38.895       22.856       38.350       65.584       41.107     1470.754     4301.324     1689.791        0.480        0.373       40.188       42.515        1.119      337.219        9.045      868.444
10/31/2013  11:10:00       -5.591        6.530       46.729       28.631       56.742       40.922      819.742     3219.638     1674.581        0.398        0.286        8.597       36.929       18.454      337.326        9.224      868.434
10/31/2013  11:11:00       18.839       78.638       89.107       44.997       51.406       45.529     2024.772     2642.619     2072.895        1.061        0.337       80.863       32.043        0.157      337.134        8.904      868.429
10/31/2013  11:12:00      -14.850      -96.992       27.129       51.130       97.158       50.551     2614.291     9439.601     2555.452        1.248        0.730       98.122       48.823        0.248      337.005        8.688      868.426
10/31/2013  11:13:00       64.872      -59.542       -2.312       54.520       69.379       38.280     2972.391     4813.485     1465.353        0.850        0.463       88.054       27.452        0.097      336.854        8.434      868.436
10/31/2013  11:14:00       11.901       62.415       71.685       32.685       39.679       29.057     1068.329     1574.392      844.301        0.633        0.174       63.539       18.544        0.085      337.056        8.772      868.447
10/31/2013  11:15:00       31.716       33.540       21.596       31.655       44.777       23.483     1002.025     2004.944      551.445        0.308        0.178       46.161       14.226        0.095      336.717        8.206      868.449
10/31/2013  11:16:00       26.258      -16.460       28.332       42.476       42.984       33.746     1804.230     1847.623     1138.759        0.328        0.240       30.991       13.265        0.183      337.099        8.844      868.449
10/31/2013  11:17:00       26.354      -34.385       13.097       37.458       50.232       34.862     1403.122     2523.299     1215.365        0.359        0.257       43.323       28.172        0.423      336.857        8.441      868.471
10/31/2013  11:18:00       39.189     -107.604      -20.147       29.133       28.559       20.743      848.738      815.633      430.290        0.781        0.105      114.518        7.094        0.004      336.589        7.991      868.466
10/31/2013  11:19:00       30.689       -4.585       34.247       34.791       40.765       41.986     1210.439     1661.770     1762.837        0.338        0.232       31.030       36.460        1.381      337.269        9.129      868.469
10/31/2013  11:20:00       59.941       -9.182       19.738       46.869       41.606       36.170     2196.666     1731.051     1308.262        0.465        0.262       60.640       28.107        0.215      337.014        8.702      868.463
10/31/2013  11:21:00       -7.473        1.651       49.988       29.940       43.703       32.035      896.390     1909.966     1026.242        0.319        0.192        7.653       32.519       18.056      337.484        9.490      868.449
10/31/2013  11:22:00       -0.834     -110.585       -2.702       34.650       37.502       28.081     1200.624     1406.401      788.551        0.782        0.170      110.588       22.834        0.043      336.932        8.566      868.443
10/31/2013  11:23:00       23.583      -26.977       32.433       27.787       66.160       42.309      772.123     4377.119     1790.016        0.464        0.347       35.832       47.106        1.728      337.271        9.133      868.435
10/31/2013  11:24:00       64.547       73.672       42.349       46.139       30.721       34.842     2128.762      943.802     1213.940        0.784        0.214       97.949       23.621        0.058      336.947        8.591      868.425
10/31/2013  11:25:00       42.366       -4.329       38.967       41.055       54.380       37.576     1685.537     2957.146     1411.957        0.469        0.303       42.586       38.529        0.819      336.973        8.634      868.422
10/31/2013  11:26:00       48.213       70.319       58.564       59.315       41.130       35.068     3518.249     1691.663     1229.750        0.857        0.322       85.260       34.511        0.164      337.035        8.739      868.406
10/31/2013  11:27:00      139.185       91.991       15.763       45.049       36.525       35.666     2029.402     1334.108     1272.038        1.636        0.232      166.837       18.916        0.013      336.844        8.418      868.403
10/31/2013  11:28:00       62.543       64.424       -4.557       56.140       40.181       32.202     3151.745     1614.489     1036.964        0.694        0.290       89.789       25.027        0.078      337.194        9.004      868.388
10/31/2013  11:29:00       40.957      109.152        0.260       51.200       58.935       42.258     2621.487     3473.354     1785.728        1.073        0.394      116.583       39.433        0.114      337.187        8.992      868.383
10/31/2013  11:30:00       -0.812       24.875       25.069       45.100       40.881       42.999     2034.022     1671.285     1848.908        0.340        0.278       24.888       32.720        1.728      337.685        9.826      868.377
10/31/2013  11:31:00       29.704       52.187       64.613       59.569       36.214       28.379     3548.445     1311.470      805.365        0.672        0.283       60.048       11.372        0.036      337.664        9.792      868.375
10/31/2013  11:32:00       79.379       64.375       75.870       33.899       39.304       26.639     1149.130     1544.823      709.648        0.980        0.170      102.201       26.528        0.067      337.074        8.802      868.375
10/31/2013  11:33:00      109.196       61.907        3.117       32.538       31.334       31.385     1058.716      981.808      985.026        0.940        0.151      125.524       14.182        0.013      336.827        8.391      868.372
10/31/2013  11:34:00       49.395       77.021        5.716       41.989       40.487       31.172     1763.108     1639.230      971.702        0.639        0.219       91.499       21.808        0.057      337.166        8.958      868.377
10/31/2013  11:35:00       18.674       43.914        5.645       27.895       32.019       21.650      778.145     1025.225      468.701        0.229        0.114       47.720       16.538        0.120      337.234        9.070      868.371
10/31/2013  11:36:00      -13.937       10.374       29.409       15.193       18.581       20.189      230.823      345.257      407.595        0.108        0.049       17.374       10.098        0.338      337.991       10.340      868.362
10/31/2013  11:37:00      -41.385       26.942       16.054       22.840       25.964       24.589      521.688      674.139      604.620        0.225        0.090       49.382       15.296        0.096      337.280        9.148      868.348
10/31/2013  11:38:00       39.648       33.215       31.970       56.163       30.199       30.813     3154.309      911.951      949.453        0.436        0.251       51.722       30.327        0.344      337.627        9.729      868.340
10/31/2013  11:39:00       42.591       -3.150       15.103       47.637       42.814       26.536     2269.288     1833.066      704.162        0.343        0.240       42.707       18.171        0.181      337.665        9.793      868.322
10/31/2013  11:40:00       68.397      105.475      103.865       57.415       51.302       51.250     3296.465     2631.871     2626.588        1.757        0.428      125.710       37.506        0.089      337.401        9.350      868.307
10/31/2013  11:41:00       86.569       54.546       42.187       54.459       43.686       54.613     2965.738     1908.480     2982.615        1.005        0.393      102.320       37.518        0.134      337.118        8.876      868.302
10/31/2013  11:42:00      154.061       89.202        6.500       50.997       44.855       42.124     2600.741     2011.943     1774.413        1.906        0.319      178.022       30.964        0.030      337.072        8.798      868.290
10/31/2013  11:43:00       51.212       50.806       29.803       52.362       32.351       42.790     2741.768     1046.618     1830.969        0.585        0.281       72.138       40.819        0.320      337.373        9.302      868.278
10/31/2013  11:44:00        7.350       89.970      100.491       40.382       60.829       41.294     1630.689     3700.160     1705.193        1.264        0.352       90.269       38.120        0.178      337.587        9.663      868.266
10/31/2013  11:45:00       52.131       71.628       99.967       44.951       51.424       27.152     2020.636     2644.410      737.217        1.162        0.270       88.591       28.531        0.104      337.401        9.350      868.266
10/31/2013  11:46:00       44.374       47.921       47.979       42.604       37.975       34.797     1815.087     1442.136     1210.838        0.552        0.223       65.310       29.358        0.202      337.618        9.715      868.249
10/31/2013  11:47:00       12.759       52.765       35.752       36.813       36.154       39.612     1355.182     1307.114     1569.127        0.423        0.212       54.286       22.480        0.171      338.112       10.543      868.245
10/31/2013  11:48:00       35.990       79.840       -5.829       47.387       43.662       36.906     2245.561     1906.379     1362.049        0.661        0.276       87.577       25.239        0.083      337.667        9.796      868.227
10/31/2013  11:49:00       58.473       67.733        9.284       57.610       51.729       30.889     3318.936     2675.912      954.145        0.752        0.347       89.481       18.575        0.043      337.719        9.884      868.219
10/31/2013  11:50:00       32.765       33.932       20.328       45.995       55.098       29.118     2115.569     3035.802      847.830        0.432        0.300       47.169       23.967        0.258      337.770        9.968      868.198
10/31/2013  11:51:00       38.392       94.980       -7.120       42.563       41.594       26.525     1811.632     1730.084      703.599        0.739        0.212      102.446       26.589        0.067      337.832       10.073      868.177
10/31/2013  11:52:00      -22.302       58.255       16.369       34.308       50.387       38.182     1177.019     2538.870     1457.878        0.467        0.259       62.378       36.898        0.350      337.943       10.260      868.165
10/31/2013  11:53:00       23.595      -13.968       -0.123       39.817       48.599       30.232     1585.419     2361.842      914.003        0.281        0.243       27.420       19.889        0.526      337.734        9.908      868.153
10/31/2013  11:54:00        3.091       55.503       -2.520       28.599       31.803       35.529      817.924     1011.459     1262.299        0.309        0.155       55.589       21.422        0.149      337.920       10.220      868.148
10/31/2013  11:55:00       55.637       57.315       34.984       68.424       39.578       34.438     4681.820     1566.447     1185.966        0.752        0.372       79.878       27.618        0.120      338.001       10.356      868.130
10/31/2013  11:56:00       42.595       40.567       17.894       34.474       30.686       22.097     1188.432      941.609      488.281        0.320        0.131       58.822       18.312        0.097      338.021       10.390      868.133
10/31/2013  11:57:00       53.202       63.425       47.780       63.114       53.149       57.843     3983.408     2824.813     3345.798        0.964        0.508       82.784       47.422        0.328      337.853       10.108      868.111
10/31/2013  11:58:00      144.956       79.714       66.667       49.599       71.611       57.368     2460.057     5128.080     3291.077        2.134        0.544      165.428       49.114        0.088      337.487        9.494      868.117
10/31/2013  11:59:00       76.726        9.771       -2.216       32.396       24.719       27.526     1049.521      611.033      757.672        0.420        0.121       77.345       14.609        0.036      337.369        9.297      868.126
10/31/2013  12:00:00       -8.521       19.664        0.978       22.605       27.662       23.401      510.968      765.199      547.601        0.114        0.091       21.431       10.609        0.245      337.583        9.655      868.121
10/31/2013  12:01:00      -41.663       20.376      -21.196       27.663       34.765       19.051      765.261     1208.577      362.931        0.247        0.117       46.378        7.644        0.027      337.395        9.341      868.110
10/31/2013  12:02:00       -7.429        9.469       -3.200       39.638       32.519       24.028     1571.188     1057.500      577.338        0.168        0.160       12.035       24.261        4.064      337.585        9.659      868.092
10/31/2013  12:03:00       95.471      103.396       66.439       76.733       56.948       54.847     5888.024     3243.089     3008.213        1.818        0.607      140.732       33.055        0.055      337.865       10.125      868.087
10/31/2013  12:04:00      144.085      124.095       74.670       57.762       44.294       57.598     3336.498     1961.936     3317.566        2.517        0.431      190.158       47.135        0.061      337.452        9.432      868.071
10/31/2013  12:05:00       60.608       63.288       67.310       54.188       51.361       52.547     2936.285     2637.933     2761.178        1.027        0.417       87.628       53.640        0.375      337.698        9.847      868.069
10/31/2013  12:06:00       83.619       89.867       67.321       44.539       62.710       52.149     1983.745     3932.584     2719.488        1.412        0.432      122.753       43.433        0.125      337.670        9.802      868.072
10/31/2013  12:07:00       15.809       16.483       49.591       35.630       47.435       28.391     1269.516     2250.119      806.044        0.365        0.216       22.839       28.515        1.559      338.153       10.613      868.066
10/31/2013  12:08:00       83.634        1.823       38.346       56.054       78.952       40.119     3142.065     6233.343     1609.556        0.972        0.549       83.654       31.997        0.146      337.948       10.268      868.064
10/31/2013  12:09:00      166.860      105.948       34.386       59.755       38.032       41.452     3570.666     1446.468     1718.265        2.349        0.337      197.655       22.645        0.013      337.528        9.561      868.056
10/31/2013  12:10:00       96.138       48.902       15.881       40.092       34.005       31.658     1607.372     1156.327     1002.260        0.783        0.188      107.861       25.662        0.057      337.439        9.413      868.064
10/31/2013  12:11:00       29.941       65.870       -1.371       30.028       34.669       25.209      901.707     1201.919      635.471        0.399        0.137       72.356       24.652        0.116      337.672        9.805      868.061
10/31/2013  12:12:00      -23.667       51.519      -10.962       28.415       34.669       26.148      807.423     1201.942      683.706        0.301        0.135       56.695       23.169        0.167      337.887       10.164      868.044
10/31/2013  12:13:00       33.162       19.444       24.642       48.000       17.812       24.151     2304.029      317.267      583.254        0.264        0.160       38.442       14.192        0.136      338.202       10.694      868.033
10/31/2013  12:14:00       26.618       55.927       75.171       43.644       53.722       41.848     1904.805     2886.100     1751.295        0.801        0.327       61.939       39.290        0.402      338.150       10.605      868.021
10/31/2013  12:15:00       93.484       59.682       80.099       98.872       76.203       54.219     9775.580     5806.902     2939.662        1.862        0.926      110.911       52.426        0.223      337.926       10.231      868.016
10/31/2013  12:16:00        7.643       23.571       69.423       52.377       50.656       38.047     2743.346     2566.013     1447.567        0.609        0.338       24.779       26.495        1.143      338.516       11.222      868.016
10/31/2013  12:17:00       54.292       36.284       52.826       32.457       79.906       43.580     1053.425     6384.891     1899.240        0.819        0.467       65.300       49.140        0.566      338.067       10.466      868.016
10/31/2013  12:18:00       20.516        1.813       20.550       23.971       52.747       18.916      574.594     2782.225      357.810        0.228        0.186       20.596       10.278        0.249      338.351       10.944      868.028
10/31/2013  12:19:00        8.474       12.979       80.278       36.979       93.879       54.674     1367.417     8813.246     2989.251        0.993        0.658       15.500       56.241       13.166      338.438       11.091      868.028
10/31/2013  12:20:00      100.935      100.921      104.708       66.442       61.789       58.229     4414.519     3817.830     3390.617        2.148        0.581      142.734       52.951        0.138      337.858       10.114      868.034
10/31/2013  12:21:00       37.477        7.130       27.146       64.803       37.860       31.860     4199.378     1433.352     1015.074        0.442        0.332       38.149       34.923        0.838      338.108       10.537      868.050
10/31/2013  12:22:00        6.938       -7.858        6.132       26.882       34.150       24.591      722.623     1166.242      604.735        0.132        0.125       10.483       10.321        0.969      338.440       11.093      868.030
10/31/2013  12:23:00       69.949       61.901       16.471       49.140       45.524       40.721     2414.742     2072.461     1658.172        0.757        0.307       93.405       23.111        0.061      338.289       10.840      868.027
10/31/2013  12:24:00       88.610       76.625       47.037       41.898       32.361       33.871     1755.462     1047.245     1147.216        0.994        0.197      117.146       22.263        0.036      338.222       10.727      868.016
10/31/2013  12:25:00       -6.619       37.694       47.597       27.866       43.485       39.608      776.530     1890.973     1568.825        0.398        0.212       38.270       27.583        0.519      338.855       11.790      868.003
10/31/2013  12:26:00       60.853       62.535       28.329       68.604       41.370       43.692     4706.520     1711.459     1909.010        0.837        0.416       87.257       40.483        0.215      338.518       11.224      868.010
10/31/2013  12:27:00       88.333       75.699        1.616       33.645       34.029       31.239     1132.017     1157.942      975.850        0.840        0.163      116.332       22.755        0.038      337.878       10.150      868.003
10/31/2013  12:28:00        4.755        5.852       -8.732       33.537       47.103       29.249     1124.750     2218.716      855.498        0.217        0.210        7.541       23.612        9.804      338.381       10.994      867.997
10/31/2013  12:29:00       55.888      -57.855        7.263       42.398       51.232       39.325     1797.573     2624.701     1546.428        0.625        0.298       80.441       41.676        0.268      338.321       10.894      868.006
10/31/2013  12:30:00       37.997      -61.533       -5.184       27.366       43.733       33.391      748.876     1912.590     1114.964        0.452        0.189       72.320       32.489        0.202      338.143       10.595      867.994
10/31/2013  12:31:00       62.608       46.598       18.012       50.048       40.924       41.572     2504.848     1674.736     1728.210        0.616        0.295       78.045       28.016        0.129      338.295       10.849      867.986
10/31/2013  12:32:00       44.534       49.486       21.299       58.378       39.598       37.417     3408.024     1567.993     1400.022        0.563        0.319       66.575       24.736        0.138      338.190       10.673      867.987
10/31/2013  12:33:00       10.836       37.495        0.241       24.802       28.894       25.779      615.117      834.839      664.545        0.182        0.106       39.030       18.207        0.218      338.299       10.856      867.970
10/31/2013  12:34:00      -12.402       70.223       -4.235       23.928       35.066       25.880      572.561     1229.624      669.771        0.379        0.124       71.310       11.087        0.024      338.251       10.776      867.960
10/31/2013  12:35:00       41.516       45.515        3.127       29.070       21.537       25.585      845.053      463.855      654.616        0.288        0.098       61.604       13.860        0.051      338.422       11.062      867.940
10/31/2013  12:36:00       67.042       41.206       56.878       73.542       64.152       46.968     5408.380     4115.468     2205.960        1.058        0.586       78.693       53.099        0.455      338.508       11.206      867.920
10/31/2013  12:37:00       10.289       52.411       74.417       48.434       67.164       51.623     2345.886     4510.984     2664.931        0.895        0.476       53.411       46.600        0.761      338.586       11.338      867.901
10/31/2013  12:38:00      178.708       97.705       23.115       66.350       42.639       46.740     4402.282     1818.101     2184.659        2.521        0.420      203.673       30.252        0.022      338.230       10.739      867.888
10/31/2013  12:39:00      156.473      114.463       30.222       32.722       29.077       33.539     1070.729      845.455     1124.862        2.077        0.152      193.870       11.794        0.004      337.897       10.180      867.886
10/31/2013  12:40:00       67.227      101.223       -5.330       47.063       50.955       30.466     2214.914     2596.430      928.191        1.027        0.287      121.513       22.092        0.033      338.013       10.376      867.884
10/31/2013  12:41:00       53.640      122.347      -11.139       42.720       75.905       46.976     1825.021     5761.531     2206.781        1.388        0.490      133.590       52.036        0.152      338.196       10.682      867.862
10/31/2013  12:42:00       80.716       85.857       45.312       73.978       41.811       62.855     5472.796     1748.183     3950.770        1.355        0.559      117.841       47.894        0.165      338.480       11.160      867.855
10/31/2013  12:43:00        4.281      116.007      131.179       34.499       45.215       25.401     1190.157     2044.426      645.189        1.728        0.194      116.086       28.126        0.059      338.423       11.065      867.853
10/31/2013  12:44:00       86.986       76.507       26.186       50.236       50.380       52.564     2523.612     2538.160     2762.979        1.096        0.391      115.844       39.513        0.116      338.097       10.517      867.844
10/31/2013  12:45:00       28.996      109.092      -10.748       29.839       49.999       30.631      890.358     2499.859      938.281        0.859        0.216      112.880       24.546        0.047      338.145       10.598      867.825
10/31/2013  12:46:00       17.152       46.514        7.938       27.103       47.994       30.418      734.556     2303.415      925.271        0.324        0.198       49.575       30.529        0.379      338.595       11.354      867.806
10/31/2013  12:47:00      -13.799      -24.091       12.639       20.026       23.939       17.742      401.039      573.076      314.779        0.111        0.064       27.763        9.562        0.119      338.931       11.917      867.800
10/31/2013  12:48:00        2.098     -106.890      -12.770       48.449       43.539       38.057     2347.304     1895.618     1448.363        0.864        0.285      106.910       33.592        0.099      338.600       11.361      867.790
10/31/2013  12:49:00       31.177      -55.540        9.942       44.867       61.330       45.771     2013.088     3761.387     2094.957        0.601        0.393       63.692       52.006        0.667      338.528       11.241      867.773
10/31/2013  12:50:00      -17.499       23.344       36.903       27.308       34.950       37.698      745.741     1221.515     1421.117        0.280        0.169       29.174       33.215        1.296      339.013       12.055      867.749
10/31/2013  12:51:00       12.401       13.067       56.121       30.563       74.248       33.918      934.107     5512.756     1150.454        0.553        0.380       18.015       30.741        2.912      339.084       12.174      867.731
10/31/2013  12:52:00       41.602       55.472       64.010       45.719       42.021       27.144     2090.260     1765.723      736.786        0.675        0.230       69.339       19.504        0.079      338.639       11.427      867.718
10/31/2013  12:53:00       79.385      -50.228       18.913       72.217       53.828       41.520     5215.357     2897.501     1723.928        0.951        0.492       93.940       44.631        0.226      338.732       11.584      867.699
10/31/2013  12:54:00       68.222      -78.443       -5.433       42.963       61.124       41.849     1845.811     3736.123     1751.375        0.908        0.367      103.959       37.053        0.127      338.630       11.411      867.684
10/31/2013  12:55:00       35.877     -106.742       -1.191       51.588       86.940       45.941     2661.286     7558.575     2110.563        1.250        0.617      112.610       40.325        0.128      338.875       11.824      867.659
10/31/2013  12:56:00       92.354     -131.963      -34.269       41.248       62.184       30.652     1701.402     3866.844      939.526        1.681        0.325      161.070       28.577        0.031      338.331       10.909      867.651
10/31/2013  12:57:00       21.728      -17.482       44.986       46.413       34.973       44.744     2154.169     1223.112     2002.052        0.409        0.269       27.888       34.822        1.559      338.954       11.957      867.642
10/31/2013  12:58:00       61.631       -2.992       31.871       34.284       44.906       35.105     1175.413     2016.585     1232.349        0.462        0.221       61.704       32.264        0.273      338.499       11.193      867.636
10/31/2013  12:59:00       49.314      -88.073       25.071       43.113       80.867       48.140     1858.740     6539.515     2317.443        1.076        0.536      100.939       47.482        0.221      338.781       11.667      867.624
10/31/2013  13:00:00       45.301      -23.324       21.726       36.305       48.724       28.098     1318.039     2374.024      789.490        0.377        0.224       50.953       32.864        0.416      339.003       12.039      867.630
10/31/2013  13:01:00       50.717       65.177       -1.945       64.011       52.719       37.882     4097.459     2779.341     1435.030        0.757        0.416       82.585       24.636        0.089      338.935       11.925      867.611
10/31/2013  13:02:00       86.561       57.506        7.498       53.833       39.774       36.586     2897.979     1582.010     1338.509        0.834        0.291      103.921       24.945        0.058      338.876       11.826      867.596
10/31/2013  13:03:00       12.273       21.173        6.464       39.733       28.246       22.769     1578.675      797.848      518.413        0.177        0.145       24.473       15.881        0.421      339.151       12.288      867.574
10/31/2013  13:04:00       38.030       30.903       35.249       41.560       48.450       45.257     1727.226     2347.375     2048.187        0.488        0.306       49.003       26.653        0.296      339.263       12.476      867.556
10/31/2013  13:05:00       44.683      -36.477       13.538       48.752       58.459       37.618     2376.713     3417.452     1415.110        0.536        0.360       57.681       32.369        0.315      338.932       11.919      867.551
10/31/2013  13:06:00       49.583      -87.570       -8.528       69.807       66.040       45.152     4873.048     4361.338     2038.740        1.073        0.564      100.633       41.775        0.172      338.788       11.678      867.547
10/31/2013  13:07:00       52.381      -89.046      -15.495       32.634       55.850       31.866     1065.010     3119.237     1015.436        0.806        0.260      103.310       26.080        0.064      338.878       11.829      867.535
10/31/2013  13:08:00      118.322     -183.727      -18.099       48.732       46.146       27.229     2374.824     2129.470      741.440        2.666        0.262      218.531       17.674        0.007      338.638       11.422      867.523
10/31/2013  13:09:00       51.623      -55.169       34.122       71.745       94.362       67.465     5147.332     8904.181     4551.490        1.273        0.930       75.555       62.968        0.695      338.941       11.934      867.507
10/31/2013  13:10:00       87.331      -67.301       26.242       59.847       63.113       42.186     3581.649     3983.306     1779.629        1.109        0.467      110.254       42.554        0.149      338.975       11.994      867.492
10/31/2013  13:11:00       59.377      -71.279        3.152       32.512       29.758       29.674     1057.049      885.559      880.529        0.572        0.141       92.770       20.672        0.050      338.663       11.466      867.488
10/31/2013  13:12:00       46.397      -50.978        2.479       44.006       78.398       39.135     1936.552     6146.251     1531.525        0.718        0.481       68.931       34.513        0.251      339.009       12.048      867.471
10/31/2013  13:13:00      -22.919      -46.392       -1.400       26.203       31.813       23.752      686.606     1012.055      564.177        0.247        0.113       51.744       16.272        0.099      339.281       12.504      867.460
10/31/2013  13:14:00      -17.974      -23.604       21.410       28.709       42.394       41.903      824.182     1797.289     1755.828        0.286        0.219       29.668       35.344        1.419      339.692       13.199      867.445
10/31/2013  13:15:00       56.083      -73.102        8.316       53.225       90.420       42.743     2832.852     8175.852     1826.953        1.069        0.642       92.136       57.915        0.395      339.224       12.413      867.453
10/31/2013  13:16:00        0.868       -5.564       31.437       25.165       35.142       31.551      633.267     1234.956      995.442        0.194        0.143        5.631       25.380       20.312      339.430       12.758      867.448
10/31/2013  13:17:00       53.849     -143.717      -16.416       37.831       33.851       28.400     1431.188     1145.902      806.564        1.360        0.169      153.474       11.572        0.006      338.953       11.955      867.428
10/31/2013  13:18:00       13.659      -45.187       13.666       43.565       46.075       30.804     1897.878     2122.903      948.860        0.369        0.248       47.206       35.969        0.581      339.320       12.573      867.408
10/31/2013  13:19:00       -4.451      -20.579       13.221       59.224       74.682       42.157     3507.473     5577.446     1777.230        0.574        0.543       21.055       11.479        0.297      339.563       12.982      867.397
10/31/2013  13:20:00       25.319       34.452       36.685       48.774       44.102       47.745     2378.871     1945.004     2279.553        0.489        0.330       42.755       25.369        0.352      339.475       12.834      867.383
10/31/2013  13:21:00       11.743       21.036       36.625       26.386       42.878       33.419      696.208     1838.491     1116.849        0.279        0.183       24.092       29.274        1.476      339.484       12.850      867.376
10/31/2013  13:22:00       43.828       53.831       54.612       58.359       64.472       55.390     3405.725     4156.584     3068.048        0.921        0.532       69.417       47.407        0.466      339.176       12.331      867.365
10/31/2013  13:23:00       22.115       22.169       68.230       51.202       67.954       40.695     2621.596     4617.689     1656.101        0.726        0.445       31.314       43.726        1.950      339.377       12.668      867.352
10/31/2013  13:24:00      149.953      115.691       81.143       99.699       76.356       71.979     9939.881     5830.219     5180.953        3.170        1.048      189.395       39.910        0.044      339.022       12.068      867.319
10/31/2013  13:25:00       28.395       75.444       95.527       47.107       45.743       50.032     2219.060     2092.413     2503.161        1.122        0.341       80.611       28.963        0.129      339.215       12.397      867.321
10/31/2013  13:26:00       44.611       -2.260        9.264       33.226       29.590       29.014     1103.972      875.550      841.791        0.245        0.141       44.668       13.318        0.089      338.861       11.801      867.326
10/31/2013  13:27:00       81.842       59.072        7.371       42.627       32.262       37.575     1817.030     1040.820     1411.912        0.726        0.213      100.934       25.189        0.062      338.863       11.803      867.305
10/31/2013  13:28:00       73.949       31.752        9.120       26.000       18.620       24.798      676.005      346.704      614.965        0.410        0.082       80.478       13.224        0.027      338.846       11.775      867.300
10/31/2013  13:29:00      -14.543       36.107       -9.307       26.689       24.719       20.741      712.313      611.023      430.173        0.168        0.088       38.926       14.383        0.137      339.107       12.214      867.288
10/31/2013  13:30:00       35.870       55.429       11.291       29.777       36.887       31.043      886.699     1360.686      963.676        0.385        0.161       66.023       25.013        0.144      339.004       12.042      867.269
10/31/2013  13:31:00       11.350       81.692        1.760       36.662       33.007       33.384     1344.124     1089.463     1114.516        0.518        0.177       82.476       26.063        0.100      339.100       12.203      867.253
10/31/2013  13:32:00        6.381       69.626      -12.528       38.855       28.674       23.819     1509.704      822.178      567.337        0.397        0.145       69.918       18.544        0.070      338.978       11.997      867.243
10/31/2013  13:33:00      -25.663       25.596        1.096       35.200       26.030       28.290     1239.010      677.537      800.322        0.202        0.136       36.245       24.712        0.465      339.387       12.687      867.230
10/31/2013  13:34:00       38.995       25.061       -5.052       18.179       16.991       16.964      330.469      288.693      287.769        0.154        0.045       46.354       11.158        0.058      339.273       12.492      867.221
10/31/2013  13:35:00      -16.147       58.724        1.364       19.577       42.910       23.173      383.246     1841.249      536.977        0.324        0.138       60.903       13.338        0.048      339.502       12.880      867.190
10/31/2013  13:36:00       22.109       35.805       36.774       38.731       35.840       46.108     1500.074     1284.481     2125.964        0.402        0.246       42.081       29.027        0.476      339.684       13.186      867.182
10/31/2013  13:37:00      102.165       80.064       49.270       57.041       48.904       59.380     3253.731     2391.620     3525.991        1.422        0.459      129.800       45.450        0.123      339.156       12.295      867.165
10/31/2013  13:38:00       72.421       28.509        8.049       52.479       30.014       29.506     2754.088      900.821      870.618        0.532        0.226       77.831       20.090        0.067      339.085       12.177      867.140
10/31/2013  13:39:00       35.607       12.221        1.087       40.970       33.359       25.594     1678.523     1112.849      655.038        0.243        0.172       37.646        7.637        0.041      339.473       12.831      867.123
10/31/2013  13:40:00       91.964       42.885        7.145       37.196       41.900       28.538     1383.555     1755.590      814.413        0.715        0.198      101.472       19.284        0.036      339.434       12.766      867.115
10/31/2013  13:41:00       86.530      -44.296       -0.565       60.487       41.263       33.013     3658.715     1702.606     1089.844        0.795        0.323       97.209       33.936        0.122      339.261       12.475      867.107
10/31/2013  13:42:00       55.024      -19.442       17.083       42.938       88.642       39.625     1843.701     7857.319     1570.131        0.748        0.564       58.358       41.987        0.518      339.203       12.375      867.090
10/31/2013  13:43:00       63.850      -83.385        2.437       34.479       59.682       28.836     1188.814     3561.894      831.501        0.831        0.279      105.024       34.119        0.106      339.366       12.650      867.081
10/31/2013  13:44:00       70.873      -88.993       -6.330       36.835       44.003       29.922     1356.782     1936.291      895.352        0.858        0.209      113.766       14.656        0.017      339.375       12.665      867.055
10/31/2013  13:45:00        6.848      -18.442       48.725       46.016       73.122       39.155     2117.445     5346.832     1533.080        0.588        0.450       19.672       43.168        4.815      340.167       14.001      867.033
10/31/2013  13:46:00       76.115      -25.154       44.788       80.435       91.058       63.752     6469.782     8291.630     4064.279        1.363        0.941       80.164       58.814        0.538      339.811       13.400      867.025
10/31/2013  13:47:00      145.733     -193.199      -37.343       65.205       68.793       39.783     4251.637     4732.451     1582.661        3.526        0.528      242.000       25.772        0.011      339.265       12.477      867.013
10/31/2013  13:48:00       16.529       46.166       65.292       48.205       51.208       54.029     2323.759     2622.262     2919.172        0.727        0.393       49.036       50.662        1.067      339.686       13.191      867.023
10/31/2013  13:49:00       23.146       13.480       54.732       48.515       56.738       29.358     2353.706     3219.237      861.865        0.507        0.322       26.785       36.993        1.907      339.649       13.127      867.018
10/31/2013  13:50:00      -49.241       19.016        5.790       31.453       33.766       28.979      989.285     1140.111      839.782        0.289        0.148       52.785       17.006        0.104      339.704       13.219      866.994
10/31/2013  13:51:00        2.786       23.176       11.917       17.395       25.813       18.386      302.598      666.300      338.031        0.100        0.065       23.343        9.513        0.166      340.011       13.739      866.994
10/31/2013  13:52:00       60.738      -59.216       -0.227       54.891       72.710       29.627     3012.974     5286.775      877.788        0.819        0.459       84.827       25.712        0.092      339.746       13.291      866.992
10/31/2013  13:53:00       67.417     -189.962      -10.086       44.986       54.499       25.494     2023.710     2970.130      649.949        2.319        0.282      201.570       17.125        0.007      339.365       12.645      866.976
10/31/2013  13:54:00       70.156     -214.554        6.670       49.979       65.043       39.815     2497.862     4230.610     1585.250        2.966        0.416      225.733       36.960        0.027      339.517       12.902      866.968
10/31/2013  13:55:00       28.672      -55.617        3.560       56.355       50.455       38.415     3175.907     2545.695     1475.748        0.556        0.360       62.573       38.222        0.373      339.822       13.419      866.973
10/31/2013  13:56:00      -39.165      -23.595       -6.662       49.493       33.298       31.041     2449.535     1108.747      963.518        0.333        0.226       45.723       14.546        0.101      339.828       13.429      866.948
10/31/2013  13:57:00       24.345       52.814       62.177       43.431       48.612       47.691     1886.271     2363.119     2274.391        0.688        0.326       58.155       35.784        0.379      340.226       14.100      866.933
10/31/2013  13:58:00       33.123      -97.570       42.747       52.031      107.052       51.031     2707.275    11460.054     2604.195        1.461        0.839      103.039       61.099        0.352      339.929       13.597      866.918
10/31/2013  13:59:00       38.289      -48.352       45.319       48.749       68.483       46.583     2376.447     4689.929     2169.948        0.755        0.462       61.676       46.384        0.566      340.018       13.750      866.907
10/31/2013  14:00:00       97.633     -113.472       -5.718       58.189       81.581       47.556     3385.995     6655.417     2261.561        1.737        0.615      149.693       45.062        0.091      339.570       12.992      866.895
10/31/2013  14:01:00       73.534     -165.917      -19.657       64.672       56.206       37.090     4182.454     3159.098     1375.661        2.102        0.436      181.482       32.969        0.033      339.483       12.846      866.891
10/31/2013  14:02:00       51.586       19.329       50.040       58.709       67.392       50.963     3446.714     4541.682     2597.216        0.806        0.529       55.089       51.751        0.882      339.733       13.269      866.883
10/31/2013  14:03:00       51.716       32.780       44.428       47.902       51.632       40.269     2294.555     2665.894     1621.613        0.615        0.329       61.230       29.546        0.233      339.725       13.255      866.858
10/31/2013  14:04:00       41.134       16.072       47.756       57.780       48.928       42.358     3338.579     2393.993     1794.220        0.588        0.376       44.162       38.841        0.774      339.760       13.314      866.861
10/31/2013  14:05:00       39.740       32.070       18.624       12.591       12.597       17.359      158.521      158.689      301.338        0.179        0.031       51.066        7.916        0.024      339.393       12.695      866.863
10/31/2013  14:06:00       16.511      -47.486       20.530       28.141       64.173       32.768      791.902     4118.214     1073.742        0.447        0.299       50.274       33.646        0.448      339.891       13.536      866.856
10/31/2013  14:07:00       86.846      -65.341        1.963       61.933       93.690       56.611     3835.647     8777.793     3204.783        1.381        0.791      108.682       60.889        0.314      339.896       13.541      866.832
10/31/2013  14:08:00       12.763       39.448       70.548       32.974       45.886       33.993     1087.285     2105.519     1155.499        0.552        0.217       41.461       29.984        0.523      339.951       13.636      866.837
10/31/2013  14:09:00       19.015        5.416       -7.632       19.775       48.902       13.495      391.051     2391.371      182.108        0.171        0.148       19.771       13.155        0.443      339.478       12.839      866.833
10/31/2013  14:10:00       15.884       27.785       20.477       18.497       18.751       19.552      342.151      351.612      382.268        0.126        0.054       32.005        8.878        0.077      339.967       13.664      866.811
10/31/2013  14:11:00       48.799       37.893        9.316       21.232       17.789       23.226      450.803      316.455      539.429        0.261        0.065       61.783        9.079        0.022      339.586       13.021      866.792
10/31/2013  14:12:00       46.317       26.101       17.280       22.539       16.643       19.655      508.018      277.002      386.304        0.215        0.059       53.165       10.031        0.036      339.626       13.089      866.785
10/31/2013  14:13:00       32.076       25.139       20.958       30.614       28.959       22.953      937.219      838.645      526.842        0.220        0.115       40.753       23.337        0.328      340.027       13.764      866.788
10/31/2013  14:14:00       15.846       14.783        7.680       23.708       56.195       33.655      562.078     3157.844     1132.660        0.269        0.243       21.671       21.847        1.016      340.040       13.787      866.785
10/31/2013  14:15:00       29.791      -49.563       10.175       43.262       65.697       43.711     1871.573     4316.066     1910.640        0.577        0.405       57.827       45.291        0.613      340.069       13.835      866.779
10/31/2013  14:16:00       11.005      -65.707       -7.428       28.242       34.623       23.190      797.590     1198.727      537.758        0.351        0.127       66.622       14.079        0.045      340.100       13.887      866.771
10/31/2013  14:17:00       50.475      -50.270       12.274       64.492       92.854       48.560     4159.270     8621.783     2358.054        1.018        0.757       71.238       50.829        0.509      339.971       13.670      866.772
10/31/2013  14:18:00       44.354       68.430       75.090       77.785       55.743       60.203     6050.478     3107.305     3624.394        1.253        0.639       81.547       51.905        0.405      340.048       13.799      866.771
10/31/2013  14:19:00       93.784      -22.682       26.107       68.292       62.943       54.487     4663.834     3961.850     2968.781        1.079        0.580       96.488       53.770        0.311      339.929       13.599      866.775
10/31/2013  14:20:00       69.142       32.201       74.750       87.592       77.007       53.395     7672.397     5930.104     2851.055        1.393        0.823       76.273       55.188        0.524      340.045       13.796      866.762
10/31/2013  14:21:00       71.622      128.026       96.191       43.019       41.751       48.021     1850.631     1743.174     2305.974        1.834        0.295      146.698       32.319        0.049      339.743       13.285      866.758
10/31/2013  14:22:00        7.544       25.794       53.335       49.322       53.520       35.906     2432.673     2864.410     1289.210        0.508        0.329       26.874       40.288        2.247      340.437       14.456      866.749
10/31/2013  14:23:00       34.631      -72.424        9.057       75.813       52.075       40.061     5747.662     2711.795     1604.845        0.829        0.503       80.277       37.498        0.218      340.274       14.182      866.737
10/31/2013  14:24:00       52.148      -49.952       30.102       43.333       47.413       37.763     1877.783     2247.971     1426.054        0.584        0.278       72.213       33.474        0.215      340.262       14.161      866.718
10/31/2013  14:25:00        9.439       30.258       10.824       22.897       25.828       29.530      524.294      667.096      872.023        0.159        0.103       31.696       18.628        0.345      340.043       13.791      866.703
10/31/2013  14:26:00       -3.339        5.596       12.511       41.594       27.966       26.266     1730.043      782.082      689.889        0.170        0.160        6.516       20.041        9.459      340.397       14.389      866.683
10/31/2013  14:27:00       -5.294       62.531       -5.397       29.190       58.871       21.645      852.046     3465.781      468.485        0.438        0.239       62.754       22.413        0.128      340.143       13.961      866.665
10/31/2013  14:28:00      -34.670       29.882        9.505       29.958       34.253       24.188      897.476     1173.238      585.044        0.242        0.133       45.770       19.413        0.180      340.335       14.284      866.644
10/31/2013  14:29:00        8.145      -14.045       18.047       16.277       26.498       18.207      264.955      702.160      331.495        0.094        0.065       16.236       14.844        0.836      340.472       14.517      866.645
10/31/2013  14:30:00       40.981       -4.944        9.362       53.884       22.693       15.151     2903.480      514.951      229.560        0.272        0.182       41.278       17.937        0.189      340.416       14.422      866.648
10/31/2013  14:31:00       30.715      -36.384        9.565       42.451       39.040       25.271     1802.128     1524.128      638.645        0.316        0.198       47.615       19.679        0.171      340.386       14.372      866.645
10/31/2013  14:32:00        7.477      -91.489        1.129       43.179       45.652       32.405     1864.399     2084.113     1050.078        0.671        0.250       91.794       30.973        0.114      340.465       14.504      866.629
10/31/2013  14:33:00       45.124      -43.964       16.938       57.938       67.917       33.831     3356.790     4612.725     1144.564        0.668        0.456       63.000       43.262        0.472      340.440       14.463      866.613
10/31/2013  14:34:00       15.080      -37.685       21.872       50.660       62.415       46.123     2566.460     3895.694     2127.346        0.536        0.429       40.590       49.776        1.504      340.339       14.292      866.597
10/31/2013  14:35:00      111.613       75.474       17.624       69.089       48.976       33.919     4773.316     2398.649     1150.466        1.339        0.416      134.736       32.076        0.057      340.196       14.050      866.579
10/31/2013  14:36:00       37.704       -9.840       26.059       30.304       53.421       34.434      918.348     2853.775     1185.687        0.358        0.248       38.967       11.316        0.084      340.221       14.093      866.573
10/31/2013  14:37:00       15.755      -29.267       12.928       24.757       27.416       30.962      612.933      751.654      958.648        0.180        0.116       33.239       20.794        0.391      340.491       14.548      866.563
10/31/2013  14:38:00        2.518      -43.830       -2.331       36.786       26.184       29.517     1353.213      685.619      871.233        0.242        0.146       43.902       13.679        0.097      340.629       14.781      866.565
10/31/2013  14:39:00       29.344        6.426       25.180       53.567       53.792       52.110     2869.418     2893.551     2715.425        0.501        0.424       30.040       45.596        2.304      340.585       14.707      866.549
10/31/2013  14:40:00      -41.156      -79.348        6.876       29.671       48.711       31.932      880.345     2372.725     1019.646        0.615        0.214       89.386       24.750        0.077      340.342       14.296      866.531
10/31/2013  14:41:00      -53.502      -41.254       -1.887       66.483       44.538       25.439     4419.928     1983.667      647.157        0.581        0.353       67.561       21.647        0.103      340.396       14.388      866.512
10/31/2013  14:42:00       31.828     -121.599      -25.835       26.373       49.897       23.600      695.516     2489.731      556.936        1.010        0.187      125.695       20.873        0.028      340.191       14.043      866.500
10/31/2013  14:43:00        6.286      -98.613       -7.404       46.447       34.238       29.618     2157.368     1172.213      877.219        0.701        0.210       98.813       17.569        0.032      340.247       14.136      866.462
10/31/2013  14:44:00       -0.711      -62.264        6.547       46.273       50.303       42.683     2141.154     2530.363     1821.876        0.521        0.325       62.268       35.568        0.326      340.455       14.486      866.434
10/31/2013  14:45:00       14.540      -47.692       13.286       38.733       38.838       29.920     1500.250     1508.392      895.202        0.328        0.195       49.859       22.655        0.206      340.311       14.244      866.431
10/31/2013  14:46:00       59.928      -17.526       17.899       33.342       52.486       26.092     1111.690     2754.773      680.806        0.438        0.227       62.438       25.441        0.166      340.326       14.269      866.415
10/31/2013  14:47:00       36.868       26.101       -5.494       28.657       22.182       22.260      821.217      492.037      495.526        0.194        0.090       45.173       14.355        0.101      340.092       13.874      866.403
10/31/2013  14:48:00      -13.612        6.492       -6.837       28.304       55.717       17.933      801.128     3104.346      321.605        0.225        0.211       15.081       19.823        1.728      340.422       14.431      866.399
10/31/2013  14:49:00       42.734      -19.471       33.576       44.507       74.467       49.649     1980.879     5545.326     2465.060        0.666        0.500       46.961       53.991        1.322      340.701       14.904      866.402
10/31/2013  14:50:00       22.750       34.959       89.995       52.182       91.094       52.141     2722.918     8298.101     2718.729        1.179        0.687       41.710       58.727        1.982      340.609       14.747      866.391
10/31/2013  14:51:00      111.595      -75.730       25.300       82.029       88.184       61.123     6728.792     7776.485     3735.998        1.853        0.912      134.865       72.264        0.287      340.388       14.373      866.383
10/31/2013  14:52:00       57.827     -106.145       -5.171       51.103       68.375       36.477     2611.479     4675.133     1330.562        1.163        0.431      120.874       39.538        0.107      340.291       14.211      866.385
10/31/2013  14:53:00      120.786     -167.189      -19.431       43.409       41.877       24.288     1884.348     1753.677      589.896        2.357        0.211      206.256       25.364        0.015      340.032       13.769      866.374
10/31/2013  14:54:00       90.699     -114.537       -8.991       38.210       27.434       22.304     1460.025      752.630      497.473        1.207        0.136      146.099       18.611        0.016      340.070       13.837      866.365
10/31/2013  14:55:00       49.529      -68.554       -5.027       23.689       35.901       26.175      561.191     1288.872      685.106        0.486        0.127       84.574       19.079        0.051      340.214       14.081      866.365
10/31/2013  14:56:00       73.284      -78.618        8.604       54.217       70.977       41.390     2939.483     5037.755     1713.107        1.066        0.485      107.477       46.211        0.185      340.143       13.961      866.364
10/31/2013  14:57:00       84.576       11.886       55.467       71.251       38.049       34.931     5076.759     1447.756     1220.141        0.906        0.387       85.407       33.272        0.152      340.318       14.255      866.346
10/31/2013  14:58:00       58.812       36.126       70.734       61.188      112.177       60.140     3743.965    12583.791     3616.869        1.485        0.997       69.021       66.704        0.934      340.471       14.514      866.327
10/31/2013  14:59:00      116.692     -112.673       -1.999       68.199       97.436       54.663     4651.107     9493.830     2988.018        2.172        0.857      162.210       66.815        0.170      340.262       14.159      866.322
10/31/2013  15:00:00      120.362     -139.845      -26.435       64.305       85.530       50.700     4135.149     7315.410     2570.493        2.438        0.701      184.509       53.176        0.083      340.192       14.040      866.314
10/31/2013  15:01:00       70.239     -100.674        1.025       38.257       76.984       55.547     1463.612     5926.522     3085.461        1.277        0.524      122.755       61.963        0.255      340.263       14.162      866.302
10/31/2013  15:02:00       23.435       -9.668       39.295       35.766       72.177       44.269     1279.238     5209.524     1959.753        0.532        0.422       25.351       50.699        4.000      340.511       14.582      866.282
10/31/2013  15:03:00        5.817       36.718       70.957       39.390       51.843       37.624     1551.550     2687.719     1415.588        0.603        0.283       37.175       41.212        1.229      340.667       14.846      866.280
10/31/2013  15:04:00       85.582       52.664       36.215       59.152       56.002       35.817     3498.930     3136.205     1282.859        0.966        0.396      100.487       26.181        0.068      340.396       14.385      866.285
10/31/2013  15:05:00       79.530       84.463       -2.764       67.793       41.030       29.281     4595.948     1683.444      857.386        1.030        0.357      116.013       29.093        0.063      340.136       13.948      866.285
10/31/2013  15:06:00      113.382       54.612       29.753       47.055       39.594       27.243     2214.174     1567.671      742.200        1.062        0.226      125.849       16.785        0.018      340.271       14.177      866.274
10/31/2013  15:07:00       98.057       29.325       19.262       29.199       33.374       28.142      852.556     1113.793      791.975        0.680        0.138      102.348       16.296        0.025      340.299       14.224      866.265
10/31/2013  15:08:00       25.239      -15.667       32.380       35.106       38.334       34.157     1232.398     1469.478     1166.730        0.290        0.193       29.706       33.211        1.250      340.487       14.540      866.260
10/31/2013  15:09:00       52.470      -25.776        9.698       24.112       32.094       25.203      581.411     1030.013      635.174        0.288        0.112       58.459       14.312        0.060      340.247       14.136      866.261
10/31/2013  15:10:00       35.295      -23.383       37.713       40.221       90.550       53.145     1617.703     8199.274     2824.367        0.793        0.632       42.338       65.595        2.400      340.571       14.683      866.260
10/31/2013  15:11:00      -11.672       32.677       35.474       16.600       27.118       25.005      275.546      735.370      625.251        0.205        0.082       34.699       12.308        0.126      340.811       15.090      866.260
10/31/2013  15:12:00       12.902        4.498        8.932       14.546        8.240       14.534      211.576       67.899      211.246        0.038        0.025       13.664       11.216        0.674      340.983       15.381      866.250
10/31/2013  15:13:00        6.738       61.486      -16.994       49.658       42.776       30.541     2465.906     1829.812      932.755        0.467        0.261       61.854       27.465        0.197      340.548       14.645      866.239
10/31/2013  15:14:00      -25.968       26.234       31.322       81.925       46.261       46.579     6711.757     2140.094     2169.635        0.668        0.551       36.913       56.056        2.306      340.811       15.091      866.229
10/31/2013  15:15:00       28.562        6.727        9.428       33.212       47.410       35.879     1103.037     2247.668     1287.315        0.279        0.232       29.343       24.625        0.704      340.712       14.922      866.227
10/31/2013  15:16:00       16.981        2.231       21.975       25.285       52.584       28.564      639.346     2765.079      815.884        0.250        0.211       17.127       26.482        2.391      340.824       15.112      866.226
10/31/2013  15:17:00       23.316        3.627       23.377       37.054       68.459       37.592     1373.003     4686.646     1413.179        0.429        0.374       23.596       26.219        1.235      340.808       15.085      866.236
10/31/2013  15:18:00       67.511      -84.039        4.313       80.256      103.702       52.551     6441.027    10754.008     2761.623        1.579        0.998      107.798       55.961        0.269      340.702       14.904      866.223
10/31/2013  15:19:00       76.762      -19.952       39.848       43.939       52.903       61.919     1930.636     2798.701     3833.925        0.822        0.428       79.312       32.755        0.171      340.575       14.691      866.219
10/31/2013  15:20:00       80.657       40.300        4.250       35.984       29.484       38.978     1294.830      869.325     1519.275        0.591        0.184       90.165       16.328        0.033      340.279       14.190      866.224
10/31/2013  15:21:00       63.050       24.669       -8.196       35.500       20.636       19.156     1260.219      425.858      366.960        0.335        0.103       67.704       17.917        0.070      340.213       14.077      866.222
10/31/2013  15:22:00      -10.824       51.816       -8.509       16.346       20.285       15.400      267.178      411.497      237.166        0.190        0.046       52.935       14.159        0.072      340.443       14.467      866.215
10/31/2013  15:23:00       -1.522      -34.450       -5.418       20.131       36.609       20.475      405.270     1340.224      419.222        0.169        0.108       34.483       15.638        0.206      340.545       14.640      866.213
10/31/2013  15:24:00        9.944      -16.885       23.260       26.647       24.328       15.988      710.048      591.836      255.602        0.124        0.078       19.595       14.827        0.573      341.024       15.450      866.192
10/31/2013  15:25:00       30.949       -5.597        6.328       20.493       29.352       18.419      419.968      861.557      339.246        0.132        0.081       31.451       14.075        0.200      340.662       14.839      866.182
10/31/2013  15:26:00        3.287       20.686       -6.832       19.368       28.319       21.950      375.114      801.944      481.789        0.107        0.083       20.946       17.091        0.666      340.580       14.699      866.173
10/31/2013  15:27:00        8.719       -8.909      -14.629       14.773       15.267       19.234      218.241      233.088      369.959        0.060        0.041       12.466       11.706        0.882      340.719       14.933      866.163
10/31/2013  15:28:00       45.331       23.131       20.667       31.378       24.578       25.757      984.560      604.057      663.440        0.263        0.113       50.891       12.762        0.063      340.651       14.818      866.156
10/31/2013  15:29:00       72.403       63.451       14.831       49.523       46.231       42.096     2452.488     2137.282     1772.060        0.792        0.318       96.272       26.660        0.077      340.471       14.514      866.140
10/31/2013  15:30:00       46.566       14.125       15.594       40.499       26.746       22.439     1640.152      715.329      503.489        0.273        0.143       48.662       17.770        0.133      340.753       14.993      866.128
10/31/2013  15:31:00      113.215       86.030       50.069       69.262       39.278       33.972     4797.179     1542.783     1154.127        1.511        0.375      142.193       22.687        0.025      340.595       14.723      866.118
10/31/2013  15:32:00       57.717       57.407       20.409       73.852       58.145       41.061     5454.145     3380.786     1685.984        0.878        0.526       81.405       21.443        0.069      340.621       14.768      866.115
10/31/2013  15:33:00       26.915       34.950       -2.292       65.221       55.337       41.264     4253.727     3062.162     1702.734        0.548        0.451       44.113       26.467        0.360      340.736       14.961      866.114
10/31/2013  15:34:00       64.244       47.645       19.164       73.534       63.924       38.396     5407.273     4086.329     1474.235        0.886        0.548       79.984       27.318        0.117      340.566       14.675      866.092
10/31/2013  15:35:00       26.956       56.502        4.311       44.677       57.870       32.468     1996.058     3348.966     1054.153        0.517        0.320       62.602       20.302        0.105      340.602       14.736      866.088
10/31/2013  15:36:00       93.256       62.044       10.707       42.290       28.463       25.665     1788.454      810.150      658.705        0.796        0.163      112.010       17.820        0.025      340.477       14.523      866.087
10/31/2013  15:37:00       25.632       29.414       -3.645       51.383       38.688       31.190     2640.190     1496.745      972.817        0.332        0.255       39.015       37.010        0.900      340.577       14.694      866.080
10/31/2013  15:38:00       35.521       51.725       -7.859       48.901       32.687       37.654     2391.315     1068.411     1417.797        0.444        0.244       62.747       23.544        0.141      340.650       14.817      866.072
10/31/2013  15:39:00       -8.131      -12.853      -11.499       36.930       37.080       21.857     1363.819     1374.962      477.744        0.179        0.161       15.209       18.891        1.543      340.811       15.089      866.052
10/31/2013  15:40:00       43.298        8.548       12.252       38.440       60.637       33.688     1477.624     3676.904     1134.912        0.419        0.314       44.133       25.557        0.335      340.751       14.988      866.048
10/31/2013  15:41:00       69.325       -0.177       51.330       60.855       92.997       60.138     3703.374     8648.354     3616.622        1.170        0.798       69.325       58.866        0.721      340.836       15.133      866.033
10/31/2013  15:42:00       36.395       25.647       63.636       45.751       42.473       34.631     2093.162     1803.914     1199.284        0.556        0.255       44.523       28.630        0.413      340.771       15.022      866.046
10/31/2013  15:43:00       47.731      -17.788       14.260       29.973       38.306       38.821      898.355     1467.313     1507.090        0.333        0.194       50.938       28.709        0.318      340.688       14.881      866.033
10/31/2013  15:44:00       88.535     -136.526      -24.169       39.257       42.387       26.254     1541.091     1796.656      689.282        1.554        0.201      162.720       21.319        0.017      340.681       14.869      866.007
10/31/2013  15:45:00       84.671     -123.438      -12.312       38.940       44.949       24.609     1516.292     2020.431      605.584        1.335        0.207      149.687       16.389        0.012      340.633       14.785      866.006
10/31/2013  15:46:00       67.976       46.211       30.233       42.538       53.912       30.942     1809.518     2906.510      957.422        0.667        0.284       82.197       20.744        0.064      340.662       14.837      866.009
10/31/2013  15:47:00       41.027       63.756       -2.877       33.619       33.274       15.891     1130.247     1107.151      252.530        0.412        0.124       75.816       12.319        0.026      340.516       14.589      866.011
10/31/2013  15:48:00        5.476        2.923      -18.561       35.064       35.434       26.415     1229.454     1255.591      697.730        0.178        0.159        6.207       21.186       11.650      340.781       15.039      865.991
10/31/2013  15:49:00      -35.877       -8.929       -4.864       40.354       29.173       28.829     1628.449      851.088      831.132        0.235        0.166       36.972       27.512        0.554      340.831       15.123      865.976
10/31/2013  15:50:00        3.727        8.516        7.540       36.204       37.068       27.475     1310.766     1374.008      754.883        0.179        0.172        9.296       21.174        5.188      340.885       15.215      865.973
10/31/2013  15:51:00       58.548       44.386       19.413       51.419       53.364       34.571     2643.928     2847.669     1195.188        0.623        0.334       73.471       14.515        0.039      340.802       15.072      865.962
10/31/2013  15:52:00       57.172       56.436       -2.989       42.026       32.517       20.726     1766.213     1057.346      429.549        0.486        0.163       80.334       23.652        0.087      340.654       14.825      865.952
10/31/2013  15:53:00       97.276       65.340        0.066       28.002       36.852       22.758      784.109     1358.060      517.944        0.820        0.133      117.183       20.136        0.030      340.587       14.710      865.946
10/31/2013  15:54:00       41.987       16.379        0.527       34.442       36.891       13.101     1186.251     1360.932      171.646        0.237        0.136       45.069        6.474        0.021      340.601       14.735      865.934
10/31/2013  15:55:00       40.682       30.578        0.043       38.376       52.512       24.863     1472.723     2757.530      618.175        0.372        0.242       50.892       20.802        0.167      340.852       15.158      865.915
10/31/2013  15:56:00       90.680       51.301        0.352       52.256       27.532       24.484     2730.715      758.030      599.488        0.747        0.204      104.185       14.523        0.019      340.695       14.894      865.901
10/31/2013  15:57:00       71.626       52.597       12.148       35.543       39.352       28.519     1263.276     1548.605      813.346        0.583        0.181       88.863       25.244        0.081      340.693       14.890      865.891
10/31/2013  15:58:00       46.873       69.599       -5.249       25.158       27.017       25.340      632.937      729.920      642.095        0.454        0.100       83.911       16.656        0.039      340.643       14.804      865.884
10/31/2013  15:59:00        2.324       53.562       -6.567       20.132       17.085       17.192      405.282      291.885      295.562        0.195        0.050       53.613        8.824        0.027      340.654       14.825      865.872
10/31/2013  16:00:00       -4.606       44.281      -17.756       24.545       19.293       14.534      602.464      372.202      211.244        0.174        0.059       44.520       12.884        0.084      340.830       15.121      865.855
10/31/2013  16:01:00       10.295       33.784       14.924       10.820       18.710       13.290      117.063      350.053      176.629        0.106        0.032       35.317        7.909        0.050      340.834       15.129      865.841
10/31/2013  16:02:00        3.100       36.459       -7.194       22.324       26.356       18.783      498.344      694.617      352.818        0.147        0.077       36.590       16.006        0.191      340.847       15.150      865.832
10/31/2013  16:03:00      -23.427       95.069      -15.743       23.084       31.459       15.966      532.852      989.699      254.926        0.581        0.089       97.913       14.437        0.022      340.822       15.109      865.836
10/31/2013  16:04:00       31.717       18.216        7.396       30.026       24.930       21.427      901.574      621.520      459.098        0.169        0.099       36.576       12.282        0.113      341.041       15.478      865.840
10/31/2013  16:05:00       12.009       63.618       65.202       38.686       57.003       43.930     1496.593     3249.291     1929.848        0.756        0.334       64.742       45.464        0.493      341.030       15.460      865.851
10/31/2013  16:06:00      102.337       39.614       13.019       59.350       45.332       51.601     3522.364     2055.003     2662.631        1.022        0.412      109.737       28.525        0.068      340.815       15.097      865.862
10/31/2013  16:07:00      101.527       51.297        8.688       42.140       38.454       38.344     1775.791     1478.681     1470.235        0.887        0.236      113.750       21.539        0.036      340.781       15.039      865.866
10/31/2013  16:08:00       49.403       43.734       17.241       50.107       34.869       36.439     2510.693     1215.840     1327.835        0.485        0.253       65.980       17.712        0.072      340.856       15.167      865.868
10/31/2013  16:09:00        7.222       43.363       69.578       32.667       41.208       30.066     1067.154     1698.120      903.963        0.522        0.183       43.960       26.485        0.363      341.076       15.538      865.869
10/31/2013  16:10:00       58.007      118.650      105.613       58.596       54.121       38.266     3433.440     2929.049     1464.292        1.821        0.391      132.070       25.866        0.038      340.767       15.015      865.878
10/31/2013  16:11:00       79.208       75.932       65.580       36.397       27.235       36.241     1324.740      741.733     1313.416        0.986        0.169      109.725       21.250        0.038      340.755       14.996      865.888
10/31/2013  16:12:00       67.563        6.761       14.464       42.110       40.241       24.564     1773.231     1619.349      603.391        0.441        0.200       67.901       19.895        0.086      340.893       15.228      865.900
10/31/2013  16:13:00       46.779       84.710       84.894       50.394       38.344       41.630     2539.605     1470.235     1733.094        1.116        0.287       96.768       34.739        0.129      340.905       15.249      865.905
10/31/2013  16:14:00       51.865       33.707       32.250       49.600       34.262       27.018     2460.114     1173.875      729.951        0.461        0.218       61.856       25.256        0.167      340.851       15.159      865.910
10/31/2013  16:15:00      -14.750       19.931        4.314       15.885       25.062       16.670      252.321      628.094      277.882        0.090        0.058       24.795       14.149        0.326      340.909       15.256      865.896
10/31/2013  16:16:00        4.654       10.241        3.056       16.555       32.017       12.118      274.073     1025.066      146.843        0.079        0.072       11.249        7.490        0.443      341.029       15.458      865.886
10/31/2013  16:17:00        7.225      -52.922       -7.092       40.504       36.452       21.795     1640.605     1328.735      475.010        0.317        0.172       53.413       18.004        0.114      340.774       15.028      865.888
10/31/2013  16:18:00       12.972      -47.987        0.849       25.653       28.348       20.461      658.064      803.600      418.645        0.218        0.094       49.709       14.472        0.085      341.052       15.497      865.885
10/31/2013  16:19:00       10.953        6.803       33.573       20.909       35.351       23.505      437.195     1249.666      552.462        0.177        0.112       12.894       24.609        3.643      341.237       15.810      865.882
10/31/2013  16:20:00       17.230       23.355       34.081       26.932       24.238       25.571      725.336      587.482      653.876        0.198        0.098       29.023       18.225        0.394      341.134       15.636      865.889
10/31/2013  16:21:00      104.116       37.239       13.332       39.328       24.204       31.365     1546.699      585.821      983.784        0.776        0.156      110.575       21.164        0.037      340.805       15.078      865.881
10/31/2013  16:22:00       41.937       52.230       30.289       44.458       36.546       22.859     1976.541     1335.619      522.542        0.462        0.192       66.983       12.596        0.035      340.901       15.242      865.864
10/31/2013  16:23:00      -11.440      -79.348       -6.674       43.819       43.867       28.376     1920.085     1924.331      805.182        0.556        0.232       80.169       26.638        0.110      341.254       15.839      865.849
10/31/2013  16:24:00       -3.223      -30.902       -0.563       27.542       26.837       25.742      758.556      720.202      662.632        0.155        0.107       31.069       10.694        0.118      341.223       15.785      865.837
10/31/2013  16:25:00      -12.450       28.154        0.713       30.043       37.001       20.805      902.585     1369.079      432.868        0.183        0.135       30.784       13.759        0.200      341.229       15.798      865.828
10/31/2013  16:26:00       18.322       33.412       17.157       39.457       20.525       23.710     1556.891      421.259      562.157        0.214        0.127       38.105       15.465        0.165      341.149       15.661      865.826
10/31/2013  16:27:00      -26.657       63.968       -9.079       26.948       24.277       25.009      726.193      589.354      625.458        0.341        0.097       69.300       16.845        0.059      341.204       15.755      865.822
10/31/2013  16:28:00      -35.481      154.096      -32.680       25.681       37.838       13.720      659.526     1431.747      188.226        1.418        0.114      158.128       12.440        0.006      340.885       15.215      865.811
10/31/2013  16:29:00      -66.287       39.407      -36.892       28.645       39.954       17.336      820.558     1596.296      300.535        0.501        0.136       77.116       11.486        0.022      340.888       15.220      865.809
10/31/2013  16:30:00      -60.565       55.826      -10.269       31.094       38.853       20.481      966.824     1509.538      419.488        0.489        0.145       82.369       14.276        0.030      341.242       15.819      865.800
10/31/2013  16:31:00      -39.749       55.685        1.804       37.818       25.825       24.821     1430.197      666.907      616.099        0.370        0.136       68.416       25.251        0.136      341.160       15.680      865.798
10/31/2013  16:32:00      -34.615       46.130      -16.701       21.009       22.249       15.227      441.366      495.030      231.864        0.239        0.058       57.673        8.049        0.019      340.918       15.270      865.797
10/31/2013  16:33:00      -16.013       18.370      -20.036       31.843       31.182       22.022     1013.946      972.321      484.979        0.173        0.124       24.369       17.945        0.542      341.093       15.565      865.791
10/31/2013  16:34:00       52.616       47.343       12.432       29.523       24.612       28.175      871.627      605.741      793.841        0.372        0.114       70.780       19.329        0.075      340.975       15.367      865.783
10/31/2013  16:35:00       73.087       19.141        2.858       23.485       37.570       23.294      551.538     1411.478      542.618        0.411        0.125       75.552       18.114        0.057      341.027       15.455      865.768
10/31/2013  16:36:00       58.536       75.551       62.028       59.686       48.288       54.088     3562.473     2331.746     2925.487        1.090        0.441       95.574       50.853        0.283      340.915       15.265      865.757
10/31/2013  16:37:00       76.441       29.565       19.343       56.073       55.770       48.041     3144.163     3110.278     2307.912        0.783        0.428       81.959       39.345        0.230      340.868       15.186      865.746
10/31/2013  16:38:00       29.002       12.850       28.005       46.827       41.744       35.341     2192.793     1742.565     1248.984        0.349        0.259       31.721       30.080        0.899      341.001       15.410      865.744
10/31/2013  16:39:00        7.743       47.336       76.251       26.636       47.850       28.856      709.458     2289.651      832.695        0.597        0.192       47.965       34.328        0.512      341.179       15.712      865.749
10/31/2013  16:40:00       50.282       69.277       56.115       46.800       34.156       44.174     2190.231     1166.616     1951.370        0.789        0.265       85.601       34.228        0.160      341.003       15.414      865.755
10/31/2013  16:41:00       32.052       46.194       46.324       38.023       38.689       34.947     1445.774     1496.806     1221.293        0.473        0.208       56.224       26.504        0.222      341.003       15.414      865.754
10/31/2013  16:42:00       32.029        0.102       17.478       22.584       48.542       29.303      510.033     2356.349      858.649        0.253        0.186       32.030       31.856        0.989      341.055       15.502      865.761
10/31/2013  16:43:00       31.548       25.443       21.009       47.778       50.626       30.122     2282.776     2562.977      907.354        0.392        0.288       40.530       32.505        0.643      341.059       15.509      865.754
10/31/2013  16:44:00       38.922       27.917        4.625       23.386       18.089       22.927      546.883      327.219      525.670        0.186        0.070       47.899       13.733        0.082      340.884       15.213      865.754
10/31/2013  16:45:00       18.662       21.475       -1.144       41.699       47.626       19.877     1738.827     2268.190      395.096        0.261        0.220       28.451       22.795        0.642      340.951       15.326      865.745
10/31/2013  16:46:00       19.607       16.447        1.207       28.133       22.314       18.248      791.450      497.903      332.979        0.114        0.081       25.592       16.311        0.406      341.060       15.511      865.733
10/31/2013  16:47:00       89.868       54.797       20.401       48.774       33.224       31.648     2378.945     1103.814     1001.598        0.799        0.224      105.256       22.370        0.045      340.920       15.273      865.724
10/31/2013  16:48:00       55.958       41.791       16.092       56.711       39.955       29.385     3216.191     1596.387      863.478        0.541        0.284       69.841       17.716        0.064      340.921       15.276      865.714
10/31/2013  16:49:00       19.882       53.772       -6.714       24.540       21.405       18.621      602.193      458.162      346.733        0.237        0.070       57.330       14.962        0.068      340.880       15.205      865.706
10/31/2013  16:50:00        9.297       78.293      -19.437       14.009       21.168        9.749      196.256      448.105       95.051        0.367        0.037       78.843       11.480        0.021      340.864       15.178      865.696
10/31/2013  16:51:00        6.679       38.906      -10.825       11.409       14.791        7.787      130.174      218.774       60.641        0.104        0.020       39.475        9.517        0.058      340.893       15.227      865.691
10/31/2013  16:52:00       16.792       19.793      -16.197       10.363       13.191       14.244      107.383      174.006      202.882        0.071        0.024       25.957       10.769        0.172      340.918       15.271      865.690
10/31/2013  16:53:00       27.257       23.323        3.954        8.256        8.984       10.272       68.154       80.711      105.504        0.078        0.013       35.873        6.153        0.029      340.859       15.170      865.686
10/31/2013  16:54:00       51.293       20.067        1.975       25.412       16.734       18.856      645.785      280.014      355.547        0.216        0.064       55.079        8.221        0.022      340.886       15.216      865.685
10/31/2013  16:55:00       96.218       -1.529       10.755       29.552       25.139       24.245      873.324      631.974      587.843        0.573        0.105       96.230       16.524        0.029      340.910       15.255      865.681
10/31/2013  16:56:00       33.514       38.451       14.468       20.447       15.869       15.693      418.100      251.825      246.273        0.186        0.046       51.006        2.490        0.002      340.909       15.255      865.669
10/31/2013  16:57:00       33.938       29.287       11.819       26.045       27.127       25.362      678.332      735.887      643.236        0.210        0.103       44.827       15.771        0.124      340.974       15.367      865.657
10/31/2013  16:58:00       75.628       56.142       27.242       39.229       34.446       33.721     1538.906     1186.539     1137.137        0.674        0.193       94.188       21.955        0.054      340.889       15.221      865.647
10/31/2013  16:59:00       51.765        7.995       14.321       36.433       27.817       15.380     1327.365      773.791      236.556        0.264        0.117       52.379       15.674        0.090      340.877       15.201      865.636
10/31/2013  17:00:00       87.741       40.374       16.589       40.380       30.952       22.590     1630.556      957.999      510.304        0.635        0.155       96.584       16.075        0.028      340.913       15.261      865.628
10/31/2013  17:01:00       73.105       56.529        7.306       47.162       37.278       28.567     2224.255     1389.619      816.074        0.651        0.221       92.411       18.399        0.040      340.921       15.276      865.629
10/31/2013  17:02:00       84.603       61.072        6.235       50.357       33.949       33.325     2535.813     1152.562     1110.523        0.786        0.240      104.342       23.833        0.052      340.880       15.206      865.624
10/31/2013  17:03:00       77.888       55.092       18.599       42.203       29.704       27.663     1781.109      882.312      765.230        0.644        0.171       95.403       12.920        0.018      340.901       15.241      865.623
10/31/2013  17:04:00       61.659       51.105        6.261       40.588       32.667       23.519     1647.405     1067.155      553.132        0.486        0.163       80.084       11.693        0.021      340.921       15.276      865.626
10/31/2013  17:05:00       74.659       48.764        0.720       22.357       17.485       16.925      499.837      305.721      286.440        0.452        0.055       89.174       12.647        0.020      340.840       15.138      865.628
10/31/2013  17:06:00       58.851       44.105       10.672       26.584       27.105       18.697      706.697      734.669      349.560        0.366        0.090       73.544        8.654        0.014      340.899       15.238      865.629
10/31/2013  17:07:00       45.642       24.202       12.941       21.164       22.417       11.284      447.909      502.516      127.338        0.196        0.054       51.662        7.451        0.021      340.960       15.343      865.629
10/31/2013  17:08:00       53.543       29.931       11.705       28.735       25.198       19.260      825.727      634.922      370.947        0.287        0.092       61.341       11.371        0.034      340.909       15.255      865.625
10/31/2013  17:09:00       40.291        5.175        9.099       50.848       22.364       16.901     2585.498      500.138      285.642        0.255        0.169       40.622       14.672        0.130      340.950       15.325      865.622
10/31/2013  17:10:00       78.026       51.989       10.146       37.368       30.841       18.770     1396.359      951.186      352.300        0.580        0.135       93.760       14.158        0.023      340.977       15.369      865.614
10/31/2013  17:11:00       55.279       47.059        1.661       22.073       16.488       14.806      487.236      271.868      219.204        0.313        0.049       72.596       10.990        0.023      340.923       15.281      865.611
10/31/2013  17:12:00       18.625       16.977        9.413       32.855       21.098       22.543     1079.466      445.129      508.172        0.138        0.102       25.201       15.696        0.388      340.932       15.293      865.614
10/31/2013  17:13:00       28.110       49.112       -0.284       31.708       32.610       23.476     1005.399     1063.405      551.128        0.291        0.131       56.588       19.076        0.114      340.911       15.257      865.618
10/31/2013  17:14:00       53.467       45.089        4.982       26.436       17.938       18.495      698.874      321.756      342.057        0.314        0.068       69.941        5.682        0.007      340.906       15.248      865.617
10/31/2013  17:15:00       74.037       56.030        3.340       13.345       11.677       12.073      178.080      136.360      145.756        0.455        0.023       92.848        6.803        0.005      340.899       15.237      865.621
10/31/2013  17:16:00       57.051       34.985       10.791        8.506       11.955        9.297       72.345      142.928       86.434        0.245        0.015       66.924        6.096        0.008      340.902       15.241      865.616
10/31/2013  17:17:00       26.891       24.224        1.825       17.419       16.821       10.494      303.420      282.954      110.126        0.100        0.035       36.193       10.279        0.081      340.935       15.299      865.610
10/31/2013  17:18:00       19.715       16.744       -0.236       13.612       18.995       10.202      185.287      360.826      104.074        0.066        0.033       25.866        9.415        0.132      340.947       15.318      865.607
10/31/2013  17:19:00       43.580       73.700      -10.570       23.291       31.915       16.130      542.491     1018.567      260.168        0.463        0.091       85.620       12.530        0.021      340.903       15.242      865.607
10/31/2013  17:20:00       22.343       24.621       -1.857       20.084       14.956       11.760      403.366      223.674      138.305        0.094        0.038       33.248        7.261        0.048      340.908       15.253      865.604
10/31/2013  17:21:00       18.206       55.345       -6.858       14.058       24.470       14.337      197.614      598.781      205.542        0.222        0.050       58.263       13.865        0.057      340.913       15.263      865.602
10/31/2013  17:22:00       16.028       42.864       -3.963       20.463       27.137       17.623      418.749      736.411      310.559        0.179        0.073       45.763       15.252        0.111      340.971       15.359      865.600
10/31/2013  17:23:00       21.307       37.411       -3.087       19.971       22.663       13.589      398.854      513.615      184.667        0.148        0.055       43.054        8.580        0.040      340.925       15.281      865.589
10/31/2013  17:24:00       11.751       57.728       -5.625       26.088       30.371       18.969      680.573      922.409      359.821        0.273        0.098       58.912       10.012        0.029      340.922       15.276      865.575
10/31/2013  17:25:00       39.997       71.474       -8.408       39.304       35.261       25.454     1544.793     1243.348      647.895        0.511        0.172       81.904       26.629        0.106      340.866       15.182      865.564
10/31/2013  17:26:00       51.037       85.158       -1.714       43.023       41.632       28.184     1850.994     1733.207      794.344        0.712        0.219       99.281       30.205        0.093      340.855       15.163      865.551
10/31/2013  17:27:00       53.620       43.377        4.732       31.617       26.180       26.698      999.651      685.390      712.777        0.359        0.120       68.969       19.974        0.084      340.768       15.015      865.542
10/31/2013  17:28:00       39.535       35.795       -0.717       37.221       35.417       30.588     1385.386     1254.381      935.646        0.321        0.179       53.332       18.322        0.118      340.789       15.052      865.532
10/31/2013  17:29:00       49.622       40.155       -0.607       20.556       18.397       15.760      422.556      338.456      248.386        0.254        0.050       63.834       11.833        0.034      340.814       15.095      865.523
10/31/2013  17:30:00       11.973       38.630       -5.130       20.872       28.284       11.923      435.637      800.006      142.162        0.152        0.069       40.442        8.738        0.047      340.827       15.117      865.524
10/31/2013  17:31:00        4.149       73.635      -11.999       14.459       17.322        9.562      209.050      300.035       91.430        0.309        0.030       73.752        7.358        0.010      340.880       15.206      865.525
10/31/2013  17:32:00       21.399       82.811      -16.402       27.271       33.794       18.863      743.710     1142.038      355.801        0.491        0.112       85.531       22.555        0.070      340.851       15.157      865.520
10/31/2013  17:33:00       -1.178       55.992       -6.448       15.036       30.206       14.074      226.071      912.375      198.077        0.226        0.067       56.005       13.526        0.058      340.859       15.169      865.524
10/31/2013  17:34:00        9.991       74.223       -9.157       28.744       32.595       13.928      826.224     1062.431      193.990        0.389        0.104       74.893       13.473        0.032      340.797       15.065      865.530
10/31/2013  17:35:00       50.594       31.401        3.667       20.449       13.887       12.253      418.182      192.846      150.127        0.216        0.038       59.546        5.229        0.008      340.669       14.850      865.537
10/31/2013  17:36:00       61.350       39.801        7.336       16.053       13.400       12.214      257.705      179.565      149.171        0.299        0.029       73.130        6.006        0.007      340.716       14.928      865.545
10/31/2013  17:37:00       24.036       31.448       -2.926       15.861       23.172        9.383      251.577      536.965       88.036        0.123        0.044       39.581        8.315        0.044      340.649       14.816      865.550
10/31/2013  17:38:00       39.962       12.539        4.986       19.666       16.003       10.083      386.749      256.090      101.671        0.126        0.037       41.883        4.481        0.011      340.614       14.757      865.545
10/31/2013  17:39:00       52.529       37.279        2.532       12.705       11.147       10.613      161.422      124.253      112.630        0.228        0.020       64.413        5.908        0.008      340.747       14.979      865.537
10/31/2013  17:40:00       83.239       43.574       11.367       25.828       19.003       16.807      667.093      361.100      282.468        0.513        0.066       93.954       10.922        0.014      340.692       14.887      865.530
10/31/2013  17:41:00       89.408       54.302       18.316       21.561       21.131       19.174      464.864      446.523      367.656        0.628        0.064      104.606       16.573        0.025      340.730       14.954      865.529
10/31/2013  17:42:00       49.363       38.724        9.591       18.416       14.784       16.738      339.150      218.565      280.168        0.243        0.042       62.740       11.352        0.033      340.683       14.873      865.533
10/31/2013  17:43:00       67.612       47.156       10.566       24.660       18.218       19.523      608.094      331.903      381.146        0.411        0.066       82.432       14.461        0.031      340.707       14.913      865.530
10/31/2013  17:44:00       44.520       29.871        5.486       27.037       17.923       18.192      731.019      321.231      330.947        0.214        0.069       53.613       10.122        0.036      340.673       14.856      865.528
10/31/2013  17:45:00       44.507       31.109        8.456       23.988       18.789       21.614      575.447      353.015      467.150        0.221        0.070       54.301        9.504        0.031      340.575       14.689      865.521
10/31/2013  17:46:00       49.427       38.966        3.271       24.182       14.088       15.822      584.760      198.468      250.337        0.250        0.052       62.940       10.718        0.029      340.604       14.740      865.511
10/31/2013  17:47:00       25.071       20.696        3.167       16.869       16.256       10.590      284.569      264.270      112.139        0.086        0.033       32.510        8.713        0.072      340.495       14.556      865.507
10/31/2013  17:48:00       21.836       26.343        4.648       14.779       19.389       14.459      218.426      375.936      209.057        0.100        0.040       34.217       13.686        0.160      340.559       14.664      865.510
10/31/2013  17:49:00       33.995       24.581        5.934       24.329       21.363       20.311      591.883      456.375      412.541        0.163        0.073       41.951       12.732        0.092      340.528       14.612      865.515
10/31/2013  17:50:00       30.689       25.965        2.682       16.612       16.204       13.228      275.948      262.565      174.980        0.117        0.036       40.199        8.798        0.048      340.507       14.577      865.519
10/31/2013  17:51:00       55.200       33.580       16.716       31.334       16.258       17.373      981.831      264.324      301.831        0.300        0.077       64.612       15.386        0.057      340.589       14.714      865.525
10/31/2013  17:52:00        8.518       49.600       -7.483       19.142       31.819       15.414      366.400     1012.450      237.604        0.210        0.081       50.326       18.356        0.133      340.527       14.609      865.533
10/31/2013  17:53:00       29.944       51.287       -9.506       15.695       24.584       15.402      246.328      604.379      237.215        0.235        0.054       59.389       12.105        0.042      340.475       14.521      865.537
10/31/2013  17:54:00       31.722       50.416       -1.789       18.370       24.362       17.017      337.449      593.509      289.574        0.239        0.061       59.565       16.495        0.077      340.485       14.538      865.543
10/31/2013  17:55:00       23.709       54.428       -2.340       28.193       46.569       22.838      794.817     2168.647      521.577        0.351        0.174       59.367       24.516        0.171      340.438       14.459      865.546
10/31/2013  17:56:00       50.205      102.126      -11.464       27.287       47.987       28.687      744.576     2302.720      822.934        0.848        0.194      113.800       30.439        0.072      340.514       14.585      865.550
10/31/2013  17:57:00       29.255       54.079        3.297       30.749       32.662       28.284      945.507     1066.800      799.963        0.330        0.141       61.485       23.419        0.145      340.439       14.461      865.558
10/31/2013  17:58:00       45.487       98.004      -12.405       25.564       39.073       25.604      653.543     1526.670      655.571        0.733        0.142      108.045       20.188        0.035      340.463       14.501      865.550
10/31/2013  17:59:00       13.687       67.746       -5.753       23.854       26.403       20.388      569.037      697.094      415.685        0.325        0.084       69.115       14.334        0.043      340.423       14.434      865.558
10/31/2013  18:00:00       35.613       61.983        0.585       29.201       33.354       23.962      852.670     1112.476      574.183        0.382        0.127       71.486       22.833        0.102      340.416       14.422      865.569
10/31/2013  18:01:00       24.466       58.455       -6.714       23.709       34.269       19.024      562.126     1174.346      361.899        0.308        0.105       63.368       21.129        0.111      340.405       14.403      865.566
10/31/2013  18:02:00       18.246       61.085       -5.706       21.885       27.759       13.519      478.969      770.556      182.773        0.276        0.072       63.751       13.384        0.044      340.425       14.437      865.569
10/31/2013  18:03:00       17.671       56.356       -6.346       18.568       20.617       14.516      344.769      425.043      210.716        0.225        0.049       59.062        6.363        0.012      340.386       14.371      865.557
10/31/2013  18:04:00       18.281       50.356       -2.976       21.523       22.152       16.705      463.245      490.707      279.059        0.206        0.062       53.572       16.058        0.090      340.349       14.308      865.562
10/31/2013  18:05:00       18.521       60.463      -10.763       18.357       23.545       14.289      336.997      554.379      204.184        0.260        0.055       63.236       12.725        0.040      340.330       14.275      865.554
10/31/2013  18:06:00       14.950       49.748       -2.789       23.668       26.800       14.672      560.176      718.257      215.274        0.210        0.075       51.946       14.075        0.073      340.290       14.209      865.564
10/31/2013  18:07:00       24.244       65.391      -11.810       18.830       20.917       12.381      354.561      437.528      153.287        0.297        0.047       69.741       12.605        0.033      340.324       14.265      865.565
10/31/2013  18:08:00       23.654       65.683      -11.458       24.882       27.562       17.355      619.127      759.665      301.212        0.334        0.084       69.813       15.188        0.047      340.295       14.217      865.576
10/31/2013  18:09:00       28.465       81.415      -11.554       28.803       37.481       16.999      829.611     1404.822      288.969        0.505        0.126       86.248       18.193        0.044      340.275       14.184      865.577
10/31/2013  18:10:00       37.155       64.251       -7.394       27.443       37.293       23.063      753.129     1390.802      531.902        0.412        0.134       74.220       22.132        0.089      340.221       14.092      865.591
10/31/2013  18:11:00       36.770       72.786       -1.313       31.005       40.562       31.366      961.336     1645.243      983.823        0.512        0.180       81.547       27.401        0.113      340.163       13.993      865.597
10/31/2013  18:12:00       47.409       67.601       -8.689       36.665       43.981       23.638     1344.320     1934.289      558.744        0.536        0.192       82.568       20.818        0.064      340.158       13.985      865.620
10/31/2013  18:13:00       39.490       67.197        1.716       34.461       46.351       32.620     1187.538     2148.450     1064.042        0.524        0.220       77.942       25.317        0.106      340.116       13.915      865.636
10/31/2013  18:14:00       86.850       81.359        1.542       41.846       39.839       32.950     1751.116     1587.132     1085.705        0.929        0.221      119.005       27.532        0.054      340.155       13.981      865.641
10/31/2013  18:15:00       54.920       56.978       -2.781       45.612       39.495       30.922     2080.472     1559.868      956.160        0.543        0.230       79.137       24.650        0.097      340.114       13.911      865.651
10/31/2013  18:16:00       55.362       43.681       -7.977       26.823       29.935       21.602      719.477      896.084      466.644        0.356        0.104       70.520       19.145        0.074      340.050       13.804      865.659
10/31/2013  18:17:00       45.937       33.219        5.242       17.809       15.400       14.104      317.151      237.174      198.935        0.200        0.038       56.689        3.759        0.004      339.984       13.692      865.683
10/31/2013  18:18:00       81.589       62.637       12.606       38.231       34.427       19.108     1461.582     1185.184      365.113        0.687        0.151      102.860       15.346        0.022      339.946       13.627      865.697
10/31/2013  18:19:00       88.468       77.690        4.348       45.437       39.014       30.639     2064.509     1522.074      938.770        0.920        0.226      117.739       22.216        0.036      339.966       13.661      865.714
10/31/2013  18:20:00       79.716       53.208        7.184       35.278       25.409       23.758     1244.563      645.629      564.423        0.585        0.123       95.842       13.114        0.019      339.888       13.529      865.725
10/31/2013  18:21:00      101.814       73.244       17.933       49.463       27.222       34.217     2446.602      741.048     1170.823        1.020        0.218      125.423       26.105        0.043      339.913       13.573      865.724
10/31/2013  18:22:00       63.536       50.963       12.037       43.440       26.180       27.882     1887.058      685.377      777.424        0.506        0.167       81.449       17.222        0.045      339.837       13.443      865.725
10/31/2013  18:23:00      122.281       79.675        4.719       34.935       34.481       25.793     1220.421     1188.942      665.277        1.220        0.154      145.948       16.638        0.013      339.910       13.568      865.729
10/31/2013  18:24:00       80.167       66.283       10.016       46.519       40.785       27.758     2164.048     1663.441      770.485        0.776        0.230      104.021       15.922        0.023      339.833       13.437      865.726
10/31/2013  18:25:00       65.018       46.226       16.910       37.901       24.639       25.933     1436.468      607.095      672.510        0.468        0.136       79.776       25.962        0.106      339.730       13.263      865.744
10/31/2013  18:26:00       96.492       46.489       17.172       43.892       29.266       21.538     1926.510      856.488      463.885        0.751        0.162      107.107       19.691        0.034      339.766       13.325      865.750
10/31/2013  18:27:00       74.851       46.307        8.216       41.834       34.821       22.706     1750.101     1212.472      515.552        0.565        0.174       88.018       18.819        0.046      339.671       13.165      865.760
10/31/2013  18:28:00      105.031       63.737       16.152       39.611       33.871       25.670     1569.032     1147.266      658.930        0.936        0.169      122.857       14.800        0.015      339.754       13.304      865.776
10/31/2013  18:29:00      119.307       86.578       20.272       34.861       28.294       28.836     1215.291      800.541      831.515        1.249        0.142      147.411       13.580        0.008      339.777       13.343      865.789
10/31/2013  18:30:00       81.197       59.141       14.843       25.966       24.523       20.532      674.221      601.372      421.576        0.600        0.085      100.452       11.705        0.014      339.686       13.191      865.818
10/31/2013  18:31:00       73.406       44.715       11.652       31.511       20.568       17.753      992.973      423.052      315.168        0.463        0.087       85.953       13.553        0.025      339.646       13.124      865.822
10/31/2013  18:32:00       56.072       50.836        7.236       24.772       24.731       18.729      613.653      611.635      350.766        0.368        0.079       75.686       14.291        0.036      339.656       13.140      865.836
10/31/2013  18:33:00       49.653       40.530       11.875       31.534       28.526       26.716      994.384      813.725      713.756        0.339        0.126       64.094       19.587        0.093      339.642       13.116      865.846
10/31/2013  18:34:00       53.153       62.638       -3.757       34.805       28.908       21.002     1211.390      835.659      441.102        0.463        0.124       82.151       10.605        0.017      339.721       13.248      865.859
10/31/2013  18:35:00       45.797       32.919        7.156       31.547       17.115       18.329      995.240      292.910      335.940        0.243        0.081       56.401       10.232        0.033      339.679       13.177      865.871
10/31/2013  18:36:00       38.561       34.292       13.227       32.000       22.007       21.625     1024.019      484.307      467.626        0.241        0.099       51.603       12.662        0.060      339.562       12.981      865.892
10/31/2013  18:37:00       45.372       30.614        3.345       20.673       19.073       19.179      427.370      363.782      367.829        0.208        0.058       54.734       15.233        0.077      339.562       12.979      865.909
10/31/2013  18:38:00       58.866       47.424        4.617       37.673       17.807       18.344     1419.278      317.091      336.493        0.390        0.104       75.593       10.398        0.019      339.573       13.001      865.911
10/31/2013  18:39:00       21.357       45.023       -6.607       15.998       30.607       14.323      255.930      936.785      205.135        0.196        0.070       49.832       14.600        0.086      339.556       12.970      865.927
10/31/2013  18:40:00       36.368       40.545       -0.397       23.884       25.899       15.474      570.450      670.756      239.457        0.222        0.074       54.465       14.074        0.067      339.502       12.878      865.938
10/31/2013  18:41:00       23.536       34.906       -9.071       15.719       20.043       12.011      247.079      401.738      144.271        0.132        0.040       42.099       13.021        0.096      339.504       12.882      865.948
10/31/2013  18:42:00       40.947       56.705       -9.591       22.735       32.558       13.164      516.901     1060.004      173.298        0.337        0.088       69.944       11.813        0.029      339.521       12.911      865.966
10/31/2013  18:43:00       62.269       51.618        0.815       32.971       23.456       19.498     1087.055      550.173      380.181        0.428        0.101       80.882       11.642        0.021      339.528       12.924      865.980
10/31/2013  18:44:00       59.865       51.374        5.590       26.450       28.999       23.083      699.596      840.936      532.822        0.416        0.104       78.887       18.399        0.054      339.485       12.851      866.002
10/31/2013  18:45:00       95.161       42.268       11.964       23.803       28.420       16.921      566.584      807.716      286.333        0.632        0.083      104.126       14.764        0.020      339.499       12.874      866.015
10/31/2013  18:46:00       68.100       41.331        7.093       24.243       16.350       14.969      587.709      267.322      224.078        0.374        0.054       79.661        5.930        0.006      339.469       12.822      866.022
10/31/2013  18:47:00       56.121       33.003       17.064       20.956       16.601       16.997      439.165      275.589      288.914        0.277        0.050       65.105        6.018        0.009      339.364       12.645      866.039
10/31/2013  18:48:00       77.794       42.456        4.510       18.835       17.811       15.009      354.741      317.236      225.275        0.439        0.045       88.625       11.579        0.017      339.410       12.725      866.047
10/31/2013  18:49:00       75.498       45.189        5.176       20.125       12.026       12.653      405.030      144.614      160.097        0.424        0.035       87.989        9.794        0.012      339.437       12.769      866.054
10/31/2013  18:50:00       37.868       27.963        8.014       10.190       12.833       14.623      103.843      164.693      213.842        0.138        0.024       47.073        5.276        0.013      339.365       12.649      866.066
10/31/2013  18:51:00       21.126       11.710        0.823       12.636       12.750        9.912      159.673      162.568       98.244        0.050        0.021       24.154        7.285        0.091      339.369       12.656      866.076
10/31/2013  18:52:00      -11.335       -4.640       -1.291       21.160        6.205       11.827      447.741       38.503      139.872        0.039        0.031       12.248       14.283        1.360      339.270       12.489      866.098
10/31/2013  18:53:00      -49.512        1.860      -11.718       13.988       19.853       10.721      195.652      394.133      114.932        0.165        0.035       49.547        5.437        0.012      338.826       11.741      866.112
10/31/2013  18:54:00      -77.739       13.234      -12.051       11.491       14.322       10.140      132.036      205.126      102.812        0.340        0.022       78.857        6.239        0.006      338.898       11.862      866.130
10/31/2013  18:55:00      -62.268       -8.033       -5.584       24.900       18.507       10.951      620.023      342.493      119.924        0.253        0.054       62.784       11.321        0.033      338.917       11.893      866.137
10/31/2013  18:56:00      -70.275       -8.657       -8.200       15.950       14.178       10.992      254.399      201.030      120.823        0.283        0.029       70.807        7.167        0.010      338.940       11.932      866.144
10/31/2013  18:57:00      -53.604      -27.987       -3.046       14.790       13.033        7.865      218.733      169.870       61.864        0.206        0.023       60.470        6.122        0.010      338.991       12.018      866.145
10/31/2013  18:58:00      -47.636      -34.703        0.433       25.820       18.494       12.913      666.659      342.024      166.753        0.232        0.059       58.936       12.104        0.042      339.018       12.064      866.144
10/31/2013  18:59:00      -41.909      -32.323        6.880       26.322       16.709       16.375      692.853      279.187      268.146        0.204        0.062       52.926       15.530        0.086      339.048       12.115      866.149
10/31/2013  19:00:00      -10.243      -16.587        7.231       21.858       14.995       13.807      477.784      224.844      190.632        0.066        0.045       19.495       12.598        0.418      339.181       12.338      866.142
10/31/2013  19:01:00      -16.289      -22.219        5.287       23.312       19.243       11.244      543.426      370.299      126.418        0.091        0.052       27.550        9.936        0.130      339.242       12.442      866.138
10/31/2013  19:02:00       -8.313      -36.195        2.012       15.288       15.971       10.852      233.722      255.065      117.757        0.099        0.030       37.138        7.584        0.042      339.324       12.579      866.130
10/31/2013  19:03:00       -5.530      -21.485       -1.783       11.092       13.226        9.270      123.024      174.921       85.939        0.044        0.019       22.185        7.336        0.109      339.192       12.356      866.130
10/31/2013  19:04:00      -14.127      -11.032       -2.015       13.174       10.783        5.960      173.563      116.276       35.524        0.033        0.016       17.925        6.714        0.140      339.084       12.174      866.124
10/31/2013  19:05:00      -12.289      -26.411       -4.489       19.897       18.461        8.316      395.896      340.795       69.164        0.084        0.040       29.130        4.663        0.026      339.179       12.335      866.129
10/31/2013  19:06:00       -1.678      -20.243       -2.832       28.485       22.028       11.147      811.404      485.230      124.263        0.092        0.071       20.312       13.366        0.433      339.399       12.707      866.134
10/31/2013  19:07:00      -47.733      -12.304       -8.307       11.598       11.420        8.324      134.506      130.423       69.289        0.142        0.017       49.293        3.300        0.004      339.032       12.089      866.136
10/31/2013  19:08:00      -63.840      -31.676       -8.400       15.052       14.193        9.005      226.560      201.445       81.084        0.283        0.025       71.267        3.991        0.003      339.016       12.060      866.156
10/31/2013  19:09:00      -32.621      -23.097        5.769       30.355       15.491       11.538      921.431      239.980      133.130        0.146        0.065       39.970       13.425        0.113      338.903       11.870      866.164
10/31/2013  19:10:00        2.771      -23.216        3.458       24.634       11.278        8.233      606.835      127.202       67.786        0.068        0.040       23.381        8.833        0.143      338.942       11.936      866.184
10/31/2013  19:11:00      -33.090      -33.224       -1.795       24.559       14.162       12.026      603.163      200.574      144.630        0.158        0.047       46.891        7.662        0.027      338.910       11.883      866.190
10/31/2013  19:12:00        3.065      -17.303        1.926       29.550       13.317       13.770      873.229      177.333      189.616        0.078        0.062       17.573        9.453        0.289      338.916       11.893      866.199
10/31/2013  19:13:00      -13.224       -4.490       -0.321       14.575        8.915        7.819      212.434       79.482       61.142        0.027        0.018       13.966        6.516        0.218      338.653       11.450      866.201
10/31/2013  19:14:00      -43.572       -9.923       -9.073        7.290        7.461        7.894       53.140       55.662       62.313        0.113        0.009       44.688        5.052        0.013      338.798       11.694      866.225
10/31/2013  19:15:00      -63.470       -8.242       -9.937       16.877       14.258       10.218      284.821      203.282      104.416        0.239        0.030       64.003        6.281        0.010      338.763       11.635      866.235
10/31/2013  19:16:00     -102.460      -47.402      -15.950       30.150       25.017       16.236      909.025      625.866      263.622        0.740        0.090      112.894       14.826        0.017      338.762       11.633      866.249
10/31/2013  19:17:00      -79.461      -53.959       -1.798       29.831       25.019       16.063      889.910      625.957      258.029        0.550        0.089       96.050       14.644        0.023      338.704       11.535      866.258
10/31/2013  19:18:00      -25.141      -20.550        5.543       42.375       19.068       18.547     1795.681      363.572      343.980        0.179        0.125       32.471       22.306        0.472      338.514       11.217      866.273
10/31/2013  19:19:00      -76.761      -29.201       -1.098       20.672       17.297        9.376      427.324      299.186       87.909        0.378        0.041       82.128        7.822        0.009      338.496       11.188      866.276
10/31/2013  19:20:00      -55.426      -20.981        0.687       21.651       20.837       11.056      468.749      434.174      122.241        0.227        0.051       59.264        9.163        0.024      338.450       11.110      866.296
10/31/2013  19:21:00      -58.898      -18.110       -1.360       25.112       15.153       11.505      630.595      229.622      132.357        0.240        0.050       61.620        8.366        0.018      338.397       11.020      866.301
10/31/2013  19:22:00      -99.567      -28.079       -6.386       25.041       16.019        9.762      627.077      256.598       95.290        0.586        0.049      103.450        9.176        0.008      338.324       10.897      866.323
10/31/2013  19:23:00     -100.306        1.157       -8.906       22.358       18.381       10.553      499.862      337.852      111.358        0.555        0.047      100.313        9.638        0.009      338.230       10.740      866.334
10/31/2013  19:24:00     -110.447       -5.139      -19.246       14.695       14.509       11.874      215.938      210.501      140.991        0.658        0.028      110.566       10.080        0.008      338.243       10.762      866.356
10/31/2013  19:25:00      -99.765      -14.675      -16.397       13.297       13.392        8.839      176.803      179.346       78.124        0.544        0.022      100.839        4.410        0.002      338.193       10.679      866.358
10/31/2013  19:26:00      -97.947       -9.164      -23.189       10.981       10.078        7.544      120.581      101.557       56.912        0.525        0.014       98.375        5.479        0.003      338.214       10.712      866.373
10/31/2013  19:27:00     -104.928      -21.979      -31.272       20.301       18.756       14.611      412.150      351.771      213.482        0.672        0.049      107.205       13.813        0.017      338.150       10.605      866.376
10/31/2013  19:28:00      -79.004      -32.939      -23.645       33.335       16.560       16.822     1111.237      274.240      282.991        0.478        0.083       85.596       15.226        0.032      338.085       10.496      866.384
10/31/2013  19:29:00      -92.182      -32.893      -14.877       16.581       18.044       15.385      274.927      325.588      236.696        0.532        0.042       97.875        5.612        0.003      337.970       10.303      866.383
10/31/2013  19:30:00      -90.114      -19.337       -4.094       27.302       36.280       19.578      745.419     1316.248      383.305        0.548        0.122       92.166       16.264        0.031      337.865       10.127      866.388
10/31/2013  19:31:00      -52.422       -3.351        3.562       54.149       44.961       33.755     2932.161     2021.472     1139.415        0.443        0.305       52.529       24.768        0.222      337.909       10.202      866.388
10/31/2013  19:32:00     -107.145      -44.963       -4.719       42.702       32.635       20.004     1823.503     1065.060      400.167        0.841        0.164      116.197       14.963        0.017      338.035       10.412      866.398
10/31/2013  19:33:00      -82.744      -75.741        4.413       56.175       33.837       19.765     3155.628     1144.966      390.667        0.865        0.235      112.175       25.959        0.054      337.986       10.330      866.406
10/31/2013  19:34:00      -58.182      -29.251       -5.734       47.621       38.680       20.473     2267.749     1496.158      419.125        0.423        0.209       65.121       18.798        0.083      337.977       10.317      866.405
10/31/2013  19:35:00      -22.277      -20.882       -6.772       37.522       37.721       20.700     1407.904     1422.910      428.498        0.212        0.163       30.534       14.707        0.232      338.087       10.500      866.408
10/31/2013  19:36:00      -78.690       17.948       -0.791       63.256       38.187       24.283     4001.365     1458.243      589.684        0.628        0.302       80.711       24.374        0.091      338.046       10.430      866.409
10/31/2013  19:37:00     -181.495       -4.938      -12.887       47.303       28.112       21.955     2237.569      790.258      482.026        1.832        0.175      181.562       20.003        0.012      338.102       10.526      866.415
10/31/2013  19:38:00      -74.979      -24.181        1.431       52.701       33.805       26.253     2777.358     1142.760      689.241        0.541        0.230       78.782       27.339        0.120      337.864       10.127      866.419
10/31/2013  19:39:00      -72.991      -23.977        2.243       51.170       46.535       26.269     2618.339     2165.520      690.086        0.569        0.274       76.828       14.515        0.036      337.872       10.140      866.424
10/31/2013  19:40:00      -91.787      -20.897        4.785       42.028       50.045       25.276     1766.364     2504.494      638.858        0.690        0.245       94.135       17.899        0.036      337.825       10.062      866.428
10/31/2013  19:41:00      -88.446       -3.972        5.891       51.233       44.514       33.813     2624.784     1981.455     1143.323        0.681        0.287       88.535       25.841        0.085      337.852       10.105      866.440
10/31/2013  19:42:00     -108.853      -12.193       -9.944       47.014       44.290       24.935     2210.298     1961.561      621.730        0.844        0.240      109.534       23.186        0.045      337.714        9.874      866.440
10/31/2013  19:43:00     -137.298       -6.958      -10.499       34.537       29.493       21.359     1192.807      869.815      456.196        1.076        0.126      137.474       18.889        0.019      337.694        9.841      866.444
10/31/2013  19:44:00     -118.548      -31.726       -8.501       34.587       30.121       20.430     1196.284      907.277      417.402        0.883        0.126      122.720       10.171        0.007      337.666        9.794      866.434
10/31/2013  19:45:00     -109.285      -28.259      -11.123       29.568       35.302       17.093      874.279     1246.244      292.175        0.764        0.121      112.879       11.811        0.011      337.618        9.714      866.439
10/31/2013  19:46:00      -65.623      -12.713        2.458       39.196       24.864       19.577     1536.331      618.221      383.244        0.351        0.127       66.843       17.235        0.066      337.504        9.522      866.438
10/31/2013  19:47:00      -74.114      -12.469       -9.593       46.891       26.014       21.565     2198.786      676.734      465.049        0.454        0.167       75.156       23.990        0.102      337.474        9.473      866.439
10/31/2013  19:48:00      -24.367      -15.666        3.956       26.912       25.262       23.056      724.248      638.170      531.571        0.137        0.095       28.968       13.905        0.230      337.499        9.513      866.433
10/31/2013  19:49:00      -77.552      -21.368       -7.215       25.892       35.806       22.332      670.387     1282.054      498.707        0.449        0.123       80.442       10.943        0.019      337.530        9.565      866.439
10/31/2013  19:50:00     -105.371      -35.744      -10.003       44.534       46.540       25.146     1983.281     2165.988      632.301        0.863        0.239      111.269       21.387        0.037      337.460        9.449      866.437
10/31/2013  19:51:00      -64.525      -27.578       -3.336       36.197       25.485       19.091     1310.189      649.470      364.448        0.363        0.116       70.171       17.397        0.061      337.358        9.279      866.440
10/31/2013  19:52:00      -99.309      -33.320       -7.582       38.369       33.336       19.082     1472.199     1111.282      364.120        0.699        0.147      104.750       18.561        0.031      337.396        9.342      866.446
10/31/2013  19:53:00     -101.811      -30.261      -10.007       22.130       27.568       15.976      489.729      759.970      255.219        0.644        0.075      106.213        9.486        0.008      337.349        9.264      866.450
10/31/2013  19:54:00     -107.733       -2.355      -11.022       43.321       26.809       15.804     1876.690      718.725      249.767        0.729        0.142      107.759       12.166        0.013      337.315        9.206      866.466
10/31/2013  19:55:00      -80.199      -16.109      -15.989       27.946       18.212       16.509      780.979      331.689      272.557        0.417        0.069       81.801       13.405        0.027      337.289        9.162      866.477
10/31/2013  19:56:00      -74.893      -27.822      -23.706       15.689       21.228       14.811      246.139      450.622      219.355        0.393        0.046       79.894        8.680        0.012      337.422        9.385      866.486
10/31/2013  19:57:00      -76.762      -28.879      -13.689       19.886       18.870       13.923      395.464      356.073      193.856        0.393        0.047       82.014       12.074        0.022      337.318        9.212      866.500
10/31/2013  19:58:00      -77.282      -32.039       -9.701       15.926       19.385       13.330      253.647      375.761      177.697        0.395        0.040       83.660        9.259        0.012      337.368        9.295      866.519
10/31/2013  19:59:00      -71.919      -17.239       -9.341       19.417       14.903       11.605      377.014      222.089      134.682        0.315        0.037       73.956        6.502        0.008      337.381        9.317      866.518
10/31/2013  20:00:00      -83.222       -7.383      -20.006       25.173       24.600       15.898      633.655      605.144      252.752        0.444        0.075       83.549       14.702        0.031      337.303        9.186      866.534
10/31/2013  20:01:00      -92.213       -8.624      -14.132       23.883       17.594       11.161      570.407      309.558      124.572        0.489        0.050       92.615       10.899        0.014      337.313        9.203      866.534
10/31/2013  20:02:00      -84.327      -20.440      -14.902       12.775       16.223       11.509      163.198      263.194      132.458        0.415        0.028       86.769        6.725        0.006      337.317        9.210      866.530
10/31/2013  20:03:00      -84.821      -20.522      -17.574       14.755       20.869       15.165      217.719      435.500      229.962        0.440        0.044       87.268       13.033        0.022      337.271        9.132      866.523
10/31/2013  20:04:00     -104.795       -3.050      -22.332       18.031       17.667       14.957      325.103      312.119      223.701        0.618        0.043      104.839        9.363        0.008      337.178        8.977      866.530
10/31/2013  20:05:00     -123.782        8.315      -24.253       35.452       25.387       19.440     1256.832      644.492      377.895        0.913        0.114      124.061       13.326        0.012      337.145        8.921      866.530
10/31/2013  20:06:00      -92.694        4.212      -12.800       37.869       19.958       19.125     1434.091      398.335      365.773        0.549        0.110       92.790       19.649        0.045      337.048        8.758      866.546
10/31/2013  20:07:00      -89.385       -3.540      -15.962       31.068       18.388       15.054      965.226      338.125      226.613        0.489        0.076       89.455       13.443        0.023      337.111        8.865      866.558
10/31/2013  20:08:00     -108.978       -5.925      -26.018       28.516       22.262       19.583      813.172      495.617      383.506        0.714        0.085      109.139       16.668        0.023      337.096        8.839      866.566
10/31/2013  20:09:00     -116.476        2.502      -21.348       28.334       23.220       24.111      802.817      539.165      581.341        0.798        0.096      116.503       15.479        0.018      337.059        8.776      866.571
10/31/2013  20:10:00      -99.714       -5.000      -24.327       25.561       22.781       20.981      653.345      518.963      440.201        0.609        0.081       99.839       13.200        0.017      337.041        8.745      866.590
10/31/2013  20:11:00     -108.098       -8.560      -16.761       32.324       17.922       22.007     1044.833      321.180      484.308        0.694        0.093      108.436       20.173        0.035      337.068        8.792      866.592
10/31/2013  20:12:00      -96.771       -8.353      -20.628       28.020       19.066       20.347      785.096      363.520      414.018        0.571        0.078       97.131       14.932        0.024      337.030        8.727      866.599
10/31/2013  20:13:00     -114.557        3.888      -22.846       31.844       20.566       19.382     1014.055      422.956      375.646        0.774        0.091      114.623       12.583        0.012      337.047        8.758      866.608
10/31/2013  20:14:00     -104.423      -12.646      -18.540       23.816       25.176       14.172      567.194      633.820      200.848        0.640        0.070      105.185       12.659        0.014      337.040        8.745      866.618
10/31/2013  20:15:00      -88.913       -7.408      -15.823       25.189       29.333       17.376      634.480      860.426      301.926        0.500        0.090       89.221       12.910        0.021      337.006        8.687      866.631
10/31/2013  20:16:00     -138.582        3.664      -25.298       26.348       18.115       21.297      694.194      328.164      453.553        1.067        0.074      138.630       16.215        0.014      336.989        8.661      866.630
10/31/2013  20:17:00      -93.984       -9.240      -18.931       32.314       30.871       28.165     1044.190      953.043      793.266        0.603        0.140       94.437       21.315        0.051      336.998        8.675      866.639
10/31/2013  20:18:00     -117.453        1.948      -16.354       34.654       20.762       18.783     1200.911      431.055      352.802        0.803        0.099      117.469       16.841        0.021      336.960        8.612      866.644
10/31/2013  20:19:00      -90.366      -16.877      -19.219       29.184       25.695       16.558      851.702      660.231      274.158        0.530        0.089       91.929       13.763        0.022      336.978        8.642      866.658
10/31/2013  20:20:00      -92.787      -13.674      -21.373       18.500       15.044       13.796      342.249      226.311      190.317        0.501        0.038       93.789        2.047        0.000      337.045        8.753      866.679
10/31/2013  20:21:00      -77.115       -8.590      -13.963       17.760       23.469       16.914      315.405      550.809      286.090        0.368        0.058       77.592       14.845        0.037      336.941        8.580      866.698
10/31/2013  20:22:00      -97.589      -20.106      -24.461       18.535       31.141       15.770      343.548      969.779      248.683        0.604        0.078       99.638       13.441        0.018      337.017        8.707      866.722
10/31/2013  20:23:00      -89.795        0.395      -22.475       21.336       16.725       12.831      455.229      279.741      164.640        0.473        0.045       89.796        9.356        0.011      337.085        8.822      866.738
10/31/2013  20:24:00      -66.371       10.590      -10.460       33.841       15.609       16.571     1145.244      243.640      274.610        0.314        0.083       67.210       19.314        0.083      337.132        8.898      866.766
10/31/2013  20:25:00      -76.006        1.752      -10.106       24.158       36.848       18.661      583.625     1357.806      348.216        0.409        0.114       76.026       15.073        0.039      337.541        9.584      866.788
10/31/2013  20:26:00      -47.406        5.391      -11.299       32.140       40.911       18.142     1032.992     1673.736      329.127        0.272        0.152       47.711       16.393        0.118      337.199        9.012      866.801
10/31/2013  20:27:00      -67.299       35.737      -15.818       34.127       32.671       20.581     1164.639     1067.416      423.597        0.436        0.133       76.199        9.812        0.017      337.533        9.572      866.806
10/31/2013  20:28:00      -46.059       47.881       -6.822       25.903       46.406       14.105      670.967     2153.522      198.950        0.374        0.151       66.438       18.804        0.080      337.641        9.754      866.827
10/31/2013  20:29:00      -45.918       28.208       -7.635       22.869       21.369       10.911      523.000      456.646      119.057        0.203        0.055       53.891        8.061        0.022      337.645        9.761      866.845
10/31/2013  20:30:00      -51.574        6.682      -14.098       23.298       31.425       11.971      542.788      987.533      143.308        0.229        0.084       52.005       11.170        0.046      337.465        9.458      866.854
10/31/2013  20:31:00      -34.921        7.767       -4.422       16.795       28.990       12.101      282.073      840.415      146.427        0.128        0.063       35.774       11.834        0.109      337.612        9.704      866.870
10/31/2013  20:32:00      -53.290       -8.124       -7.595       12.247       15.647       13.681      149.999      244.813      187.174        0.177        0.029       53.905        8.929        0.027      337.198        9.010      866.882
10/31/2013  20:33:00      -74.903       -2.117      -15.169       25.464       20.630       11.880      648.439      425.581      141.139        0.353        0.061       74.933       12.508        0.028      337.161        8.948      866.895
10/31/2013  20:34:00      -97.949        3.671      -19.297       16.250       21.238       14.282      264.060      451.073      203.977        0.545        0.046       98.018        7.298        0.006      337.182        8.983      866.908
10/31/2013  20:35:00      -87.185        5.508      -14.001       15.393       14.309       12.073      236.948      204.750      145.762        0.421        0.029       87.359        6.774        0.006      337.160        8.946      866.920
10/31/2013  20:36:00      -78.127       -5.299      -21.464       19.392       18.232        9.942      376.067      332.405       98.834        0.370        0.040       78.306        6.481        0.007      337.116        8.872      866.930
10/31/2013  20:37:00      -88.689        7.620      -11.546       18.366       20.342       14.638      337.319      413.814      214.257        0.451        0.048       89.016        6.403        0.005      337.367        9.292      866.947
10/31/2013  20:38:00      -52.082        0.831       -6.583       20.726       26.100       14.601      429.564      681.221      213.189        0.204        0.066       52.088       10.195        0.038      337.285        9.155      866.955
10/31/2013  20:39:00      -45.665        5.450      -10.140       18.824       22.001       11.680      354.355      484.034      136.422        0.160        0.049       45.989        8.543        0.035      337.316        9.207      866.957
10/31/2013  20:40:00      -45.404       54.075      -14.857       23.218       41.082       20.043      539.066     1687.769      401.715        0.392        0.131       70.609       20.405        0.084      337.931       10.238      866.960
10/31/2013  20:41:00      -53.674        9.715       -8.344       13.169       21.098       10.547      173.413      445.130      111.239        0.189        0.036       54.546        8.607        0.025      337.571        9.636      866.971
10/31/2013  20:42:00      -63.176        2.631      -16.249       12.293       12.529        9.153      151.126      156.981       83.771        0.233        0.020       63.231        5.323        0.007      337.431        9.399      866.974
10/31/2013  20:43:00      -60.247        2.098      -10.507       13.911       13.540       12.475      193.525      183.335      155.615        0.214        0.027       60.284        6.627        0.012      337.372        9.301      866.999
10/31/2013  20:44:00      -46.271       14.406       -8.106       19.570       14.828        9.693      382.997      219.873       93.955        0.156        0.035       48.462        6.082        0.016      337.453        9.439      867.007
10/31/2013  20:45:00      -55.673       17.751      -13.133       18.527       26.958       13.034      343.263      726.722      169.874        0.241        0.062       58.434       11.768        0.041      337.562        9.620      867.012
10/31/2013  20:46:00      -39.835       37.643      -13.127       20.692       29.616       17.642      428.165      877.081      311.250        0.240        0.081       54.807       11.407        0.043      337.648        9.764      867.020
10/31/2013  20:47:00       16.694       47.655       -1.390       26.664       20.887       14.126      710.983      436.256      199.541        0.195        0.067       50.494       12.757        0.064      337.908       10.201      867.037
10/31/2013  20:48:00      -33.324       19.179       -3.498       24.109       18.749       12.466      581.257      351.529      155.406        0.129        0.054       38.449       10.945        0.081      337.771        9.970      867.046
10/31/2013  20:49:00      -40.082       31.899       -5.250       28.046       22.504       12.160      786.580      506.436      147.866        0.205        0.072       51.227        6.579        0.016      337.926       10.230      867.050
10/31/2013  20:50:00      -51.760       -2.110       -9.069       13.903       12.670        8.042      193.291      160.529       64.678        0.159        0.021       51.803        2.555        0.002      337.554        9.606      867.062
10/31/2013  20:51:00      -41.242       18.475       -7.523       19.408       33.304        9.248      376.662     1109.160       85.529        0.183        0.079       45.191       10.920        0.058      337.793       10.007      867.054
10/31/2013  20:52:00      -25.996      -18.064       -2.619       19.206       15.385       13.438      368.879      236.693      180.583        0.090        0.039       31.656       11.322        0.128      337.660        9.784      867.061
10/31/2013  20:53:00      -14.744        3.764       -4.720       15.302       11.239        8.369      234.146      126.316       70.034        0.034        0.022       15.217        4.272        0.079      337.556        9.610      867.080
10/31/2013  20:54:00      -60.960       -2.924       -9.874       18.748       13.100        7.575      351.480      171.615       57.378        0.220        0.029       61.030        4.316        0.005      337.525        9.556      867.082
10/31/2013  20:55:00      -63.853       -6.130       -9.320       13.875       18.726       10.720      192.526      350.673      114.915        0.243        0.033       64.146       10.856        0.029      337.595        9.674      867.090
10/31/2013  20:56:00      -85.956       60.885      -21.701       26.722       34.544       17.223      714.052     1193.302      296.647        0.688        0.110      105.335       17.776        0.028      337.866       10.130      867.097
10/31/2013  20:57:00      -92.538      145.713      -22.584       46.703       40.066       30.859     2181.136     1605.282      952.282        1.752        0.237      172.614       33.337        0.037      337.901       10.187      867.096
10/31/2013  20:58:00      -69.165      116.324      -24.076       22.763       24.536       19.823      518.136      602.000      392.945        1.020        0.076      135.333       14.099        0.011      337.848       10.100      867.129
10/31/2013  20:59:00      -28.385       86.094      -14.722       28.773       36.895       18.873      827.868     1361.265      356.190        0.549        0.127       90.653       12.935        0.020      337.836       10.079      867.147
10/31/2013  21:00:00      -42.647       25.878       -3.862       21.766       27.802       16.057      473.779      772.954      257.825        0.200        0.075       49.884       11.964        0.058      337.704        9.858      867.166
10/31/2013  21:01:00        0.388       95.821      -12.542       30.688       54.743       27.002      941.755     2996.813      729.098        0.700        0.233       95.822       22.728        0.056      337.722        9.886      867.197
10/31/2013  21:02:00      -30.463       47.761       -9.368       30.413       33.910       11.830      924.948     1149.855      139.950        0.276        0.111       56.649       15.973        0.080      337.715        9.876      867.206
10/31/2013  21:03:00      -20.094       28.806       -7.644       14.108       22.806       12.989      199.032      520.134      168.718        0.109        0.044       35.122       11.262        0.103      337.706        9.861      867.210
10/31/2013  21:04:00      -35.394       19.102       -3.483       19.851       37.823       14.519      394.080     1430.561      210.790        0.183        0.102       40.220        7.535        0.035      337.684        9.825      867.224
10/31/2013  21:05:00      -11.953      -13.960        6.188       14.836       13.546       15.557      220.105      183.483      242.016        0.051        0.032       18.378       11.500        0.392      337.621        9.718      867.231
10/31/2013  21:06:00      -44.290      -16.334       -2.160       32.847       16.613       12.118     1078.941      275.978      146.855        0.187        0.075       47.206       16.935        0.129      337.578        9.647      867.239
10/31/2013  21:07:00      -50.468       35.707      -13.576       39.342       37.488       21.999     1547.821     1405.334      483.962        0.372        0.172       61.823       16.871        0.074      337.650        9.768      867.242
10/31/2013  21:08:00      -44.663       -2.661       -3.625       27.971       19.743       20.233      782.389      389.776      409.366        0.180        0.079       44.742       20.223        0.204      337.639        9.749      867.255
10/31/2013  21:09:00      -45.549       22.142       -6.342       36.163       22.564       18.235     1307.767      509.134      332.525        0.238        0.107       50.645       14.264        0.079      337.623        9.722      867.275
10/31/2013  21:10:00       -5.917       18.082        1.592       10.953       11.754       11.963      119.968      138.153      143.123        0.038        0.020       19.026        6.510        0.117      337.548        9.595      867.282
10/31/2013  21:11:00       -3.313        4.638       16.083       23.752       25.513       14.009      564.155      650.924      196.246        0.085        0.071        5.700       15.945        7.826      337.465        9.456      867.289
10/31/2013  21:12:00        5.352       53.850       -5.853       15.877       17.370        9.757      252.086      301.734       95.207        0.181        0.032       54.116        9.063        0.028      337.591        9.668      867.304
10/31/2013  21:13:00      -21.067       20.731       -5.842       16.692       22.150        9.075      278.619      490.605       82.353        0.088        0.043       29.556        9.024        0.093      337.507        9.528      867.321
10/31/2013  21:14:00      -13.829        2.947        4.323       10.092       14.645       10.273      101.840      214.472      105.530        0.032        0.021       14.139        4.356        0.095      337.520        9.550      867.335
10/31/2013  21:15:00      -39.311        9.346        2.099       15.579       16.478        7.944      242.702      271.513       63.106        0.111        0.029       40.406        4.566        0.013      337.468        9.462      867.352
10/31/2013  21:16:00      -43.045        2.525       -1.817       24.261       21.491       15.733      588.583      461.879      247.528        0.158        0.065       43.119       11.717        0.074      337.489        9.495      867.381
10/31/2013  21:17:00      -58.559        8.934       -0.987       17.979       22.792       12.344      323.245      519.471      152.375        0.225        0.050       59.237        8.349        0.020      337.507        9.528      867.415
10/31/2013  21:18:00      -49.436        2.350       -6.302       12.570       18.583       11.498      158.001      345.327      132.203        0.156        0.032       49.492        5.903        0.014      337.535        9.575      867.430
10/31/2013  21:19:00      -44.126       33.366       -7.664       32.560       26.995       17.580     1060.135      728.737      309.070        0.261        0.105       55.321       15.648        0.080      337.625        9.725      867.445
10/31/2013  21:20:00       -7.458       38.737        3.744       32.117       37.101       24.273     1031.517     1376.505      589.167        0.228        0.150       39.449       25.564        0.420      337.482        9.485      867.456
10/31/2013  21:21:00      -57.993       24.483       -3.072       23.983       42.890       20.965      575.171     1839.528      439.521        0.341        0.143       62.950       17.690        0.079      337.541        9.585      867.475
10/31/2013  21:22:00      -49.000       18.132       -3.427       19.379       24.636       10.626      375.539      606.922      112.909        0.192        0.055       52.247        6.907        0.017      337.560        9.615      867.486
10/31/2013  21:23:00        0.632        6.457       12.490       20.984       20.030       13.126      440.308      401.201      172.289        0.061        0.051        6.488        5.734        0.781      337.434        9.405      867.497
10/31/2013  21:24:00      -38.438      -13.473       -6.796       10.478       10.227        5.571      109.791      104.591       31.034        0.098        0.012       40.731        4.731        0.013      337.417        9.374      867.504
10/31/2013  21:25:00      -49.276       36.129      -10.975       21.941       22.598        9.774      481.406      510.652       95.532        0.247        0.054       61.101        8.547        0.020      337.668        9.797      867.513
10/31/2013  21:26:00      -66.702      -11.407      -14.411       11.439       12.578        9.579      130.841      158.196       91.765        0.258        0.019       67.670        7.438        0.012      337.429        9.398      867.528
10/31/2013  21:27:00      -81.294      -15.505       -9.602       22.011       15.675       14.157      484.505      245.692      200.431        0.394        0.047       82.760       10.497        0.016      337.320        9.214      867.526
10/31/2013  21:28:00      -90.866      -10.836       -9.721       31.088       22.307       16.270      966.449      497.590      264.703        0.510        0.086       91.510       16.682        0.033      337.277        9.143      867.523
10/31/2013  21:29:00      -98.135       -6.056      -13.410       27.405       16.652       13.154      751.060      277.300      173.040        0.552        0.060       98.322       11.171        0.013      337.231        9.067      867.522
10/31/2013  21:30:00      -73.553       -6.917      -13.833       28.328       20.471       16.174      802.498      419.052      261.584        0.357        0.074       73.877       13.831        0.035      337.190        8.997      867.517
10/31/2013  21:31:00      -76.152      -16.345       -8.700       32.954       18.745       18.275     1085.962      351.359      333.977        0.396        0.089       77.887       17.356        0.050      337.137        8.909      867.526
10/31/2013  21:32:00      -89.110      -12.553      -15.737       26.469       21.830       16.835      700.627      476.562      283.433        0.490        0.073       89.989       10.721        0.014      337.093        8.835      867.533
10/31/2013  21:33:00      -86.377       -4.595      -13.608       23.640       17.588       13.558      558.829      309.355      183.817        0.436        0.053       86.499        8.103        0.009      337.154        8.936      867.544
10/31/2013  21:34:00      -54.568       -0.179      -14.885       21.610       17.062       17.138      467.010      291.099      293.709        0.213        0.053       54.568       13.681        0.063      337.150        8.929      867.551
10/31/2013  21:35:00      -69.216       -4.882      -17.090       13.818       18.815       14.279      190.940      353.997      203.881        0.293        0.037       69.388       11.349        0.027      337.216        9.040      867.564
10/31/2013  21:36:00      -63.259       -5.211       -6.201       16.645       16.216       10.878      277.045      262.974      118.322        0.236        0.033       63.474        9.698        0.023      337.220        9.047      867.594
10/31/2013  21:37:00      -40.192       -8.023       -6.213       20.951       13.844        9.665      438.925      191.660       93.414        0.122        0.036       40.985        9.975        0.059      337.099        8.844      867.611
10/31/2013  21:38:00      -51.281      -15.518      -12.111       15.948       18.950       10.682      254.352      359.100      114.106        0.187        0.036       53.578        6.146        0.013      337.052        8.764      867.623
10/31/2013  21:39:00      -69.274        5.585      -10.217       21.445       24.244       15.401      459.885      587.795      237.194        0.311        0.064       69.499        8.495        0.015      336.979        8.643      867.642
10/31/2013  21:40:00      -80.874       25.569      -11.568       29.960       27.288       14.075      897.587      744.653      198.101        0.458        0.092       84.820       11.282        0.018      337.099        8.845      867.665
10/31/2013  21:41:00      -71.167        7.452      -10.242       34.509       21.640       14.961     1190.861      468.286      223.828        0.355        0.094       71.556       15.014        0.044      336.813        8.367      867.685
10/31/2013  21:42:00      -44.893        2.451       -8.670       23.979       24.313       17.022      574.983      591.116      289.765        0.178        0.073       44.959       12.031        0.072      336.655        8.105      867.699
10/31/2013  21:43:00      -56.287       -1.317      -10.158       31.769       19.422       14.869     1009.262      377.210      221.093        0.244        0.080       56.303        5.397        0.009      336.642        8.081      867.716
10/31/2013  21:44:00      -55.059       -7.636       -9.770       28.358       28.559       16.323      804.155      815.605      266.446        0.254        0.094       55.586        8.998        0.026      336.610        8.029      867.739
10/31/2013  21:45:00      -57.018       -7.452       -9.215       32.542       20.062       14.453     1058.982      402.491      208.889        0.253        0.084       57.503       11.646        0.041      336.567        7.957      867.739
10/31/2013  21:46:00      -75.820       -3.815      -16.805       23.267       17.277       13.264      541.352      298.501      175.929        0.353        0.051       75.916        8.239        0.012      336.557        7.938      867.740
10/31/2013  21:47:00      -77.602       -8.441       -9.177       28.483       13.521       15.204      811.277      182.827      231.173        0.370        0.061       78.060       11.498        0.022      336.551        7.930      867.743
10/31/2013  21:48:00      -96.364       -4.833      -21.515       29.775       14.090       12.330      886.538      198.531      152.033        0.550        0.062       96.485       10.626        0.012      336.532        7.897      867.753
10/31/2013  21:49:00      -96.971       -2.072      -22.090       16.298       17.137       13.590      265.618      293.668      184.690        0.532        0.037       96.993        8.828        0.008      336.422        7.713      867.745
10/31/2013  21:50:00      -75.964      -14.826       -5.472       30.384       20.936       15.602      923.159      438.306      243.429        0.381        0.080       77.397       14.242        0.034      336.467        7.788      867.739
10/31/2013  21:51:00      -52.574       -9.821       -9.306       28.947       20.822       17.451      837.928      433.538      304.546        0.226        0.079       53.483       15.771        0.087      336.469        7.791      867.740
10/31/2013  21:52:00     -107.444      -12.120       -9.972       25.980       27.241       16.736      674.963      742.077      280.077        0.674        0.085      108.125        9.541        0.008      336.455        7.768      867.746
10/31/2013  21:53:00     -106.492      -12.533       -4.973       44.821       22.995       19.006     2008.958      528.763      361.212        0.721        0.145      107.227       23.327        0.047      336.474        7.800      867.740
10/31/2013  21:54:00     -108.062        5.505      -10.330       35.969       29.309       23.234     1293.802      858.996      539.814        0.725        0.135      108.203       19.794        0.033      336.527        7.889      867.743
10/31/2013  21:55:00     -141.247       17.097      -17.546       28.150       24.793       21.977      792.400      614.682      482.991        1.122        0.095      142.278       16.998        0.014      336.578        7.975      867.750
10/31/2013  21:56:00     -137.582        7.695      -14.412       34.118       22.877       24.939     1164.043      523.368      621.954        1.075        0.115      137.797       20.070        0.021      336.560        7.945      867.757
10/31/2013  21:57:00     -141.640        0.685      -17.229       29.007       19.362       19.731      841.379      374.887      389.329        1.098        0.080      141.642       13.897        0.010      336.506        7.854      867.771
10/31/2013  21:58:00     -130.646        5.314      -11.799       38.212       24.093       21.700     1460.158      580.484      470.873        0.987        0.126      130.754       21.368        0.027      336.573        7.967      867.771
10/31/2013  21:59:00     -122.097       -9.858      -15.237       32.581       24.650       16.096     1061.548      607.633      259.074        0.858        0.096      122.494       14.417        0.014      336.509        7.858      867.772
10/31/2013  22:00:00     -126.757       -5.172      -18.065       25.210       20.094       16.837      635.550      403.778      283.470        0.887        0.066      126.863        9.855        0.006      336.409        7.692      867.782
10/31/2013  22:01:00     -108.536       -7.408      -12.805       33.458       22.919       19.149     1119.411      525.267      366.695        0.700        0.101      108.788       14.212        0.017      336.407        7.689      867.772
10/31/2013  22:02:00     -109.200      -39.816      -14.786       42.039       26.889       13.492     1767.303      722.997      182.036        0.820        0.134      116.233       15.937        0.019      336.404        7.683      867.773
10/31/2013  22:03:00      -23.777      -18.716        8.399       20.533       24.377       19.293      421.616      594.253      372.219        0.119        0.069       30.259       13.194        0.190      336.438        7.739      867.778
10/31/2013  22:04:00      -39.398      -41.699        0.333       24.426       18.401       19.658      596.636      338.579      386.455        0.231        0.066       57.367       16.486        0.083      336.483        7.814      867.769
10/31/2013  22:05:00      -88.099      -26.784      -14.239       30.292       24.099       22.927      917.614      580.759      525.630        0.535        0.101       92.081       20.634        0.050      336.450        7.761      867.777
10/31/2013  22:06:00     -105.351      -29.562      -10.777       24.380       24.684       15.895      594.370      609.294      252.652        0.677        0.073      109.420       10.562        0.009      336.345        7.585      867.775
10/31/2013  22:07:00      -86.377      -10.786       -8.021       24.722       27.158       19.636      611.158      737.538      385.561        0.469        0.087       87.048       15.100        0.030      336.324        7.549      867.782
10/31/2013  22:08:00      -97.880      -18.896       -1.723       37.891       28.845       24.743     1435.753      832.012      612.235        0.641        0.144       99.687       24.687        0.061      336.301        7.511      867.798
10/31/2013  22:09:00      -98.089      -25.040       -3.509       26.540       21.810       15.771      704.388      475.696      248.731        0.584        0.071      101.235       13.737        0.018      336.312        7.529      867.809
10/31/2013  22:10:00      -77.622      -18.139       -5.653       32.047       25.801       18.562     1027.003      665.688      344.547        0.421        0.102       79.714       16.716        0.044      336.268        7.455      867.831
10/31/2013  22:11:00     -112.526      -12.998       -5.498       38.374       32.938       22.075     1472.580     1084.925      487.323        0.795        0.152      113.275       20.906        0.034      336.249        7.425      867.838
10/31/2013  22:12:00     -130.239       -4.301       -7.691       49.602       29.713       21.229     2460.370      882.848      450.674        1.042        0.190      130.310       19.401        0.022      336.230        7.392      867.859
10/31/2013  22:13:00     -113.433      -20.128       -3.668       40.760       39.683       26.183     1661.372     1574.771      685.543        0.860        0.196      115.205       21.361        0.034      336.191        7.327      867.870
10/31/2013  22:14:00     -101.066       -4.342       -8.406       48.179       35.098       25.094     2321.222     1231.876      629.715        0.724        0.209      101.159       25.239        0.062      336.194        7.331      867.865
10/31/2013  22:15:00     -122.242      -16.396       -7.163       38.712       35.582       23.628     1498.594     1266.094      558.262        0.929        0.166      123.337       22.361        0.033      336.164        7.282      867.874
10/31/2013  22:16:00     -143.200       -6.446      -10.430       46.518       29.592       21.036     2163.919      875.658      442.497        1.207        0.174      143.345       16.448        0.013      336.159        7.272      867.875
10/31/2013  22:17:00     -153.705      -21.920      -20.263       35.977       36.736       21.328     1294.374     1349.497      454.904        1.381        0.155      155.260        9.187        0.004      336.186        7.319      867.873
10/31/2013  22:18:00      -78.985      -36.756       -0.507       68.843       46.590       24.875     4739.338     2170.590      618.760        0.756        0.376       87.118       29.975        0.118      336.154        7.265      867.884
10/31/2013  22:19:00     -123.427      -20.559       -8.440       40.256       45.760       23.914     1620.561     2094.017      571.878        1.001        0.214      125.127       22.123        0.031      336.105        7.181      867.897
10/31/2013  22:20:00      -81.996      -39.598       -5.485       35.973       32.164       22.127     1294.036     1034.547      489.607        0.557        0.141       91.057       19.902        0.048      336.159        7.273      867.899
10/31/2013  22:21:00     -101.175      -22.506        0.551       44.931       45.242       22.886     2018.770     2046.828      523.789        0.767        0.229      103.648       21.913        0.045      336.197        7.338      867.909
10/31/2013  22:22:00     -133.702      -12.268      -14.655       39.196       42.455       28.552     1536.328     1802.407      815.232        1.120        0.208      134.264       26.567        0.039      336.167        7.287      867.907
10/31/2013  22:23:00     -123.938      -16.384       -4.212       74.069       36.308       32.282     5486.248     1318.294     1042.129        1.175        0.392      125.016       39.611        0.100      336.116        7.200      867.903
10/31/2013  22:24:00     -107.625      -14.834      -10.934       52.837       35.541       22.132     2791.715     1263.139      489.835        0.823        0.227      108.642       21.659        0.040      336.184        7.314      867.904
10/31/2013  22:25:00      -96.358      -32.606       -4.215       43.809       43.475       25.292     1919.248     1890.101      639.710        0.741        0.222      101.725       17.028        0.028      336.143        7.245      867.911
10/31/2013  22:26:00     -138.238        4.637       -2.569       51.914       34.900       27.504     2695.098     1217.985      756.451        1.190        0.233      138.316       23.530        0.029      336.154        7.266      867.917
10/31/2013  22:27:00     -113.902      -25.386       -1.060       45.975       46.371       25.514     2113.743     2150.262      650.955        0.927        0.246      116.697       21.777        0.035      336.104        7.180      867.916
10/31/2013  22:28:00     -121.912      -57.504       -2.851       46.774       34.112       24.782     2187.798     1163.656      614.132        1.107        0.198      134.794       24.814        0.034      336.142        7.245      867.918
10/31/2013  22:29:00     -124.844      -38.990       -4.536       27.982       41.893       18.912      782.999     1755.004      357.680        1.001        0.145      130.791       16.624        0.016      336.120        7.209      867.907
10/31/2013  22:30:00      -92.338      -44.877       -5.703       49.459       30.582       20.981     2446.222      935.260      440.202        0.720        0.191      102.665       18.585        0.033      336.158        7.271      867.913
10/31/2013  22:31:00      -82.480      -37.037       -0.665       38.786       25.988       20.942     1504.369      675.393      438.566        0.540        0.131       90.414       18.388        0.041      336.234        7.399      867.921
10/31/2013  22:32:00     -104.055      -56.386       -6.877       39.861       26.743       16.462     1588.938      715.188      271.007        0.831        0.129      118.351       17.321        0.021      336.233        7.397      867.923
10/31/2013  22:33:00     -104.197      -59.127       -0.388       43.240       19.183       18.691     1869.689      367.989      349.362        0.847        0.129      119.804       21.924        0.033      336.165        7.284      867.936
10/31/2013  22:34:00      -51.820      -40.842        5.889       46.580       28.537       24.287     2169.690      814.350      589.840        0.398        0.179       65.980       27.946        0.179      336.180        7.309      867.939
10/31/2013  22:35:00      -74.252      -56.426        4.683       41.446       26.423       24.845     1717.792      698.200      617.253        0.588        0.152       93.259       22.754        0.060      336.166        7.284      867.932
10/31/2013  22:36:00      -67.744      -43.555        3.889       44.562       27.221       21.787     1985.734      740.956      474.664        0.485        0.160       80.537       20.823        0.067      336.087        7.153      867.925
10/31/2013  22:37:00      -86.599      -53.846        3.933       54.065       23.997       26.286     2923.060      575.839      690.957        0.730        0.209      101.974       29.019        0.081      336.059        7.107      867.921
10/31/2013  22:38:00     -104.942      -70.738       -3.910       43.451       29.177       21.381     1888.029      851.275      457.157        0.961        0.160      126.558       17.813        0.020      336.077        7.136      867.916
10/31/2013  22:39:00     -103.548      -65.467        3.374       37.526       27.679       24.969     1408.214      766.145      623.443        0.891        0.140      122.508       21.344        0.030      335.993        6.995      867.910
10/31/2013  22:40:00      -82.701      -62.283       -1.608       38.862       31.993       24.098     1510.242     1023.557      580.705        0.692        0.156      103.531       21.451        0.043      335.977        6.969      867.921
10/31/2013  22:41:00      -67.315      -55.255        3.036       45.241       35.259       19.710     2046.747     1243.190      388.491        0.564        0.184       87.088       15.681        0.032      335.964        6.949      867.921
10/31/2013  22:42:00     -100.589      -81.575        1.175       34.302       32.420       21.439     1176.651     1051.067      459.644        0.973        0.134      129.509       16.963        0.017      335.979        6.974      867.910
10/31/2013  22:43:00     -102.313      -83.058       -2.356       28.066       32.321       17.591      787.694     1044.656      309.429        0.976        0.107      131.782       11.393        0.007      335.947        6.919      867.915
10/31/2013  22:44:00      -96.717      -77.263        2.496       47.363       29.337       23.584     2243.246      860.684      556.204        0.949        0.183      123.789       22.291        0.032      335.931        6.894      867.908
10/31/2013  22:45:00      -89.756      -82.615       -2.109       56.231       40.903       25.517     3161.877     1673.091      651.135        1.019        0.274      121.989       33.188        0.074      335.885        6.816      867.901
10/31/2013  22:46:00      -95.393      -81.431        3.661       33.558       27.484       23.329     1126.162      755.344      544.220        0.908        0.121      125.423       17.370        0.019      335.853        6.765      867.913
10/31/2013  22:47:00     -102.644      -80.314        0.519       38.364       30.478       21.537     1471.824      928.911      463.861        0.993        0.143      130.331       17.814        0.019      335.862        6.778      867.919
10/31/2013  22:48:00      -97.010      -71.404       -6.032       40.450       24.601       22.739     1636.187      605.228      517.046        0.865        0.138      120.455       22.818        0.036      335.820        6.708      867.910
10/31/2013  22:49:00      -97.850      -74.715        1.569       35.099       23.460       22.601     1231.930      550.366      510.792        0.873        0.115      123.114       18.850        0.023      335.832        6.727      867.909
10/31/2013  22:50:00      -74.086      -55.211        7.913       46.574       29.837       25.348     2169.154      890.263      642.499        0.615        0.185       92.396       22.357        0.059      335.789        6.657      867.906
10/31/2013  22:51:00      -63.577      -54.566        4.396       42.365       30.764       24.667     1794.794      946.414      608.476        0.519        0.167       83.783       22.637        0.073      335.811        6.694      867.890
10/31/2013  22:52:00      -83.402      -60.141        4.577       42.641       37.843       25.880     1818.228     1432.105      669.778        0.726        0.196      102.824       22.968        0.050      335.786        6.652      867.891
10/31/2013  22:53:00      -89.573      -58.613        7.442       47.554       40.517       25.880     2261.375     1641.647      669.779        0.804        0.229      107.045       25.205        0.055      335.775        6.634      867.885
10/31/2013  22:54:00     -108.127      -48.126        7.508       44.515       37.312       30.516     1981.565     1392.158      931.225        0.918        0.215      118.353       27.516        0.054      335.769        6.623      867.862
10/31/2013  22:55:00      -77.703      -43.753        3.164       57.098       30.869       24.139     3260.140      952.869      582.692        0.638        0.240       89.174       22.139        0.062      335.775        6.634      867.862
10/31/2013  22:56:00      -78.895      -43.646       -3.385       43.882       20.555       19.502     1925.614      422.493      380.329        0.543        0.136       90.164       20.328        0.051      335.850        6.759      867.852
10/31/2013  22:57:00     -120.389      -59.774        2.523       39.323       22.259       19.985     1546.263      495.463      399.385        1.026        0.122      134.412       20.033        0.022      335.788        6.655      867.829
10/31/2013  22:58:00     -130.211      -42.121       -8.692       23.383       25.583       14.965      546.762      654.484      223.943        1.011        0.071      136.854        6.733        0.002      335.825        6.717      867.820
10/31/2013  22:59:00     -123.078      -51.343       -7.138       16.112       18.417       12.930      259.591      339.203      167.197        0.930        0.038      133.358        7.365        0.003      335.771        6.627      867.804
10/31/2013  23:00:00     -128.265      -43.802       -5.684       16.812       18.286       14.442      282.630      334.375      208.582        0.961        0.041      135.538       10.302        0.006      335.747        6.588      867.793
10/31/2013  23:01:00     -119.251      -47.179       -4.467       18.891       17.292       11.257      356.868      299.013      126.723        0.862        0.039      128.245        8.398        0.004      335.769        6.624      867.788
10/31/2013  23:02:00     -131.068      -52.534       -7.679       17.027       26.512       12.133      289.936      702.904      147.211        1.057        0.057      141.204       11.487        0.007      335.748        6.588      867.773
10/31/2013  23:03:00     -113.059      -42.466        0.236       37.983       22.797       16.926     1442.724      519.722      286.473        0.842        0.112      120.771       18.621        0.024      335.735        6.566      867.772
10/31/2013  23:04:00     -112.480      -36.181       -2.490       23.624       18.120       15.211      558.102      328.337      231.381        0.754        0.056      118.156       13.654        0.013      335.633        6.397      867.780
10/31/2013  23:05:00     -117.953      -31.727      -10.481       20.849       21.653       13.158      434.665      468.867      173.131        0.805        0.054      122.146        9.507        0.006      335.649        6.422      867.773
10/31/2013  23:06:00      -88.174      -22.326       -0.243       28.005       27.111       17.890      784.282      734.987      320.052        0.506        0.092       90.956       18.550        0.042      335.589        6.324      867.772
10/31/2013  23:07:00     -131.559      -14.829       -5.288       23.671       23.588       16.513      560.316      556.403      272.691        0.947        0.069      132.392       13.694        0.011      335.547        6.255      867.777
10/31/2013  23:08:00     -125.230      -27.272       -4.543       31.309       27.910       18.431      980.235      778.949      339.697        0.927        0.105      128.165       16.886        0.017      335.549        6.257      867.776
10/31/2013  23:09:00     -121.205      -19.829      -15.915       29.175       39.146       17.710      851.183     1532.433      313.647        0.902        0.135      122.816       10.023        0.007      335.515        6.201      867.773
10/31/2013  23:10:00     -143.885       -7.832      -17.394       34.252       32.825       23.269     1173.173     1077.459      541.428        1.193        0.140      144.098       22.567        0.025      335.493        6.163      867.774
10/31/2013  23:11:00     -120.319      -46.151       -9.689       32.307       42.439       19.386     1043.742     1801.027      375.799        0.996        0.161      128.866       15.939        0.015      335.482        6.146      867.786
10/31/2013  23:12:00      -92.048      -49.952        4.023       36.320       40.519       19.359     1319.126     1641.769      374.790        0.716        0.167      104.728       16.368        0.024      335.479        6.140      867.780
10/31/2013  23:13:00       -3.441      -18.930        7.731       27.422       17.608       23.276      751.958      310.059      541.771        0.102        0.080       19.240       16.120        0.702      335.462        6.111      867.782
10/31/2013  23:14:00      -86.997      -51.179       -8.039       47.191       31.348       20.663     2226.944      982.727      426.956        0.694        0.182      100.934       18.596        0.034      335.383        5.979      867.792
10/31/2013  23:15:00     -105.559      -64.578       -9.592       17.625       19.398       12.156      310.651      376.270      147.775        0.812        0.042      123.746       10.118        0.007      335.354        5.931      867.785
10/31/2013  23:16:00      -89.422      -55.830       -7.649       24.505       19.842       17.031      600.495      393.706      290.072        0.623        0.064      105.420       12.857        0.015      335.381        5.975      867.779
10/31/2013  23:17:00      -82.622      -27.479       -2.251       21.279       24.059       17.620      452.783      578.821      310.473        0.446        0.067       87.072       16.063        0.034      335.396        6.001      867.783
10/31/2013  23:18:00      -83.641      -41.618       -6.964       19.230       20.079       14.220      369.810      403.170      202.209        0.488        0.049       93.423        4.580        0.002      335.367        5.952      867.769
10/31/2013  23:19:00      -70.978      -31.234      -15.238       14.729       20.563       12.292      216.949      422.854      151.091        0.352        0.040       77.546        7.431        0.009      335.329        5.889      867.764
10/31/2013  23:20:00      -56.193      -38.815       -4.473       26.997       18.554       15.877      728.837      344.265      252.091        0.300        0.066       68.296       15.886        0.054      335.396        6.001      867.764
10/31/2013  23:21:00      -81.866      -45.757       -9.723       34.722       20.473       21.802     1205.640      419.134      475.341        0.549        0.105       93.785       22.346        0.057      335.269        5.789      867.760
10/31/2013  23:22:00     -109.544      -27.716      -18.027       12.844       15.616       10.117      164.967      243.871      102.359        0.680        0.026      112.996        7.029        0.004      335.218        5.705      867.745
10/31/2013  23:23:00     -123.010      -29.670      -13.304       18.255       17.649       12.183      333.250      311.496      148.415        0.849        0.040      126.538        8.459        0.004      335.218        5.704      867.733
10/31/2013  23:24:00     -125.335      -34.951      -21.249       14.534       15.311       13.845      211.235      234.431      191.685        0.901        0.032      130.117       11.294        0.008      335.211        5.693      867.723
10/31/2013  23:25:00      -98.016      -37.175      -21.984       17.763       13.970       11.705      315.535      195.148      137.008        0.606        0.032      104.829        4.364        0.002      335.213        5.697      867.707
10/31/2013  23:26:00     -103.922      -40.508      -18.061       12.973       17.832       11.081      168.300      317.996      122.778        0.669        0.030      111.538       10.220        0.008      335.202        5.680      867.703
10/31/2013  23:27:00     -111.293      -27.017      -17.139        8.602       10.924        9.903       74.001      119.344       98.078        0.685        0.015      114.525        5.602        0.002      335.159        5.606      867.704
10/31/2013  23:28:00     -114.830      -28.832      -15.500       11.888       13.368       13.203      141.316      178.715      174.317        0.738        0.025      118.394        6.178        0.003      335.164        5.616      867.692
10/31/2013  23:29:00     -112.075      -35.798      -22.656       17.497       14.718        8.511      306.157      216.626       72.445        0.748        0.030      117.653        7.360        0.004      335.150        5.594      867.687
10/31/2013  23:30:00      -83.205      -46.466      -14.745       24.187       21.386       19.162      585.030      457.379      367.180        0.535        0.070       95.300       19.464        0.042      335.130        5.559      867.683
10/31/2013  23:31:00      -75.511      -49.103       -4.779       23.123       19.869       14.245      534.671      394.757      202.920        0.463        0.057       90.072       10.845        0.014      335.165        5.617      867.671
10/31/2013  23:32:00      -76.776      -39.618       -6.261       18.798       23.145       19.454      353.375      535.684      378.449        0.439        0.063       86.395       10.990        0.016      335.152        5.596      867.665
10/31/2013  23:33:00      -71.033      -19.140      -10.791       13.930       23.038       13.957      194.045      530.749      194.790        0.322        0.046       73.567       12.934        0.031      335.212        5.696      867.663
10/31/2013  23:34:00      -70.136      -17.950       -9.817       13.855       17.695       14.731      191.956      313.130      216.993        0.303        0.036       72.396        7.351        0.010      335.213        5.697      867.661
10/31/2013  23:35:00      -61.636      -23.201       -8.752       16.847       20.162       13.451      283.833      406.513      180.928        0.264        0.044       65.858        9.614        0.021      335.219        5.704      867.649
10/31/2013  23:36:00      -51.256      -43.080       -3.876       30.155       21.444       16.948      909.318      459.834      287.221        0.308        0.083       66.956       15.340        0.052      335.178        5.638      867.659
10/31/2013  23:37:00      -87.123      -42.854       -6.795       25.348       21.398       12.378      642.518      457.869      153.205        0.536        0.063       97.092       12.855        0.018      335.144        5.582      867.673
10/31/2013  23:38:00      -93.711      -36.844      -11.151        9.036       13.993       10.607       81.649      195.799      112.511        0.533        0.019      100.693        7.826        0.006      335.130        5.562      867.674
10/31/2013  23:39:00      -79.085      -45.787       -5.806       18.238       10.803        9.864      332.617      116.695       97.306        0.447        0.027       91.383        6.320        0.005      335.168        5.621      867.692
10/31/2013  23:40:00      -49.034      -34.522       -7.709       39.411       19.389       19.212     1553.258      375.918      369.103        0.298        0.115       59.968       17.170        0.082      335.156        5.603      867.706
10/31/2013  23:41:00      -76.939      -54.607        0.521       43.124       29.419       20.421     1859.695      865.494      417.002        0.602        0.157       94.348       22.084        0.055      335.187        5.654      867.709
10/31/2013  23:42:00      -68.650      -51.173        1.845       35.395       27.384       16.318     1252.841      749.870      266.271        0.480        0.113       85.624       14.288        0.028      335.230        5.724      867.721
10/31/2013  23:43:00      -80.595      -68.053      -15.973       23.040       31.642       18.845      530.854     1001.188      355.116        0.663        0.094      105.484       13.912        0.017      335.340        5.908      867.737
10/31/2013  23:44:00      -79.040      -49.993      -17.937       23.723       21.274       16.942      562.795      452.603      287.036        0.519        0.065       93.524       13.030        0.019      335.351        5.925      867.737
10/31/2013  23:45:00      -82.686      -74.182       -8.400       22.787       27.149       20.156      519.228      737.060      406.281        0.704        0.083      111.085       13.910        0.016      335.292        5.828      867.741
10/31/2013  23:46:00      -96.059      -56.509       -1.521       30.640       25.561       21.253      938.833      653.365      451.692        0.723        0.102      111.448       17.418        0.024      335.206        5.685      867.738
10/31/2013  23:47:00      -98.108      -75.436       -6.260       39.928       28.342       18.850     1594.258      803.269      355.332        0.905        0.138      123.757       18.224        0.022      335.068        5.457      867.738
10/31/2013  23:48:00      -97.824      -62.544       -2.946       41.233       29.887       20.856     1700.166      893.232      434.957        0.826        0.151      116.109       21.520        0.034      335.118        5.540      867.746
10/31/2013  23:49:00      -90.435      -57.969       -2.920       44.773       20.884       23.455     2004.620      436.139      550.152        0.727        0.150      107.419       19.896        0.034      335.110        5.528      867.767
10/31/2013  23:50:00     -119.571      -50.142      -10.442       25.339       19.576       18.828      642.051      383.219      354.483        0.915        0.069      129.659       17.072        0.017      335.035        5.404      867.779
10/31/2013  23:51:00     -113.479      -27.732      -20.984       10.436       15.081       11.858      108.914      227.422      140.616        0.728        0.024      116.818        7.136        0.004      334.979        5.307      867.790
10/31/2013  23:52:00     -111.608      -23.833      -13.200       19.736       16.654       12.949      389.509      277.362      167.672        0.702        0.042      114.124        7.160        0.004      334.959        5.275      867.807
10/31/2013  23:53:00     -101.097      -20.908      -10.596       21.109       21.181       17.247      445.578      448.642      297.460        0.598        0.060      103.237       12.995        0.016      334.942        5.247      867.815
10/31/2013  23:54:00     -130.292      -42.964      -18.625       22.898       20.358       12.730      524.340      414.449      162.044        1.013        0.055      137.193       12.435        0.008      334.882        5.147      867.811
10/31/2013  23:55:00      -92.097      -55.208        0.231       36.966       19.513       22.411     1366.468      380.761      502.259        0.689        0.112      107.377       21.018        0.038      334.886        5.154      867.810
10/31/2013  23:56:00      -96.488      -52.337       -5.377       22.679       16.139       17.165      514.339      260.455      294.643        0.657        0.053      109.768       13.375        0.015      334.902        5.181      867.810
10/31/2013  23:57:00     -104.326      -51.018       -9.711       16.612       21.892       12.911      275.964      479.266      166.702        0.725        0.046      116.132        7.590        0.004      334.960        5.277      867.795
10/31/2013  23:58:00     -104.976      -30.262      -11.455       14.265       14.385       11.619      203.501      206.941      134.995        0.631        0.027      109.251        2.748        0.001      334.877        5.139      867.778
10/31/2013  23:59:00     -102.463      -23.309      -15.354       19.225       15.531       13.073      369.609      241.198      170.910        0.603        0.039      105.081        6.046        0.003      334.911        5.196      867.779
